<?xml version="1.0" encoding="UTF-8" standalone="no" ?>
<gpx xmlns="http://www.topografix.com/GPX/1/1" xmlns:xsi="http://www.w3.org/2001/XMLSchema-instance" xsi:schemaLocation="http://www.topografix.com/GPX/1/1 http://www.topografix.com/GPX/1/1/gpx.xsd" version="1.1" creator="VisuGPX - https://www.visugpx.com">
  <metadata>
    <name>Le Veyrier de René 5 Août 2018</name>
    <desc><![CDATA[Ballade à faire avec des amis ou pour une remise en jambe 
]]></desc>
  </metadata>
  <trk>
    <name><![CDATA[
Veyrier Tour Talabar
]]></name>
    <cmt><![CDATA[
3 heures
]]></cmt>
    <desc><![CDATA[
comment ...
]]></desc>
    <trkseg>
      <trkpt lat="45.90435" lon="6.15977">
        <ele>450</ele>
        <time>2018-08-06T04:40:33Z</time>
      </trkpt>
      <trkpt lat="45.90435" lon="6.15977">
        <ele>450</ele>
        <time>2018-08-06T04:40:34Z</time>
      </trkpt>
      <trkpt lat="45.90435" lon="6.15972">
        <ele>451</ele>
        <time>2018-08-06T04:40:39Z</time>
      </trkpt>
      <trkpt lat="45.90442" lon="6.15968">
        <ele>452</ele>
        <time>2018-08-06T04:41:27Z</time>
      </trkpt>
      <trkpt lat="45.90443" lon="6.15972">
        <ele>452</ele>
        <time>2018-08-06T04:41:37Z</time>
      </trkpt>
      <trkpt lat="45.9044" lon="6.15975">
        <ele>452</ele>
        <time>2018-08-06T04:41:42Z</time>
      </trkpt>
      <trkpt lat="45.90436" lon="6.15976">
        <ele>452</ele>
        <time>2018-08-06T04:41:44Z</time>
      </trkpt>
      <trkpt lat="45.90417" lon="6.15983">
        <ele>454</ele>
        <time>2018-08-06T04:41:55Z</time>
      </trkpt>
      <trkpt lat="45.90413" lon="6.15983">
        <ele>455</ele>
        <time>2018-08-06T04:41:58Z</time>
      </trkpt>
      <trkpt lat="45.9041" lon="6.15982">
        <ele>455</ele>
        <time>2018-08-06T04:42:01Z</time>
      </trkpt>
      <trkpt lat="45.90405" lon="6.15985">
        <ele>456</ele>
        <time>2018-08-06T04:42:07Z</time>
      </trkpt>
      <trkpt lat="45.90405" lon="6.15989">
        <ele>456</ele>
        <time>2018-08-06T04:42:25Z</time>
      </trkpt>
      <trkpt lat="45.90398" lon="6.16009">
        <ele>458</ele>
        <time>2018-08-06T04:42:36Z</time>
      </trkpt>
      <trkpt lat="45.90396" lon="6.16018">
        <ele>458</ele>
        <time>2018-08-06T04:42:40Z</time>
      </trkpt>
      <trkpt lat="45.90397" lon="6.16028">
        <ele>459</ele>
        <time>2018-08-06T04:42:45Z</time>
      </trkpt>
      <trkpt lat="45.90402" lon="6.16047">
        <ele>459</ele>
        <time>2018-08-06T04:42:56Z</time>
      </trkpt>
      <trkpt lat="45.90403" lon="6.16052">
        <ele>460</ele>
        <time>2018-08-06T04:42:59Z</time>
      </trkpt>
      <trkpt lat="45.90419" lon="6.16102">
        <ele>462</ele>
        <time>2018-08-06T04:43:31Z</time>
      </trkpt>
      <trkpt lat="45.90424" lon="6.16121">
        <ele>462</ele>
        <time>2018-08-06T04:43:43Z</time>
      </trkpt>
      <trkpt lat="45.90443" lon="6.16155">
        <ele>464</ele>
        <time>2018-08-06T04:44:10Z</time>
      </trkpt>
      <trkpt lat="45.90447" lon="6.16161">
        <ele>464</ele>
        <time>2018-08-06T04:44:16Z</time>
      </trkpt>
      <trkpt lat="45.90453" lon="6.16177">
        <ele>465</ele>
        <time>2018-08-06T04:44:28Z</time>
      </trkpt>
      <trkpt lat="45.90455" lon="6.16182">
        <ele>465</ele>
        <time>2018-08-06T04:44:32Z</time>
      </trkpt>
      <trkpt lat="45.90456" lon="6.16186">
        <ele>466</ele>
        <time>2018-08-06T04:44:35Z</time>
      </trkpt>
      <trkpt lat="45.90457" lon="6.1619">
        <ele>466</ele>
        <time>2018-08-06T04:44:39Z</time>
      </trkpt>
      <trkpt lat="45.90458" lon="6.16194">
        <ele>466</ele>
        <time>2018-08-06T04:44:42Z</time>
      </trkpt>
      <trkpt lat="45.90457" lon="6.16198">
        <ele>466</ele>
        <time>2018-08-06T04:44:45Z</time>
      </trkpt>
      <trkpt lat="45.90457" lon="6.16203">
        <ele>467</ele>
        <time>2018-08-06T04:44:50Z</time>
      </trkpt>
      <trkpt lat="45.90458" lon="6.16211">
        <ele>467</ele>
        <time>2018-08-06T04:44:57Z</time>
      </trkpt>
      <trkpt lat="45.90464" lon="6.16234">
        <ele>469</ele>
        <time>2018-08-06T04:45:15Z</time>
      </trkpt>
      <trkpt lat="45.90464" lon="6.16239">
        <ele>469</ele>
        <time>2018-08-06T04:45:18Z</time>
      </trkpt>
      <trkpt lat="45.90464" lon="6.16244">
        <ele>469</ele>
        <time>2018-08-06T04:45:21Z</time>
      </trkpt>
      <trkpt lat="45.90462" lon="6.1625">
        <ele>470</ele>
        <time>2018-08-06T04:45:25Z</time>
      </trkpt>
      <trkpt lat="45.90463" lon="6.16255">
        <ele>470</ele>
        <time>2018-08-06T04:45:29Z</time>
      </trkpt>
      <trkpt lat="45.90464" lon="6.16264">
        <ele>471</ele>
        <time>2018-08-06T04:45:36Z</time>
      </trkpt>
      <trkpt lat="45.90463" lon="6.16268">
        <ele>471</ele>
        <time>2018-08-06T04:45:39Z</time>
      </trkpt>
      <trkpt lat="45.90463" lon="6.16272">
        <ele>471</ele>
        <time>2018-08-06T04:45:42Z</time>
      </trkpt>
      <trkpt lat="45.90462" lon="6.16276">
        <ele>472</ele>
        <time>2018-08-06T04:45:46Z</time>
      </trkpt>
      <trkpt lat="45.90462" lon="6.1628">
        <ele>472</ele>
        <time>2018-08-06T04:45:49Z</time>
      </trkpt>
      <trkpt lat="45.90462" lon="6.16284">
        <ele>472</ele>
        <time>2018-08-06T04:45:54Z</time>
      </trkpt>
      <trkpt lat="45.90461" lon="6.16293">
        <ele>473</ele>
        <time>2018-08-06T04:46:01Z</time>
      </trkpt>
      <trkpt lat="45.9046" lon="6.16301">
        <ele>474</ele>
        <time>2018-08-06T04:46:07Z</time>
      </trkpt>
      <trkpt lat="45.90459" lon="6.16305">
        <ele>474</ele>
        <time>2018-08-06T04:46:10Z</time>
      </trkpt>
      <trkpt lat="45.90458" lon="6.16308">
        <ele>475</ele>
        <time>2018-08-06T04:46:12Z</time>
      </trkpt>
      <trkpt lat="45.90457" lon="6.16313">
        <ele>475</ele>
        <time>2018-08-06T04:46:16Z</time>
      </trkpt>
      <trkpt lat="45.90456" lon="6.16318">
        <ele>476</ele>
        <time>2018-08-06T04:46:21Z</time>
      </trkpt>
      <trkpt lat="45.90454" lon="6.16323">
        <ele>476</ele>
        <time>2018-08-06T04:46:26Z</time>
      </trkpt>
      <trkpt lat="45.90454" lon="6.16332">
        <ele>477</ele>
        <time>2018-08-06T04:46:34Z</time>
      </trkpt>
      <trkpt lat="45.90454" lon="6.16336">
        <ele>478</ele>
        <time>2018-08-06T04:46:38Z</time>
      </trkpt>
      <trkpt lat="45.90454" lon="6.1634">
        <ele>478</ele>
        <time>2018-08-06T04:46:42Z</time>
      </trkpt>
      <trkpt lat="45.9046" lon="6.16349">
        <ele>479</ele>
        <time>2018-08-06T04:46:52Z</time>
      </trkpt>
      <trkpt lat="45.90463" lon="6.16354">
        <ele>480</ele>
        <time>2018-08-06T04:46:58Z</time>
      </trkpt>
      <trkpt lat="45.90463" lon="6.16359">
        <ele>480</ele>
        <time>2018-08-06T04:47:02Z</time>
      </trkpt>
      <trkpt lat="45.90465" lon="6.16364">
        <ele>481</ele>
        <time>2018-08-06T04:47:05Z</time>
      </trkpt>
      <trkpt lat="45.90466" lon="6.1637">
        <ele>481</ele>
        <time>2018-08-06T04:47:09Z</time>
      </trkpt>
      <trkpt lat="45.90468" lon="6.16376">
        <ele>482</ele>
        <time>2018-08-06T04:47:13Z</time>
      </trkpt>
      <trkpt lat="45.90473" lon="6.16386">
        <ele>483</ele>
        <time>2018-08-06T04:47:22Z</time>
      </trkpt>
      <trkpt lat="45.90483" lon="6.16395">
        <ele>485</ele>
        <time>2018-08-06T04:47:40Z</time>
      </trkpt>
      <trkpt lat="45.90497" lon="6.16395">
        <ele>488</ele>
        <time>2018-08-06T04:47:52Z</time>
      </trkpt>
      <trkpt lat="45.90509" lon="6.164">
        <ele>491</ele>
        <time>2018-08-06T04:48:04Z</time>
      </trkpt>
      <trkpt lat="45.905" lon="6.16399">
        <ele>495</ele>
        <time>2018-08-06T04:48:32Z</time>
      </trkpt>
      <trkpt lat="45.90493" lon="6.164">
        <ele>501</ele>
        <time>2018-08-06T04:48:38Z</time>
      </trkpt>
      <trkpt lat="45.90483" lon="6.16412">
        <ele>504</ele>
        <time>2018-08-06T04:48:44Z</time>
      </trkpt>
      <trkpt lat="45.90479" lon="6.16414">
        <ele>504</ele>
        <time>2018-08-06T04:48:47Z</time>
      </trkpt>
      <trkpt lat="45.90474" lon="6.16417">
        <ele>506</ele>
        <time>2018-08-06T04:48:51Z</time>
      </trkpt>
      <trkpt lat="45.90471" lon="6.16419">
        <ele>506</ele>
        <time>2018-08-06T04:48:55Z</time>
      </trkpt>
      <trkpt lat="45.90463" lon="6.16423">
        <ele>508</ele>
        <time>2018-08-06T04:49:05Z</time>
      </trkpt>
      <trkpt lat="45.90459" lon="6.16424">
        <ele>510</ele>
        <time>2018-08-06T04:49:13Z</time>
      </trkpt>
      <trkpt lat="45.90458" lon="6.16429">
        <ele>511</ele>
        <time>2018-08-06T04:49:19Z</time>
      </trkpt>
      <trkpt lat="45.90459" lon="6.16434">
        <ele>513</ele>
        <time>2018-08-06T04:49:26Z</time>
      </trkpt>
      <trkpt lat="45.90462" lon="6.16438">
        <ele>514</ele>
        <time>2018-08-06T04:49:34Z</time>
      </trkpt>
      <trkpt lat="45.9047" lon="6.16443">
        <ele>517</ele>
        <time>2018-08-06T04:49:44Z</time>
      </trkpt>
      <trkpt lat="45.9047" lon="6.16447">
        <ele>521</ele>
        <time>2018-08-06T04:50:11Z</time>
      </trkpt>
      <trkpt lat="45.90466" lon="6.16446">
        <ele>522</ele>
        <time>2018-08-06T04:50:15Z</time>
      </trkpt>
      <trkpt lat="45.90454" lon="6.16445">
        <ele>525</ele>
        <time>2018-08-06T04:50:26Z</time>
      </trkpt>
      <trkpt lat="45.9045" lon="6.16444">
        <ele>527</ele>
        <time>2018-08-06T04:50:30Z</time>
      </trkpt>
      <trkpt lat="45.90446" lon="6.16444">
        <ele>528</ele>
        <time>2018-08-06T04:50:33Z</time>
      </trkpt>
      <trkpt lat="45.9044" lon="6.16449">
        <ele>529</ele>
        <time>2018-08-06T04:50:38Z</time>
      </trkpt>
      <trkpt lat="45.90439" lon="6.16454">
        <ele>531</ele>
        <time>2018-08-06T04:50:52Z</time>
      </trkpt>
      <trkpt lat="45.9044" lon="6.1646">
        <ele>534</ele>
        <time>2018-08-06T04:50:58Z</time>
      </trkpt>
      <trkpt lat="45.90444" lon="6.16462">
        <ele>536</ele>
        <time>2018-08-06T04:51:06Z</time>
      </trkpt>
      <trkpt lat="45.90452" lon="6.16464">
        <ele>540</ele>
        <time>2018-08-06T04:51:17Z</time>
      </trkpt>
      <trkpt lat="45.90456" lon="6.16465">
        <ele>542</ele>
        <time>2018-08-06T04:51:20Z</time>
      </trkpt>
      <trkpt lat="45.90461" lon="6.16468">
        <ele>543</ele>
        <time>2018-08-06T04:51:25Z</time>
      </trkpt>
      <trkpt lat="45.90463" lon="6.1648">
        <ele>546</ele>
        <time>2018-08-06T04:51:43Z</time>
      </trkpt>
      <trkpt lat="45.90466" lon="6.16483">
        <ele>549</ele>
        <time>2018-08-06T04:51:48Z</time>
      </trkpt>
      <trkpt lat="45.9047" lon="6.16484">
        <ele>550</ele>
        <time>2018-08-06T04:51:54Z</time>
      </trkpt>
      <trkpt lat="45.90472" lon="6.16489">
        <ele>553</ele>
        <time>2018-08-06T04:52:02Z</time>
      </trkpt>
      <trkpt lat="45.90475" lon="6.16493">
        <ele>553</ele>
        <time>2018-08-06T04:52:06Z</time>
      </trkpt>
      <trkpt lat="45.90478" lon="6.16499">
        <ele>555</ele>
        <time>2018-08-06T04:52:12Z</time>
      </trkpt>
      <trkpt lat="45.90478" lon="6.16507">
        <ele>556</ele>
        <time>2018-08-06T04:52:22Z</time>
      </trkpt>
      <trkpt lat="45.90484" lon="6.16506">
        <ele>559</ele>
        <time>2018-08-06T04:52:30Z</time>
      </trkpt>
      <trkpt lat="45.90488" lon="6.16506">
        <ele>559</ele>
        <time>2018-08-06T04:52:37Z</time>
      </trkpt>
      <trkpt lat="45.90492" lon="6.16508">
        <ele>560</ele>
        <time>2018-08-06T04:52:40Z</time>
      </trkpt>
      <trkpt lat="45.90498" lon="6.16509">
        <ele>561</ele>
        <time>2018-08-06T04:52:45Z</time>
      </trkpt>
      <trkpt lat="45.90505" lon="6.16509">
        <ele>562</ele>
        <time>2018-08-06T04:52:51Z</time>
      </trkpt>
      <trkpt lat="45.9051" lon="6.16511">
        <ele>563</ele>
        <time>2018-08-06T04:52:56Z</time>
      </trkpt>
      <trkpt lat="45.90513" lon="6.16515">
        <ele>564</ele>
        <time>2018-08-06T04:53:04Z</time>
      </trkpt>
      <trkpt lat="45.90535" lon="6.1653">
        <ele>568</ele>
        <time>2018-08-06T04:53:23Z</time>
      </trkpt>
      <trkpt lat="45.90541" lon="6.16535">
        <ele>569</ele>
        <time>2018-08-06T04:53:28Z</time>
      </trkpt>
      <trkpt lat="45.90545" lon="6.16537">
        <ele>570</ele>
        <time>2018-08-06T04:53:33Z</time>
      </trkpt>
      <trkpt lat="45.90547" lon="6.16542">
        <ele>573</ele>
        <time>2018-08-06T04:53:54Z</time>
      </trkpt>
      <trkpt lat="45.90545" lon="6.16546">
        <ele>575</ele>
        <time>2018-08-06T04:54:16Z</time>
      </trkpt>
      <trkpt lat="45.90547" lon="6.1655">
        <ele>576</ele>
        <time>2018-08-06T04:54:21Z</time>
      </trkpt>
      <trkpt lat="45.9055" lon="6.16555">
        <ele>579</ele>
        <time>2018-08-06T04:54:29Z</time>
      </trkpt>
      <trkpt lat="45.90548" lon="6.1656">
        <ele>580</ele>
        <time>2018-08-06T04:54:35Z</time>
      </trkpt>
      <trkpt lat="45.90544" lon="6.16562">
        <ele>582</ele>
        <time>2018-08-06T04:54:47Z</time>
      </trkpt>
      <trkpt lat="45.9054" lon="6.16563">
        <ele>583</ele>
        <time>2018-08-06T04:54:58Z</time>
      </trkpt>
      <trkpt lat="45.90537" lon="6.16565">
        <ele>586</ele>
        <time>2018-08-06T04:55:07Z</time>
      </trkpt>
      <trkpt lat="45.90534" lon="6.16569">
        <ele>587</ele>
        <time>2018-08-06T04:55:15Z</time>
      </trkpt>
      <trkpt lat="45.9053" lon="6.1657">
        <ele>589</ele>
        <time>2018-08-06T04:55:21Z</time>
      </trkpt>
      <trkpt lat="45.90527" lon="6.1657">
        <ele>590</ele>
        <time>2018-08-06T04:55:28Z</time>
      </trkpt>
      <trkpt lat="45.90523" lon="6.16571">
        <ele>591</ele>
        <time>2018-08-06T04:55:32Z</time>
      </trkpt>
      <trkpt lat="45.90519" lon="6.16571">
        <ele>592</ele>
        <time>2018-08-06T04:55:35Z</time>
      </trkpt>
      <trkpt lat="45.9051" lon="6.1657">
        <ele>594</ele>
        <time>2018-08-06T04:55:48Z</time>
      </trkpt>
      <trkpt lat="45.90492" lon="6.16568">
        <ele>598</ele>
        <time>2018-08-06T04:56:01Z</time>
      </trkpt>
      <trkpt lat="45.90486" lon="6.16569">
        <ele>599</ele>
        <time>2018-08-06T04:56:05Z</time>
      </trkpt>
      <trkpt lat="45.90482" lon="6.16569">
        <ele>600</ele>
        <time>2018-08-06T04:56:09Z</time>
      </trkpt>
      <trkpt lat="45.90478" lon="6.16569">
        <ele>600</ele>
        <time>2018-08-06T04:56:12Z</time>
      </trkpt>
      <trkpt lat="45.90474" lon="6.1657">
        <ele>602</ele>
        <time>2018-08-06T04:56:17Z</time>
      </trkpt>
      <trkpt lat="45.90476" lon="6.16575">
        <ele>603</ele>
        <time>2018-08-06T04:56:26Z</time>
      </trkpt>
      <trkpt lat="45.9048" lon="6.16579">
        <ele>605</ele>
        <time>2018-08-06T04:56:32Z</time>
      </trkpt>
      <trkpt lat="45.90483" lon="6.16582">
        <ele>607</ele>
        <time>2018-08-06T04:56:43Z</time>
      </trkpt>
      <trkpt lat="45.90489" lon="6.1659">
        <ele>611</ele>
        <time>2018-08-06T04:56:53Z</time>
      </trkpt>
      <trkpt lat="45.90489" lon="6.16595">
        <ele>613</ele>
        <time>2018-08-06T04:57:04Z</time>
      </trkpt>
      <trkpt lat="45.90495" lon="6.16604">
        <ele>616</ele>
        <time>2018-08-06T04:57:14Z</time>
      </trkpt>
      <trkpt lat="45.90499" lon="6.16606">
        <ele>617</ele>
        <time>2018-08-06T04:57:21Z</time>
      </trkpt>
      <trkpt lat="45.90502" lon="6.16608">
        <ele>618</ele>
        <time>2018-08-06T04:57:24Z</time>
      </trkpt>
      <trkpt lat="45.90506" lon="6.16611">
        <ele>619</ele>
        <time>2018-08-06T04:57:28Z</time>
      </trkpt>
      <trkpt lat="45.90522" lon="6.16618">
        <ele>622</ele>
        <time>2018-08-06T04:57:45Z</time>
      </trkpt>
      <trkpt lat="45.9053" lon="6.16621">
        <ele>624</ele>
        <time>2018-08-06T04:57:53Z</time>
      </trkpt>
      <trkpt lat="45.90529" lon="6.16625">
        <ele>627</ele>
        <time>2018-08-06T04:58:08Z</time>
      </trkpt>
      <trkpt lat="45.90525" lon="6.16627">
        <ele>628</ele>
        <time>2018-08-06T04:58:16Z</time>
      </trkpt>
      <trkpt lat="45.90527" lon="6.16632">
        <ele>632</ele>
        <time>2018-08-06T04:58:24Z</time>
      </trkpt>
      <trkpt lat="45.90534" lon="6.16636">
        <ele>634</ele>
        <time>2018-08-06T04:58:33Z</time>
      </trkpt>
      <trkpt lat="45.90547" lon="6.16649">
        <ele>638</ele>
        <time>2018-08-06T04:58:53Z</time>
      </trkpt>
      <trkpt lat="45.9055" lon="6.16653">
        <ele>639</ele>
        <time>2018-08-06T04:58:57Z</time>
      </trkpt>
      <trkpt lat="45.90554" lon="6.16657">
        <ele>640</ele>
        <time>2018-08-06T04:59:01Z</time>
      </trkpt>
      <trkpt lat="45.90556" lon="6.16661">
        <ele>641</ele>
        <time>2018-08-06T04:59:04Z</time>
      </trkpt>
      <trkpt lat="45.90564" lon="6.16667">
        <ele>643</ele>
        <time>2018-08-06T04:59:12Z</time>
      </trkpt>
      <trkpt lat="45.90566" lon="6.16673">
        <ele>644</ele>
        <time>2018-08-06T04:59:16Z</time>
      </trkpt>
      <trkpt lat="45.90572" lon="6.16682">
        <ele>645</ele>
        <time>2018-08-06T04:59:24Z</time>
      </trkpt>
      <trkpt lat="45.90575" lon="6.16686">
        <ele>646</ele>
        <time>2018-08-06T04:59:31Z</time>
      </trkpt>
      <trkpt lat="45.90591" lon="6.16689">
        <ele>650</ele>
        <time>2018-08-06T04:59:51Z</time>
      </trkpt>
      <trkpt lat="45.90594" lon="6.16685">
        <ele>652</ele>
        <time>2018-08-06T04:59:56Z</time>
      </trkpt>
      <trkpt lat="45.90596" lon="6.16679">
        <ele>653</ele>
        <time>2018-08-06T05:00:01Z</time>
      </trkpt>
      <trkpt lat="45.90598" lon="6.16673">
        <ele>654</ele>
        <time>2018-08-06T05:00:09Z</time>
      </trkpt>
      <trkpt lat="45.90602" lon="6.16671">
        <ele>656</ele>
        <time>2018-08-06T05:00:12Z</time>
      </trkpt>
      <trkpt lat="45.90606" lon="6.16671">
        <ele>657</ele>
        <time>2018-08-06T05:00:15Z</time>
      </trkpt>
      <trkpt lat="45.9061" lon="6.16668">
        <ele>658</ele>
        <time>2018-08-06T05:00:18Z</time>
      </trkpt>
      <trkpt lat="45.90614" lon="6.16666">
        <ele>659</ele>
        <time>2018-08-06T05:00:23Z</time>
      </trkpt>
      <trkpt lat="45.90614" lon="6.16672">
        <ele>664</ele>
        <time>2018-08-06T05:01:04Z</time>
      </trkpt>
      <trkpt lat="45.90612" lon="6.16677">
        <ele>667</ele>
        <time>2018-08-06T05:01:08Z</time>
      </trkpt>
      <trkpt lat="45.90609" lon="6.16688">
        <ele>672</ele>
        <time>2018-08-06T05:01:18Z</time>
      </trkpt>
      <trkpt lat="45.90607" lon="6.16694">
        <ele>673</ele>
        <time>2018-08-06T05:01:23Z</time>
      </trkpt>
      <trkpt lat="45.90605" lon="6.16699">
        <ele>675</ele>
        <time>2018-08-06T05:01:28Z</time>
      </trkpt>
      <trkpt lat="45.90609" lon="6.16701">
        <ele>677</ele>
        <time>2018-08-06T05:01:39Z</time>
      </trkpt>
      <trkpt lat="45.90617" lon="6.167">
        <ele>682</ele>
        <time>2018-08-06T05:01:54Z</time>
      </trkpt>
      <trkpt lat="45.90626" lon="6.16699">
        <ele>684</ele>
        <time>2018-08-06T05:02:03Z</time>
      </trkpt>
      <trkpt lat="45.9063" lon="6.16698">
        <ele>686</ele>
        <time>2018-08-06T05:02:09Z</time>
      </trkpt>
      <trkpt lat="45.90631" lon="6.16703">
        <ele>687</ele>
        <time>2018-08-06T05:02:18Z</time>
      </trkpt>
      <trkpt lat="45.90629" lon="6.1672">
        <ele>691</ele>
        <time>2018-08-06T05:02:35Z</time>
      </trkpt>
      <trkpt lat="45.90633" lon="6.16723">
        <ele>693</ele>
        <time>2018-08-06T05:02:50Z</time>
      </trkpt>
      <trkpt lat="45.90635" lon="6.16719">
        <ele>694</ele>
        <time>2018-08-06T05:02:57Z</time>
      </trkpt>
      <trkpt lat="45.90638" lon="6.16717">
        <ele>696</ele>
        <time>2018-08-06T05:03:01Z</time>
      </trkpt>
      <trkpt lat="45.90642" lon="6.16716">
        <ele>697</ele>
        <time>2018-08-06T05:03:04Z</time>
      </trkpt>
      <trkpt lat="45.90659" lon="6.16719">
        <ele>700</ele>
        <time>2018-08-06T05:03:18Z</time>
      </trkpt>
      <trkpt lat="45.90663" lon="6.16719">
        <ele>701</ele>
        <time>2018-08-06T05:03:21Z</time>
      </trkpt>
      <trkpt lat="45.90671" lon="6.1672">
        <ele>702</ele>
        <time>2018-08-06T05:03:27Z</time>
      </trkpt>
      <trkpt lat="45.90676" lon="6.16722">
        <ele>703</ele>
        <time>2018-08-06T05:03:31Z</time>
      </trkpt>
      <trkpt lat="45.90691" lon="6.16726">
        <ele>705</ele>
        <time>2018-08-06T05:03:48Z</time>
      </trkpt>
      <trkpt lat="45.90696" lon="6.16727">
        <ele>706</ele>
        <time>2018-08-06T05:03:53Z</time>
      </trkpt>
      <trkpt lat="45.90697" lon="6.16732">
        <ele>707</ele>
        <time>2018-08-06T05:04:01Z</time>
      </trkpt>
      <trkpt lat="45.90693" lon="6.16734">
        <ele>708</ele>
        <time>2018-08-06T05:04:08Z</time>
      </trkpt>
      <trkpt lat="45.9069" lon="6.16737">
        <ele>709</ele>
        <time>2018-08-06T05:04:15Z</time>
      </trkpt>
      <trkpt lat="45.90686" lon="6.16739">
        <ele>709</ele>
        <time>2018-08-06T05:04:20Z</time>
      </trkpt>
      <trkpt lat="45.90683" lon="6.16739">
        <ele>710</ele>
        <time>2018-08-06T05:04:24Z</time>
      </trkpt>
      <trkpt lat="45.90676" lon="6.16743">
        <ele>711</ele>
        <time>2018-08-06T05:04:30Z</time>
      </trkpt>
      <trkpt lat="45.9067" lon="6.16748">
        <ele>713</ele>
        <time>2018-08-06T05:04:36Z</time>
      </trkpt>
      <trkpt lat="45.90668" lon="6.16752">
        <ele>713</ele>
        <time>2018-08-06T05:04:39Z</time>
      </trkpt>
      <trkpt lat="45.90668" lon="6.16757">
        <ele>714</ele>
        <time>2018-08-06T05:04:42Z</time>
      </trkpt>
      <trkpt lat="45.90666" lon="6.1676">
        <ele>714</ele>
        <time>2018-08-06T05:04:45Z</time>
      </trkpt>
      <trkpt lat="45.90664" lon="6.16764">
        <ele>715</ele>
        <time>2018-08-06T05:04:48Z</time>
      </trkpt>
      <trkpt lat="45.90662" lon="6.16772">
        <ele>716</ele>
        <time>2018-08-06T05:04:52Z</time>
      </trkpt>
      <trkpt lat="45.90659" lon="6.16781">
        <ele>718</ele>
        <time>2018-08-06T05:04:59Z</time>
      </trkpt>
      <trkpt lat="45.90655" lon="6.16784">
        <ele>719</ele>
        <time>2018-08-06T05:05:04Z</time>
      </trkpt>
      <trkpt lat="45.90654" lon="6.16788">
        <ele>720</ele>
        <time>2018-08-06T05:05:07Z</time>
      </trkpt>
      <trkpt lat="45.90646" lon="6.16795">
        <ele>720</ele>
        <time>2018-08-06T05:05:12Z</time>
      </trkpt>
      <trkpt lat="45.90648" lon="6.16796">
        <ele>723</ele>
        <time>2018-08-06T05:05:31Z</time>
      </trkpt>
      <trkpt lat="45.9065" lon="6.16792">
        <ele>723</ele>
        <time>2018-08-06T05:05:33Z</time>
      </trkpt>
      <trkpt lat="45.90657" lon="6.16787">
        <ele>726</ele>
        <time>2018-08-06T05:05:38Z</time>
      </trkpt>
      <trkpt lat="45.90661" lon="6.16783">
        <ele>728</ele>
        <time>2018-08-06T05:05:46Z</time>
      </trkpt>
      <trkpt lat="45.90672" lon="6.16781">
        <ele>729</ele>
        <time>2018-08-06T05:05:55Z</time>
      </trkpt>
      <trkpt lat="45.90671" lon="6.16785">
        <ele>731</ele>
        <time>2018-08-06T05:06:09Z</time>
      </trkpt>
      <trkpt lat="45.90669" lon="6.16789">
        <ele>733</ele>
        <time>2018-08-06T05:06:14Z</time>
      </trkpt>
      <trkpt lat="45.90662" lon="6.168">
        <ele>735</ele>
        <time>2018-08-06T05:06:23Z</time>
      </trkpt>
      <trkpt lat="45.9066" lon="6.16804">
        <ele>735</ele>
        <time>2018-08-06T05:06:26Z</time>
      </trkpt>
      <trkpt lat="45.9066" lon="6.16808">
        <ele>736</ele>
        <time>2018-08-06T05:06:28Z</time>
      </trkpt>
      <trkpt lat="45.9066" lon="6.16813">
        <ele>736</ele>
        <time>2018-08-06T05:06:32Z</time>
      </trkpt>
      <trkpt lat="45.90664" lon="6.16812">
        <ele>737</ele>
        <time>2018-08-06T05:06:48Z</time>
      </trkpt>
      <trkpt lat="45.90668" lon="6.16812">
        <ele>739</ele>
        <time>2018-08-06T05:06:53Z</time>
      </trkpt>
      <trkpt lat="45.90673" lon="6.16812">
        <ele>740</ele>
        <time>2018-08-06T05:06:57Z</time>
      </trkpt>
      <trkpt lat="45.90677" lon="6.16809">
        <ele>740</ele>
        <time>2018-08-06T05:07:01Z</time>
      </trkpt>
      <trkpt lat="45.90689" lon="6.16805">
        <ele>741</ele>
        <time>2018-08-06T05:07:11Z</time>
      </trkpt>
      <trkpt lat="45.9069" lon="6.16805">
        <ele>743</ele>
        <time>2018-08-06T05:07:33Z</time>
      </trkpt>
      <trkpt lat="45.90688" lon="6.16809">
        <ele>743</ele>
        <time>2018-08-06T05:07:37Z</time>
      </trkpt>
      <trkpt lat="45.90686" lon="6.16815">
        <ele>745</ele>
        <time>2018-08-06T05:07:43Z</time>
      </trkpt>
      <trkpt lat="45.90685" lon="6.16821">
        <ele>745</ele>
        <time>2018-08-06T05:07:47Z</time>
      </trkpt>
      <trkpt lat="45.90684" lon="6.16827">
        <ele>746</ele>
        <time>2018-08-06T05:07:50Z</time>
      </trkpt>
      <trkpt lat="45.90682" lon="6.16831">
        <ele>746</ele>
        <time>2018-08-06T05:07:53Z</time>
      </trkpt>
      <trkpt lat="45.90678" lon="6.16841">
        <ele>747</ele>
        <time>2018-08-06T05:08:00Z</time>
      </trkpt>
      <trkpt lat="45.9068" lon="6.16844">
        <ele>749</ele>
        <time>2018-08-06T05:08:28Z</time>
      </trkpt>
      <trkpt lat="45.90684" lon="6.16844">
        <ele>750</ele>
        <time>2018-08-06T05:08:35Z</time>
      </trkpt>
      <trkpt lat="45.90689" lon="6.16843">
        <ele>753</ele>
        <time>2018-08-06T05:08:44Z</time>
      </trkpt>
      <trkpt lat="45.90693" lon="6.16841">
        <ele>754</ele>
        <time>2018-08-06T05:08:50Z</time>
      </trkpt>
      <trkpt lat="45.90697" lon="6.16838">
        <ele>755</ele>
        <time>2018-08-06T05:08:55Z</time>
      </trkpt>
      <trkpt lat="45.90701" lon="6.16839">
        <ele>756</ele>
        <time>2018-08-06T05:08:59Z</time>
      </trkpt>
      <trkpt lat="45.90705" lon="6.16836">
        <ele>756</ele>
        <time>2018-08-06T05:09:02Z</time>
      </trkpt>
      <trkpt lat="45.90709" lon="6.16835">
        <ele>757</ele>
        <time>2018-08-06T05:09:06Z</time>
      </trkpt>
      <trkpt lat="45.90714" lon="6.16835">
        <ele>758</ele>
        <time>2018-08-06T05:09:10Z</time>
      </trkpt>
      <trkpt lat="45.90717" lon="6.16831">
        <ele>759</ele>
        <time>2018-08-06T05:09:14Z</time>
      </trkpt>
      <trkpt lat="45.90725" lon="6.1683">
        <ele>760</ele>
        <time>2018-08-06T05:09:20Z</time>
      </trkpt>
      <trkpt lat="45.90729" lon="6.16829">
        <ele>760</ele>
        <time>2018-08-06T05:09:23Z</time>
      </trkpt>
      <trkpt lat="45.9073" lon="6.16833">
        <ele>762</ele>
        <time>2018-08-06T05:09:34Z</time>
      </trkpt>
      <trkpt lat="45.90729" lon="6.16837">
        <ele>763</ele>
        <time>2018-08-06T05:09:40Z</time>
      </trkpt>
      <trkpt lat="45.90727" lon="6.1684">
        <ele>765</ele>
        <time>2018-08-06T05:09:44Z</time>
      </trkpt>
      <trkpt lat="45.90726" lon="6.16846">
        <ele>765</ele>
        <time>2018-08-06T05:09:49Z</time>
      </trkpt>
      <trkpt lat="45.9072" lon="6.16852">
        <ele>767</ele>
        <time>2018-08-06T05:09:56Z</time>
      </trkpt>
      <trkpt lat="45.90719" lon="6.16856">
        <ele>768</ele>
        <time>2018-08-06T05:10:00Z</time>
      </trkpt>
      <trkpt lat="45.90717" lon="6.16859">
        <ele>769</ele>
        <time>2018-08-06T05:10:04Z</time>
      </trkpt>
      <trkpt lat="45.90706" lon="6.16878">
        <ele>773</ele>
        <time>2018-08-06T05:10:23Z</time>
      </trkpt>
      <trkpt lat="45.90704" lon="6.16881">
        <ele>774</ele>
        <time>2018-08-06T05:10:26Z</time>
      </trkpt>
      <trkpt lat="45.90702" lon="6.16883">
        <ele>774</ele>
        <time>2018-08-06T05:10:29Z</time>
      </trkpt>
      <trkpt lat="45.907" lon="6.16887">
        <ele>775</ele>
        <time>2018-08-06T05:10:32Z</time>
      </trkpt>
      <trkpt lat="45.90698" lon="6.16892">
        <ele>776</ele>
        <time>2018-08-06T05:10:35Z</time>
      </trkpt>
      <trkpt lat="45.90696" lon="6.16895">
        <ele>777</ele>
        <time>2018-08-06T05:10:39Z</time>
      </trkpt>
      <trkpt lat="45.90695" lon="6.16901">
        <ele>777</ele>
        <time>2018-08-06T05:10:44Z</time>
      </trkpt>
      <trkpt lat="45.90694" lon="6.16906">
        <ele>779</ele>
        <time>2018-08-06T05:10:52Z</time>
      </trkpt>
      <trkpt lat="45.90694" lon="6.16912">
        <ele>780</ele>
        <time>2018-08-06T05:10:57Z</time>
      </trkpt>
      <trkpt lat="45.90693" lon="6.16918">
        <ele>781</ele>
        <time>2018-08-06T05:11:00Z</time>
      </trkpt>
      <trkpt lat="45.9069" lon="6.16924">
        <ele>782</ele>
        <time>2018-08-06T05:11:04Z</time>
      </trkpt>
      <trkpt lat="45.90686" lon="6.16929">
        <ele>782</ele>
        <time>2018-08-06T05:11:07Z</time>
      </trkpt>
      <trkpt lat="45.90682" lon="6.16932">
        <ele>783</ele>
        <time>2018-08-06T05:11:09Z</time>
      </trkpt>
      <trkpt lat="45.90678" lon="6.16937">
        <ele>783</ele>
        <time>2018-08-06T05:11:12Z</time>
      </trkpt>
      <trkpt lat="45.90676" lon="6.16941">
        <ele>784</ele>
        <time>2018-08-06T05:11:17Z</time>
      </trkpt>
      <trkpt lat="45.90672" lon="6.16945">
        <ele>784</ele>
        <time>2018-08-06T05:11:20Z</time>
      </trkpt>
      <trkpt lat="45.90668" lon="6.16945">
        <ele>786</ele>
        <time>2018-08-06T05:11:25Z</time>
      </trkpt>
      <trkpt lat="45.9066" lon="6.16948">
        <ele>787</ele>
        <time>2018-08-06T05:11:28Z</time>
      </trkpt>
      <trkpt lat="45.90647" lon="6.16951">
        <ele>789</ele>
        <time>2018-08-06T05:11:38Z</time>
      </trkpt>
      <trkpt lat="45.9064" lon="6.16952">
        <ele>790</ele>
        <time>2018-08-06T05:11:45Z</time>
      </trkpt>
      <trkpt lat="45.90636" lon="6.16953">
        <ele>791</ele>
        <time>2018-08-06T05:11:49Z</time>
      </trkpt>
      <trkpt lat="45.90631" lon="6.16953">
        <ele>792</ele>
        <time>2018-08-06T05:11:53Z</time>
      </trkpt>
      <trkpt lat="45.90628" lon="6.16957">
        <ele>792</ele>
        <time>2018-08-06T05:11:58Z</time>
      </trkpt>
      <trkpt lat="45.90628" lon="6.16963">
        <ele>794</ele>
        <time>2018-08-06T05:12:08Z</time>
      </trkpt>
      <trkpt lat="45.90631" lon="6.16966">
        <ele>795</ele>
        <time>2018-08-06T05:12:17Z</time>
      </trkpt>
      <trkpt lat="45.90645" lon="6.16977">
        <ele>799</ele>
        <time>2018-08-06T05:12:37Z</time>
      </trkpt>
      <trkpt lat="45.90649" lon="6.16979">
        <ele>801</ele>
        <time>2018-08-06T05:12:43Z</time>
      </trkpt>
      <trkpt lat="45.90653" lon="6.16981">
        <ele>802</ele>
        <time>2018-08-06T05:12:47Z</time>
      </trkpt>
      <trkpt lat="45.90658" lon="6.16982">
        <ele>803</ele>
        <time>2018-08-06T05:12:52Z</time>
      </trkpt>
      <trkpt lat="45.90662" lon="6.16982">
        <ele>804</ele>
        <time>2018-08-06T05:12:58Z</time>
      </trkpt>
      <trkpt lat="45.90668" lon="6.16989">
        <ele>806</ele>
        <time>2018-08-06T05:13:12Z</time>
      </trkpt>
      <trkpt lat="45.90672" lon="6.16989">
        <ele>808</ele>
        <time>2018-08-06T05:13:23Z</time>
      </trkpt>
      <trkpt lat="45.90681" lon="6.16986">
        <ele>811</ele>
        <time>2018-08-06T05:13:32Z</time>
      </trkpt>
      <trkpt lat="45.90685" lon="6.16986">
        <ele>812</ele>
        <time>2018-08-06T05:13:36Z</time>
      </trkpt>
      <trkpt lat="45.90689" lon="6.16985">
        <ele>813</ele>
        <time>2018-08-06T05:13:49Z</time>
      </trkpt>
      <trkpt lat="45.90691" lon="6.1699">
        <ele>815</ele>
        <time>2018-08-06T05:13:54Z</time>
      </trkpt>
      <trkpt lat="45.90693" lon="6.16996">
        <ele>817</ele>
        <time>2018-08-06T05:13:59Z</time>
      </trkpt>
      <trkpt lat="45.9069" lon="6.17">
        <ele>817</ele>
        <time>2018-08-06T05:14:03Z</time>
      </trkpt>
      <trkpt lat="45.90693" lon="6.17003">
        <ele>820</ele>
        <time>2018-08-06T05:14:25Z</time>
      </trkpt>
      <trkpt lat="45.90691" lon="6.17009">
        <ele>822</ele>
        <time>2018-08-06T05:14:31Z</time>
      </trkpt>
      <trkpt lat="45.90688" lon="6.17014">
        <ele>823</ele>
        <time>2018-08-06T05:14:35Z</time>
      </trkpt>
      <trkpt lat="45.90688" lon="6.1702">
        <ele>824</ele>
        <time>2018-08-06T05:14:43Z</time>
      </trkpt>
      <trkpt lat="45.90688" lon="6.17027">
        <ele>826</ele>
        <time>2018-08-06T05:14:48Z</time>
      </trkpt>
      <trkpt lat="45.90692" lon="6.17029">
        <ele>827</ele>
        <time>2018-08-06T05:15:05Z</time>
      </trkpt>
      <trkpt lat="45.90696" lon="6.17028">
        <ele>829</ele>
        <time>2018-08-06T05:15:09Z</time>
      </trkpt>
      <trkpt lat="45.907" lon="6.17028">
        <ele>830</ele>
        <time>2018-08-06T05:15:13Z</time>
      </trkpt>
      <trkpt lat="45.90707" lon="6.17032">
        <ele>831</ele>
        <time>2018-08-06T05:15:22Z</time>
      </trkpt>
      <trkpt lat="45.90715" lon="6.17036">
        <ele>833</ele>
        <time>2018-08-06T05:15:32Z</time>
      </trkpt>
      <trkpt lat="45.90713" lon="6.17042">
        <ele>834</ele>
        <time>2018-08-06T05:15:55Z</time>
      </trkpt>
      <trkpt lat="45.90712" lon="6.17047">
        <ele>836</ele>
        <time>2018-08-06T05:15:58Z</time>
      </trkpt>
      <trkpt lat="45.90708" lon="6.17053">
        <ele>837</ele>
        <time>2018-08-06T05:16:01Z</time>
      </trkpt>
      <trkpt lat="45.90705" lon="6.17059">
        <ele>837</ele>
        <time>2018-08-06T05:16:04Z</time>
      </trkpt>
      <trkpt lat="45.90706" lon="6.1706">
        <ele>839</ele>
        <time>2018-08-06T05:16:28Z</time>
      </trkpt>
      <trkpt lat="45.9071" lon="6.17063">
        <ele>840</ele>
        <time>2018-08-06T05:16:33Z</time>
      </trkpt>
      <trkpt lat="45.90717" lon="6.17069">
        <ele>841</ele>
        <time>2018-08-06T05:16:41Z</time>
      </trkpt>
      <trkpt lat="45.90719" lon="6.17074">
        <ele>842</ele>
        <time>2018-08-06T05:16:57Z</time>
      </trkpt>
      <trkpt lat="45.90717" lon="6.17079">
        <ele>843</ele>
        <time>2018-08-06T05:17:00Z</time>
      </trkpt>
      <trkpt lat="45.90714" lon="6.17085">
        <ele>844</ele>
        <time>2018-08-06T05:17:04Z</time>
      </trkpt>
      <trkpt lat="45.90715" lon="6.17085">
        <ele>846</ele>
        <time>2018-08-06T05:17:26Z</time>
      </trkpt>
      <trkpt lat="45.90719" lon="6.17087">
        <ele>847</ele>
        <time>2018-08-06T05:17:30Z</time>
      </trkpt>
      <trkpt lat="45.90722" lon="6.17089">
        <ele>848</ele>
        <time>2018-08-06T05:17:33Z</time>
      </trkpt>
      <trkpt lat="45.9073" lon="6.17095">
        <ele>849</ele>
        <time>2018-08-06T05:17:42Z</time>
      </trkpt>
      <trkpt lat="45.90733" lon="6.171">
        <ele>849</ele>
        <time>2018-08-06T05:17:46Z</time>
      </trkpt>
      <trkpt lat="45.90735" lon="6.17105">
        <ele>849</ele>
        <time>2018-08-06T05:17:49Z</time>
      </trkpt>
      <trkpt lat="45.90736" lon="6.1711">
        <ele>850</ele>
        <time>2018-08-06T05:17:55Z</time>
      </trkpt>
      <trkpt lat="45.90737" lon="6.17115">
        <ele>851</ele>
        <time>2018-08-06T05:18:08Z</time>
      </trkpt>
      <trkpt lat="45.90758" lon="6.17136">
        <ele>855</ele>
        <time>2018-08-06T05:18:29Z</time>
      </trkpt>
      <trkpt lat="45.90765" lon="6.17143">
        <ele>857</ele>
        <time>2018-08-06T05:18:38Z</time>
      </trkpt>
      <trkpt lat="45.90776" lon="6.17154">
        <ele>859</ele>
        <time>2018-08-06T05:18:45Z</time>
      </trkpt>
      <trkpt lat="45.90791" lon="6.1717">
        <ele>864</ele>
        <time>2018-08-06T05:19:05Z</time>
      </trkpt>
      <trkpt lat="45.90794" lon="6.17175">
        <ele>865</ele>
        <time>2018-08-06T05:19:10Z</time>
      </trkpt>
      <trkpt lat="45.90796" lon="6.17181">
        <ele>866</ele>
        <time>2018-08-06T05:19:15Z</time>
      </trkpt>
      <trkpt lat="45.908" lon="6.17191">
        <ele>868</ele>
        <time>2018-08-06T05:19:22Z</time>
      </trkpt>
      <trkpt lat="45.90805" lon="6.17195">
        <ele>869</ele>
        <time>2018-08-06T05:19:25Z</time>
      </trkpt>
      <trkpt lat="45.90809" lon="6.17198">
        <ele>870</ele>
        <time>2018-08-06T05:19:31Z</time>
      </trkpt>
      <trkpt lat="45.90813" lon="6.17204">
        <ele>871</ele>
        <time>2018-08-06T05:19:34Z</time>
      </trkpt>
      <trkpt lat="45.90815" lon="6.17208">
        <ele>872</ele>
        <time>2018-08-06T05:19:37Z</time>
      </trkpt>
      <trkpt lat="45.90815" lon="6.17219">
        <ele>875</ele>
        <time>2018-08-06T05:19:46Z</time>
      </trkpt>
      <trkpt lat="45.90815" lon="6.17225">
        <ele>876</ele>
        <time>2018-08-06T05:19:51Z</time>
      </trkpt>
      <trkpt lat="45.90815" lon="6.17231">
        <ele>878</ele>
        <time>2018-08-06T05:19:56Z</time>
      </trkpt>
      <trkpt lat="45.90816" lon="6.17242">
        <ele>880</ele>
        <time>2018-08-06T05:20:06Z</time>
      </trkpt>
      <trkpt lat="45.90819" lon="6.17248">
        <ele>882</ele>
        <time>2018-08-06T05:20:48Z</time>
      </trkpt>
      <trkpt lat="45.90818" lon="6.17253">
        <ele>884</ele>
        <time>2018-08-06T05:20:51Z</time>
      </trkpt>
      <trkpt lat="45.90815" lon="6.17257">
        <ele>885</ele>
        <time>2018-08-06T05:20:56Z</time>
      </trkpt>
      <trkpt lat="45.90812" lon="6.17255">
        <ele>887</ele>
        <time>2018-08-06T05:21:02Z</time>
      </trkpt>
      <trkpt lat="45.90806" lon="6.17252">
        <ele>891</ele>
        <time>2018-08-06T05:21:08Z</time>
      </trkpt>
      <trkpt lat="45.90802" lon="6.17247">
        <ele>892</ele>
        <time>2018-08-06T05:21:15Z</time>
      </trkpt>
      <trkpt lat="45.90797" lon="6.17243">
        <ele>895</ele>
        <time>2018-08-06T05:21:18Z</time>
      </trkpt>
      <trkpt lat="45.90794" lon="6.17242">
        <ele>897</ele>
        <time>2018-08-06T05:21:25Z</time>
      </trkpt>
      <trkpt lat="45.90789" lon="6.17235">
        <ele>898</ele>
        <time>2018-08-06T05:21:29Z</time>
      </trkpt>
      <trkpt lat="45.90785" lon="6.17229">
        <ele>900</ele>
        <time>2018-08-06T05:21:35Z</time>
      </trkpt>
      <trkpt lat="45.9077" lon="6.17218">
        <ele>902</ele>
        <time>2018-08-06T05:21:47Z</time>
      </trkpt>
      <trkpt lat="45.90767" lon="6.17223">
        <ele>904</ele>
        <time>2018-08-06T05:21:58Z</time>
      </trkpt>
      <trkpt lat="45.9077" lon="6.17227">
        <ele>904</ele>
        <time>2018-08-06T05:22:02Z</time>
      </trkpt>
      <trkpt lat="45.90772" lon="6.17232">
        <ele>905</ele>
        <time>2018-08-06T05:22:10Z</time>
      </trkpt>
      <trkpt lat="45.9077" lon="6.17238">
        <ele>906</ele>
        <time>2018-08-06T05:22:13Z</time>
      </trkpt>
      <trkpt lat="45.90771" lon="6.17244">
        <ele>907</ele>
        <time>2018-08-06T05:22:19Z</time>
      </trkpt>
      <trkpt lat="45.90774" lon="6.17247">
        <ele>907</ele>
        <time>2018-08-06T05:22:22Z</time>
      </trkpt>
      <trkpt lat="45.90774" lon="6.17253">
        <ele>908</ele>
        <time>2018-08-06T05:22:28Z</time>
      </trkpt>
      <trkpt lat="45.90777" lon="6.1726">
        <ele>909</ele>
        <time>2018-08-06T05:22:34Z</time>
      </trkpt>
      <trkpt lat="45.90776" lon="6.17266">
        <ele>909</ele>
        <time>2018-08-06T05:22:37Z</time>
      </trkpt>
      <trkpt lat="45.90778" lon="6.17271">
        <ele>909</ele>
        <time>2018-08-06T05:22:41Z</time>
      </trkpt>
      <trkpt lat="45.90779" lon="6.17278">
        <ele>910</ele>
        <time>2018-08-06T05:22:45Z</time>
      </trkpt>
      <trkpt lat="45.90778" lon="6.17285">
        <ele>910</ele>
        <time>2018-08-06T05:22:49Z</time>
      </trkpt>
      <trkpt lat="45.9078" lon="6.1729">
        <ele>910</ele>
        <time>2018-08-06T05:22:52Z</time>
      </trkpt>
      <trkpt lat="45.90784" lon="6.17303">
        <ele>911</ele>
        <time>2018-08-06T05:22:58Z</time>
      </trkpt>
      <trkpt lat="45.9079" lon="6.17315">
        <ele>912</ele>
        <time>2018-08-06T05:23:07Z</time>
      </trkpt>
      <trkpt lat="45.90792" lon="6.1732">
        <ele>912</ele>
        <time>2018-08-06T05:23:10Z</time>
      </trkpt>
      <trkpt lat="45.90794" lon="6.17326">
        <ele>913</ele>
        <time>2018-08-06T05:23:13Z</time>
      </trkpt>
      <trkpt lat="45.90796" lon="6.17331">
        <ele>913</ele>
        <time>2018-08-06T05:23:20Z</time>
      </trkpt>
      <trkpt lat="45.90796" lon="6.17336">
        <ele>914</ele>
        <time>2018-08-06T05:23:27Z</time>
      </trkpt>
      <trkpt lat="45.90794" lon="6.1734">
        <ele>914</ele>
        <time>2018-08-06T05:23:30Z</time>
      </trkpt>
      <trkpt lat="45.9079" lon="6.17344">
        <ele>915</ele>
        <time>2018-08-06T05:23:36Z</time>
      </trkpt>
      <trkpt lat="45.90786" lon="6.17348">
        <ele>916</ele>
        <time>2018-08-06T05:23:42Z</time>
      </trkpt>
      <trkpt lat="45.90786" lon="6.17354">
        <ele>916</ele>
        <time>2018-08-06T05:23:47Z</time>
      </trkpt>
      <trkpt lat="45.90789" lon="6.17359">
        <ele>917</ele>
        <time>2018-08-06T05:23:51Z</time>
      </trkpt>
      <trkpt lat="45.90792" lon="6.17365">
        <ele>918</ele>
        <time>2018-08-06T05:23:54Z</time>
      </trkpt>
      <trkpt lat="45.90791" lon="6.17371">
        <ele>918</ele>
        <time>2018-08-06T05:24:00Z</time>
      </trkpt>
      <trkpt lat="45.90792" lon="6.17376">
        <ele>920</ele>
        <time>2018-08-06T05:24:07Z</time>
      </trkpt>
      <trkpt lat="45.90791" lon="6.17382">
        <ele>920</ele>
        <time>2018-08-06T05:24:14Z</time>
      </trkpt>
      <trkpt lat="45.90787" lon="6.17382">
        <ele>922</ele>
        <time>2018-08-06T05:24:19Z</time>
      </trkpt>
      <trkpt lat="45.90783" lon="6.17384">
        <ele>923</ele>
        <time>2018-08-06T05:24:23Z</time>
      </trkpt>
      <trkpt lat="45.90781" lon="6.17388">
        <ele>924</ele>
        <time>2018-08-06T05:24:27Z</time>
      </trkpt>
      <trkpt lat="45.90776" lon="6.17388">
        <ele>925</ele>
        <time>2018-08-06T05:24:35Z</time>
      </trkpt>
      <trkpt lat="45.90772" lon="6.17388">
        <ele>926</ele>
        <time>2018-08-06T05:24:39Z</time>
      </trkpt>
      <trkpt lat="45.90768" lon="6.17388">
        <ele>926</ele>
        <time>2018-08-06T05:24:42Z</time>
      </trkpt>
      <trkpt lat="45.90764" lon="6.17388">
        <ele>927</ele>
        <time>2018-08-06T05:24:47Z</time>
      </trkpt>
      <trkpt lat="45.9076" lon="6.17388">
        <ele>928</ele>
        <time>2018-08-06T05:24:53Z</time>
      </trkpt>
      <trkpt lat="45.90756" lon="6.17389">
        <ele>929</ele>
        <time>2018-08-06T05:24:58Z</time>
      </trkpt>
      <trkpt lat="45.90748" lon="6.17387">
        <ele>932</ele>
        <time>2018-08-06T05:25:13Z</time>
      </trkpt>
      <trkpt lat="45.90745" lon="6.17383">
        <ele>933</ele>
        <time>2018-08-06T05:25:15Z</time>
      </trkpt>
      <trkpt lat="45.90741" lon="6.1738">
        <ele>934</ele>
        <time>2018-08-06T05:25:19Z</time>
      </trkpt>
      <trkpt lat="45.90738" lon="6.17382">
        <ele>934</ele>
        <time>2018-08-06T05:25:22Z</time>
      </trkpt>
      <trkpt lat="45.90734" lon="6.17381">
        <ele>936</ele>
        <time>2018-08-06T05:25:38Z</time>
      </trkpt>
      <trkpt lat="45.9073" lon="6.17377">
        <ele>937</ele>
        <time>2018-08-06T05:25:45Z</time>
      </trkpt>
      <trkpt lat="45.90726" lon="6.17369">
        <ele>939</ele>
        <time>2018-08-06T05:25:51Z</time>
      </trkpt>
      <trkpt lat="45.90724" lon="6.17361">
        <ele>940</ele>
        <time>2018-08-06T05:25:55Z</time>
      </trkpt>
      <trkpt lat="45.90718" lon="6.17356">
        <ele>941</ele>
        <time>2018-08-06T05:26:03Z</time>
      </trkpt>
      <trkpt lat="45.90709" lon="6.17345">
        <ele>943</ele>
        <time>2018-08-06T05:26:15Z</time>
      </trkpt>
      <trkpt lat="45.90705" lon="6.17339">
        <ele>943</ele>
        <time>2018-08-06T05:26:19Z</time>
      </trkpt>
      <trkpt lat="45.90702" lon="6.17332">
        <ele>944</ele>
        <time>2018-08-06T05:26:23Z</time>
      </trkpt>
      <trkpt lat="45.90693" lon="6.17321">
        <ele>946</ele>
        <time>2018-08-06T05:26:35Z</time>
      </trkpt>
      <trkpt lat="45.9069" lon="6.17314">
        <ele>947</ele>
        <time>2018-08-06T05:26:39Z</time>
      </trkpt>
      <trkpt lat="45.90688" lon="6.17307">
        <ele>948</ele>
        <time>2018-08-06T05:26:46Z</time>
      </trkpt>
      <trkpt lat="45.90682" lon="6.17303">
        <ele>949</ele>
        <time>2018-08-06T05:26:51Z</time>
      </trkpt>
      <trkpt lat="45.90677" lon="6.17299">
        <ele>950</ele>
        <time>2018-08-06T05:26:56Z</time>
      </trkpt>
      <trkpt lat="45.90675" lon="6.17304">
        <ele>951</ele>
        <time>2018-08-06T05:27:03Z</time>
      </trkpt>
      <trkpt lat="45.90672" lon="6.17307">
        <ele>953</ele>
        <time>2018-08-06T05:27:09Z</time>
      </trkpt>
      <trkpt lat="45.90667" lon="6.17308">
        <ele>953</ele>
        <time>2018-08-06T05:27:13Z</time>
      </trkpt>
      <trkpt lat="45.90663" lon="6.17308">
        <ele>955</ele>
        <time>2018-08-06T05:27:23Z</time>
      </trkpt>
      <trkpt lat="45.90659" lon="6.17307">
        <ele>955</ele>
        <time>2018-08-06T05:27:31Z</time>
      </trkpt>
      <trkpt lat="45.90655" lon="6.17305">
        <ele>957</ele>
        <time>2018-08-06T05:27:35Z</time>
      </trkpt>
      <trkpt lat="45.90649" lon="6.17301">
        <ele>957</ele>
        <time>2018-08-06T05:27:38Z</time>
      </trkpt>
      <trkpt lat="45.90643" lon="6.173">
        <ele>958</ele>
        <time>2018-08-06T05:27:41Z</time>
      </trkpt>
      <trkpt lat="45.90638" lon="6.17296">
        <ele>959</ele>
        <time>2018-08-06T05:27:49Z</time>
      </trkpt>
      <trkpt lat="45.90632" lon="6.17293">
        <ele>960</ele>
        <time>2018-08-06T05:27:56Z</time>
      </trkpt>
      <trkpt lat="45.90618" lon="6.17278">
        <ele>962</ele>
        <time>2018-08-06T05:28:05Z</time>
      </trkpt>
      <trkpt lat="45.9059" lon="6.17258">
        <ele>964</ele>
        <time>2018-08-06T05:28:48Z</time>
      </trkpt>
      <trkpt lat="45.90588" lon="6.17252">
        <ele>965</ele>
        <time>2018-08-06T05:29:19Z</time>
      </trkpt>
      <trkpt lat="45.90584" lon="6.17243">
        <ele>967</ele>
        <time>2018-08-06T05:30:08Z</time>
      </trkpt>
      <trkpt lat="45.90582" lon="6.17238">
        <ele>968</ele>
        <time>2018-08-06T05:30:14Z</time>
      </trkpt>
      <trkpt lat="45.90579" lon="6.17242">
        <ele>970</ele>
        <time>2018-08-06T05:31:06Z</time>
      </trkpt>
      <trkpt lat="45.90575" lon="6.17242">
        <ele>974</ele>
        <time>2018-08-06T05:31:12Z</time>
      </trkpt>
      <trkpt lat="45.90572" lon="6.17241">
        <ele>976</ele>
        <time>2018-08-06T05:31:19Z</time>
      </trkpt>
      <trkpt lat="45.90568" lon="6.17243">
        <ele>977</ele>
        <time>2018-08-06T05:31:23Z</time>
      </trkpt>
      <trkpt lat="45.90564" lon="6.17245">
        <ele>978</ele>
        <time>2018-08-06T05:31:28Z</time>
      </trkpt>
      <trkpt lat="45.90561" lon="6.17246">
        <ele>979</ele>
        <time>2018-08-06T05:31:32Z</time>
      </trkpt>
      <trkpt lat="45.90557" lon="6.17248">
        <ele>980</ele>
        <time>2018-08-06T05:31:40Z</time>
      </trkpt>
      <trkpt lat="45.90557" lon="6.17252">
        <ele>981</ele>
        <time>2018-08-06T05:31:48Z</time>
      </trkpt>
      <trkpt lat="45.90557" lon="6.17255">
        <ele>983</ele>
        <time>2018-08-06T05:31:53Z</time>
      </trkpt>
      <trkpt lat="45.90556" lon="6.17258">
        <ele>984</ele>
        <time>2018-08-06T05:31:57Z</time>
      </trkpt>
      <trkpt lat="45.90557" lon="6.17262">
        <ele>985</ele>
        <time>2018-08-06T05:32:03Z</time>
      </trkpt>
      <trkpt lat="45.90556" lon="6.17263">
        <ele>986</ele>
        <time>2018-08-06T05:32:06Z</time>
      </trkpt>
      <trkpt lat="45.90552" lon="6.17265">
        <ele>987</ele>
        <time>2018-08-06T05:32:12Z</time>
      </trkpt>
      <trkpt lat="45.90546" lon="6.17266">
        <ele>989</ele>
        <time>2018-08-06T05:32:18Z</time>
      </trkpt>
      <trkpt lat="45.90543" lon="6.17267">
        <ele>989</ele>
        <time>2018-08-06T05:32:21Z</time>
      </trkpt>
      <trkpt lat="45.90542" lon="6.17271">
        <ele>992</ele>
        <time>2018-08-06T05:32:36Z</time>
      </trkpt>
      <trkpt lat="45.90545" lon="6.17272">
        <ele>993</ele>
        <time>2018-08-06T05:32:42Z</time>
      </trkpt>
      <trkpt lat="45.90548" lon="6.17275">
        <ele>995</ele>
        <time>2018-08-06T05:32:47Z</time>
      </trkpt>
      <trkpt lat="45.90551" lon="6.17281">
        <ele>997</ele>
        <time>2018-08-06T05:32:53Z</time>
      </trkpt>
      <trkpt lat="45.90551" lon="6.17285">
        <ele>998</ele>
        <time>2018-08-06T05:33:02Z</time>
      </trkpt>
      <trkpt lat="45.90548" lon="6.17285">
        <ele>998</ele>
        <time>2018-08-06T05:33:06Z</time>
      </trkpt>
      <trkpt lat="45.90543" lon="6.17285">
        <ele>1000</ele>
        <time>2018-08-06T05:33:09Z</time>
      </trkpt>
      <trkpt lat="45.90541" lon="6.17286">
        <ele>1000</ele>
        <time>2018-08-06T05:33:11Z</time>
      </trkpt>
      <trkpt lat="45.90537" lon="6.17289">
        <ele>1001</ele>
        <time>2018-08-06T05:33:16Z</time>
      </trkpt>
      <trkpt lat="45.90538" lon="6.17292">
        <ele>1004</ele>
        <time>2018-08-06T05:33:27Z</time>
      </trkpt>
      <trkpt lat="45.90541" lon="6.17293">
        <ele>1004</ele>
        <time>2018-08-06T05:33:29Z</time>
      </trkpt>
      <trkpt lat="45.90545" lon="6.17293">
        <ele>1005</ele>
        <time>2018-08-06T05:33:32Z</time>
      </trkpt>
      <trkpt lat="45.90547" lon="6.17296">
        <ele>1006</ele>
        <time>2018-08-06T05:33:36Z</time>
      </trkpt>
      <trkpt lat="45.90549" lon="6.17301">
        <ele>1007</ele>
        <time>2018-08-06T05:33:42Z</time>
      </trkpt>
      <trkpt lat="45.9055" lon="6.17306">
        <ele>1009</ele>
        <time>2018-08-06T05:33:47Z</time>
      </trkpt>
      <trkpt lat="45.90552" lon="6.17309">
        <ele>1010</ele>
        <time>2018-08-06T05:33:53Z</time>
      </trkpt>
      <trkpt lat="45.90554" lon="6.17313">
        <ele>1012</ele>
        <time>2018-08-06T05:33:56Z</time>
      </trkpt>
      <trkpt lat="45.90556" lon="6.17316">
        <ele>1013</ele>
        <time>2018-08-06T05:34:00Z</time>
      </trkpt>
      <trkpt lat="45.90556" lon="6.17319">
        <ele>1016</ele>
        <time>2018-08-06T05:34:14Z</time>
      </trkpt>
      <trkpt lat="45.90555" lon="6.17322">
        <ele>1018</ele>
        <time>2018-08-06T05:34:17Z</time>
      </trkpt>
      <trkpt lat="45.90556" lon="6.17327">
        <ele>1021</ele>
        <time>2018-08-06T05:34:24Z</time>
      </trkpt>
      <trkpt lat="45.90557" lon="6.17329">
        <ele>1022</ele>
        <time>2018-08-06T05:34:27Z</time>
      </trkpt>
      <trkpt lat="45.90561" lon="6.17336">
        <ele>1025</ele>
        <time>2018-08-06T05:34:39Z</time>
      </trkpt>
      <trkpt lat="45.90562" lon="6.17341">
        <ele>1027</ele>
        <time>2018-08-06T05:34:46Z</time>
      </trkpt>
      <trkpt lat="45.90565" lon="6.1735">
        <ele>1029</ele>
        <time>2018-08-06T05:34:53Z</time>
      </trkpt>
      <trkpt lat="45.90567" lon="6.17354">
        <ele>1030</ele>
        <time>2018-08-06T05:34:56Z</time>
      </trkpt>
      <trkpt lat="45.90567" lon="6.17359">
        <ele>1030</ele>
        <time>2018-08-06T05:35:00Z</time>
      </trkpt>
      <trkpt lat="45.90568" lon="6.17364">
        <ele>1031</ele>
        <time>2018-08-06T05:35:02Z</time>
      </trkpt>
      <trkpt lat="45.90568" lon="6.17368">
        <ele>1031</ele>
        <time>2018-08-06T05:35:04Z</time>
      </trkpt>
      <trkpt lat="45.9057" lon="6.17378">
        <ele>1033</ele>
        <time>2018-08-06T05:35:10Z</time>
      </trkpt>
      <trkpt lat="45.90571" lon="6.17388">
        <ele>1035</ele>
        <time>2018-08-06T05:35:17Z</time>
      </trkpt>
      <trkpt lat="45.90571" lon="6.17392">
        <ele>1035</ele>
        <time>2018-08-06T05:35:20Z</time>
      </trkpt>
      <trkpt lat="45.90568" lon="6.17401">
        <ele>1037</ele>
        <time>2018-08-06T05:35:26Z</time>
      </trkpt>
      <trkpt lat="45.90566" lon="6.17404">
        <ele>1038</ele>
        <time>2018-08-06T05:35:30Z</time>
      </trkpt>
      <trkpt lat="45.90563" lon="6.17405">
        <ele>1038</ele>
        <time>2018-08-06T05:35:34Z</time>
      </trkpt>
      <trkpt lat="45.9056" lon="6.17408">
        <ele>1039</ele>
        <time>2018-08-06T05:35:37Z</time>
      </trkpt>
      <trkpt lat="45.90553" lon="6.17402">
        <ele>1044</ele>
        <time>2018-08-06T05:36:09Z</time>
      </trkpt>
      <trkpt lat="45.9055" lon="6.17399">
        <ele>1045</ele>
        <time>2018-08-06T05:36:16Z</time>
      </trkpt>
      <trkpt lat="45.90548" lon="6.17396">
        <ele>1046</ele>
        <time>2018-08-06T05:36:22Z</time>
      </trkpt>
      <trkpt lat="45.90546" lon="6.17394">
        <ele>1047</ele>
        <time>2018-08-06T05:36:26Z</time>
      </trkpt>
      <trkpt lat="45.90543" lon="6.17393">
        <ele>1048</ele>
        <time>2018-08-06T05:36:30Z</time>
      </trkpt>
      <trkpt lat="45.90543" lon="6.17396">
        <ele>1048</ele>
        <time>2018-08-06T05:36:34Z</time>
      </trkpt>
      <trkpt lat="45.90542" lon="6.17401">
        <ele>1050</ele>
        <time>2018-08-06T05:36:43Z</time>
      </trkpt>
      <trkpt lat="45.9054" lon="6.17404">
        <ele>1051</ele>
        <time>2018-08-06T05:36:47Z</time>
      </trkpt>
      <trkpt lat="45.90539" lon="6.17408">
        <ele>1052</ele>
        <time>2018-08-06T05:36:56Z</time>
      </trkpt>
      <trkpt lat="45.90537" lon="6.17412">
        <ele>1053</ele>
        <time>2018-08-06T05:37:02Z</time>
      </trkpt>
      <trkpt lat="45.90538" lon="6.1742">
        <ele>1054</ele>
        <time>2018-08-06T05:37:12Z</time>
      </trkpt>
      <trkpt lat="45.90538" lon="6.17425">
        <ele>1055</ele>
        <time>2018-08-06T05:37:16Z</time>
      </trkpt>
      <trkpt lat="45.90539" lon="6.1743">
        <ele>1056</ele>
        <time>2018-08-06T05:37:21Z</time>
      </trkpt>
      <trkpt lat="45.90538" lon="6.17435">
        <ele>1057</ele>
        <time>2018-08-06T05:37:25Z</time>
      </trkpt>
      <trkpt lat="45.90537" lon="6.17439">
        <ele>1058</ele>
        <time>2018-08-06T05:37:29Z</time>
      </trkpt>
      <trkpt lat="45.90535" lon="6.17443">
        <ele>1058</ele>
        <time>2018-08-06T05:37:35Z</time>
      </trkpt>
      <trkpt lat="45.90533" lon="6.17445">
        <ele>1059</ele>
        <time>2018-08-06T05:37:38Z</time>
      </trkpt>
      <trkpt lat="45.90533" lon="6.17454">
        <ele>1061</ele>
        <time>2018-08-06T05:37:50Z</time>
      </trkpt>
      <trkpt lat="45.90535" lon="6.17458">
        <ele>1061</ele>
        <time>2018-08-06T05:37:53Z</time>
      </trkpt>
      <trkpt lat="45.90537" lon="6.17461">
        <ele>1062</ele>
        <time>2018-08-06T05:37:57Z</time>
      </trkpt>
      <trkpt lat="45.90537" lon="6.17464">
        <ele>1063</ele>
        <time>2018-08-06T05:38:00Z</time>
      </trkpt>
      <trkpt lat="45.90537" lon="6.17467">
        <ele>1063</ele>
        <time>2018-08-06T05:38:03Z</time>
      </trkpt>
      <trkpt lat="45.90536" lon="6.17471">
        <ele>1064</ele>
        <time>2018-08-06T05:38:08Z</time>
      </trkpt>
      <trkpt lat="45.90533" lon="6.17474">
        <ele>1065</ele>
        <time>2018-08-06T05:38:13Z</time>
      </trkpt>
      <trkpt lat="45.9053" lon="6.17478">
        <ele>1066</ele>
        <time>2018-08-06T05:38:16Z</time>
      </trkpt>
      <trkpt lat="45.90527" lon="6.1748">
        <ele>1066</ele>
        <time>2018-08-06T05:38:19Z</time>
      </trkpt>
      <trkpt lat="45.90529" lon="6.17484">
        <ele>1067</ele>
        <time>2018-08-06T05:38:28Z</time>
      </trkpt>
      <trkpt lat="45.90527" lon="6.17489">
        <ele>1069</ele>
        <time>2018-08-06T05:38:34Z</time>
      </trkpt>
      <trkpt lat="45.90525" lon="6.17492">
        <ele>1069</ele>
        <time>2018-08-06T05:38:37Z</time>
      </trkpt>
      <trkpt lat="45.90522" lon="6.17493">
        <ele>1070</ele>
        <time>2018-08-06T05:38:40Z</time>
      </trkpt>
      <trkpt lat="45.9052" lon="6.1749">
        <ele>1070</ele>
        <time>2018-08-06T05:38:45Z</time>
      </trkpt>
      <trkpt lat="45.90517" lon="6.1749">
        <ele>1071</ele>
        <time>2018-08-06T05:38:50Z</time>
      </trkpt>
      <trkpt lat="45.90514" lon="6.17491">
        <ele>1072</ele>
        <time>2018-08-06T05:38:55Z</time>
      </trkpt>
      <trkpt lat="45.90514" lon="6.17487">
        <ele>1074</ele>
        <time>2018-08-06T05:39:08Z</time>
      </trkpt>
      <trkpt lat="45.9051" lon="6.17489">
        <ele>1075</ele>
        <time>2018-08-06T05:39:21Z</time>
      </trkpt>
      <trkpt lat="45.90507" lon="6.17486">
        <ele>1076</ele>
        <time>2018-08-06T05:39:35Z</time>
      </trkpt>
      <trkpt lat="45.90499" lon="6.1748">
        <ele>1079</ele>
        <time>2018-08-06T05:39:52Z</time>
      </trkpt>
      <trkpt lat="45.90495" lon="6.17475">
        <ele>1081</ele>
        <time>2018-08-06T05:39:59Z</time>
      </trkpt>
      <trkpt lat="45.90491" lon="6.17469">
        <ele>1081</ele>
        <time>2018-08-06T05:40:07Z</time>
      </trkpt>
      <trkpt lat="45.90482" lon="6.17459">
        <ele>1084</ele>
        <time>2018-08-06T05:40:21Z</time>
      </trkpt>
      <trkpt lat="45.90477" lon="6.17457">
        <ele>1087</ele>
        <time>2018-08-06T05:40:29Z</time>
      </trkpt>
      <trkpt lat="45.90475" lon="6.17452">
        <ele>1089</ele>
        <time>2018-08-06T05:40:39Z</time>
      </trkpt>
      <trkpt lat="45.9047" lon="6.17448">
        <ele>1091</ele>
        <time>2018-08-06T05:40:45Z</time>
      </trkpt>
      <trkpt lat="45.90464" lon="6.17446">
        <ele>1093</ele>
        <time>2018-08-06T05:40:53Z</time>
      </trkpt>
      <trkpt lat="45.90461" lon="6.17442">
        <ele>1095</ele>
        <time>2018-08-06T05:40:59Z</time>
      </trkpt>
      <trkpt lat="45.90457" lon="6.17437">
        <ele>1096</ele>
        <time>2018-08-06T05:41:08Z</time>
      </trkpt>
      <trkpt lat="45.90452" lon="6.17432">
        <ele>1098</ele>
        <time>2018-08-06T05:41:11Z</time>
      </trkpt>
      <trkpt lat="45.90447" lon="6.17429">
        <ele>1099</ele>
        <time>2018-08-06T05:41:16Z</time>
      </trkpt>
      <trkpt lat="45.90443" lon="6.17429">
        <ele>1101</ele>
        <time>2018-08-06T05:41:21Z</time>
      </trkpt>
      <trkpt lat="45.9044" lon="6.17428">
        <ele>1102</ele>
        <time>2018-08-06T05:41:24Z</time>
      </trkpt>
      <trkpt lat="45.90434" lon="6.17427">
        <ele>1103</ele>
        <time>2018-08-06T05:41:32Z</time>
      </trkpt>
      <trkpt lat="45.90429" lon="6.17427">
        <ele>1105</ele>
        <time>2018-08-06T05:41:35Z</time>
      </trkpt>
      <trkpt lat="45.90425" lon="6.17426">
        <ele>1106</ele>
        <time>2018-08-06T05:41:41Z</time>
      </trkpt>
      <trkpt lat="45.90422" lon="6.17423">
        <ele>1108</ele>
        <time>2018-08-06T05:41:46Z</time>
      </trkpt>
      <trkpt lat="45.9042" lon="6.17418">
        <ele>1109</ele>
        <time>2018-08-06T05:41:52Z</time>
      </trkpt>
      <trkpt lat="45.90417" lon="6.17414">
        <ele>1111</ele>
        <time>2018-08-06T05:41:59Z</time>
      </trkpt>
      <trkpt lat="45.90414" lon="6.17411">
        <ele>1113</ele>
        <time>2018-08-06T05:42:06Z</time>
      </trkpt>
      <trkpt lat="45.90412" lon="6.17407">
        <ele>1115</ele>
        <time>2018-08-06T05:42:10Z</time>
      </trkpt>
      <trkpt lat="45.90409" lon="6.17402">
        <ele>1116</ele>
        <time>2018-08-06T05:42:15Z</time>
      </trkpt>
      <trkpt lat="45.90401" lon="6.17401">
        <ele>1120</ele>
        <time>2018-08-06T05:42:26Z</time>
      </trkpt>
      <trkpt lat="45.90396" lon="6.17402">
        <ele>1122</ele>
        <time>2018-08-06T05:42:31Z</time>
      </trkpt>
      <trkpt lat="45.9039" lon="6.1741">
        <ele>1124</ele>
        <time>2018-08-06T05:42:40Z</time>
      </trkpt>
      <trkpt lat="45.90385" lon="6.17415">
        <ele>1127</ele>
        <time>2018-08-06T05:42:51Z</time>
      </trkpt>
      <trkpt lat="45.90381" lon="6.17418">
        <ele>1127</ele>
        <time>2018-08-06T05:42:55Z</time>
      </trkpt>
      <trkpt lat="45.90378" lon="6.17418">
        <ele>1129</ele>
        <time>2018-08-06T05:43:03Z</time>
      </trkpt>
      <trkpt lat="45.90376" lon="6.17416">
        <ele>1130</ele>
        <time>2018-08-06T05:43:11Z</time>
      </trkpt>
      <trkpt lat="45.9037" lon="6.17412">
        <ele>1134</ele>
        <time>2018-08-06T05:43:24Z</time>
      </trkpt>
      <trkpt lat="45.90366" lon="6.17411">
        <ele>1135</ele>
        <time>2018-08-06T05:43:28Z</time>
      </trkpt>
      <trkpt lat="45.90362" lon="6.1741">
        <ele>1136</ele>
        <time>2018-08-06T05:43:35Z</time>
      </trkpt>
      <trkpt lat="45.90357" lon="6.17411">
        <ele>1138</ele>
        <time>2018-08-06T05:43:40Z</time>
      </trkpt>
      <trkpt lat="45.90355" lon="6.17412">
        <ele>1139</ele>
        <time>2018-08-06T05:43:43Z</time>
      </trkpt>
      <trkpt lat="45.90352" lon="6.17413">
        <ele>1139</ele>
        <time>2018-08-06T05:43:48Z</time>
      </trkpt>
      <trkpt lat="45.90351" lon="6.17416">
        <ele>1140</ele>
        <time>2018-08-06T05:43:52Z</time>
      </trkpt>
      <trkpt lat="45.90349" lon="6.17417">
        <ele>1141</ele>
        <time>2018-08-06T05:43:55Z</time>
      </trkpt>
      <trkpt lat="45.90346" lon="6.17422">
        <ele>1142</ele>
        <time>2018-08-06T05:43:59Z</time>
      </trkpt>
      <trkpt lat="45.90345" lon="6.17426">
        <ele>1143</ele>
        <time>2018-08-06T05:44:02Z</time>
      </trkpt>
      <trkpt lat="45.9034" lon="6.17431">
        <ele>1144</ele>
        <time>2018-08-06T05:44:09Z</time>
      </trkpt>
      <trkpt lat="45.90339" lon="6.17434">
        <ele>1145</ele>
        <time>2018-08-06T05:44:11Z</time>
      </trkpt>
      <trkpt lat="45.90331" lon="6.17438">
        <ele>1146</ele>
        <time>2018-08-06T05:44:14Z</time>
      </trkpt>
      <trkpt lat="45.90328" lon="6.17443">
        <ele>1146</ele>
        <time>2018-08-06T05:44:16Z</time>
      </trkpt>
      <trkpt lat="45.90327" lon="6.17447">
        <ele>1147</ele>
        <time>2018-08-06T05:44:21Z</time>
      </trkpt>
      <trkpt lat="45.90324" lon="6.17446">
        <ele>1148</ele>
        <time>2018-08-06T05:44:49Z</time>
      </trkpt>
      <trkpt lat="45.90321" lon="6.17444">
        <ele>1150</ele>
        <time>2018-08-06T05:45:03Z</time>
      </trkpt>
      <trkpt lat="45.9032" lon="6.17441">
        <ele>1150</ele>
        <time>2018-08-06T05:45:08Z</time>
      </trkpt>
      <trkpt lat="45.90322" lon="6.17439">
        <ele>1151</ele>
        <time>2018-08-06T05:46:10Z</time>
      </trkpt>
      <trkpt lat="45.90328" lon="6.17445">
        <ele>1154</ele>
        <time>2018-08-06T05:47:22Z</time>
      </trkpt>
      <trkpt lat="45.90328" lon="6.17444">
        <ele>1155</ele>
        <time>2018-08-06T05:49:03Z</time>
      </trkpt>
      <trkpt lat="45.90326" lon="6.17446">
        <ele>1155</ele>
        <time>2018-08-06T05:49:15Z</time>
      </trkpt>
      <trkpt lat="45.90328" lon="6.17439">
        <ele>1155</ele>
        <time>2018-08-06T05:49:44Z</time>
      </trkpt>
      <trkpt lat="45.9033" lon="6.17443">
        <ele>1156</ele>
        <time>2018-08-06T05:50:05Z</time>
      </trkpt>
      <trkpt lat="45.90329" lon="6.17448">
        <ele>1156</ele>
        <time>2018-08-06T05:50:14Z</time>
      </trkpt>
      <trkpt lat="45.90329" lon="6.17453">
        <ele>1159</ele>
        <time>2018-08-06T05:50:17Z</time>
      </trkpt>
      <trkpt lat="45.9033" lon="6.17456">
        <ele>1160</ele>
        <time>2018-08-06T05:50:21Z</time>
      </trkpt>
      <trkpt lat="45.90332" lon="6.17471">
        <ele>1162</ele>
        <time>2018-08-06T05:50:35Z</time>
      </trkpt>
      <trkpt lat="45.90332" lon="6.17474">
        <ele>1162</ele>
        <time>2018-08-06T05:50:37Z</time>
      </trkpt>
      <trkpt lat="45.90334" lon="6.17483">
        <ele>1162</ele>
        <time>2018-08-06T05:50:43Z</time>
      </trkpt>
      <trkpt lat="45.90335" lon="6.17486">
        <ele>1162</ele>
        <time>2018-08-06T05:50:46Z</time>
      </trkpt>
      <trkpt lat="45.90335" lon="6.17489">
        <ele>1163</ele>
        <time>2018-08-06T05:50:49Z</time>
      </trkpt>
      <trkpt lat="45.90337" lon="6.17492">
        <ele>1163</ele>
        <time>2018-08-06T05:50:52Z</time>
      </trkpt>
      <trkpt lat="45.90338" lon="6.17494">
        <ele>1163</ele>
        <time>2018-08-06T05:50:54Z</time>
      </trkpt>
      <trkpt lat="45.90338" lon="6.17497">
        <ele>1163</ele>
        <time>2018-08-06T05:50:56Z</time>
      </trkpt>
      <trkpt lat="45.90338" lon="6.17501">
        <ele>1163</ele>
        <time>2018-08-06T05:50:59Z</time>
      </trkpt>
      <trkpt lat="45.9034" lon="6.17507">
        <ele>1164</ele>
        <time>2018-08-06T05:51:02Z</time>
      </trkpt>
      <trkpt lat="45.9034" lon="6.1751">
        <ele>1164</ele>
        <time>2018-08-06T05:51:04Z</time>
      </trkpt>
      <trkpt lat="45.9034" lon="6.17513">
        <ele>1164</ele>
        <time>2018-08-06T05:51:06Z</time>
      </trkpt>
      <trkpt lat="45.9034" lon="6.17516">
        <ele>1164</ele>
        <time>2018-08-06T05:51:08Z</time>
      </trkpt>
      <trkpt lat="45.90339" lon="6.1752">
        <ele>1164</ele>
        <time>2018-08-06T05:51:10Z</time>
      </trkpt>
      <trkpt lat="45.90338" lon="6.17525">
        <ele>1164</ele>
        <time>2018-08-06T05:51:12Z</time>
      </trkpt>
      <trkpt lat="45.90336" lon="6.1753">
        <ele>1165</ele>
        <time>2018-08-06T05:51:17Z</time>
      </trkpt>
      <trkpt lat="45.90335" lon="6.17532">
        <ele>1165</ele>
        <time>2018-08-06T05:51:19Z</time>
      </trkpt>
      <trkpt lat="45.90334" lon="6.17535">
        <ele>1165</ele>
        <time>2018-08-06T05:51:22Z</time>
      </trkpt>
      <trkpt lat="45.90335" lon="6.17539">
        <ele>1165</ele>
        <time>2018-08-06T05:51:25Z</time>
      </trkpt>
      <trkpt lat="45.90339" lon="6.17541">
        <ele>1166</ele>
        <time>2018-08-06T05:51:30Z</time>
      </trkpt>
      <trkpt lat="45.90341" lon="6.17545">
        <ele>1166</ele>
        <time>2018-08-06T05:51:33Z</time>
      </trkpt>
      <trkpt lat="45.90343" lon="6.17548">
        <ele>1166</ele>
        <time>2018-08-06T05:51:36Z</time>
      </trkpt>
      <trkpt lat="45.90351" lon="6.17558">
        <ele>1167</ele>
        <time>2018-08-06T05:51:46Z</time>
      </trkpt>
      <trkpt lat="45.90352" lon="6.17561">
        <ele>1167</ele>
        <time>2018-08-06T05:51:48Z</time>
      </trkpt>
      <trkpt lat="45.90355" lon="6.1756">
        <ele>1167</ele>
        <time>2018-08-06T05:51:54Z</time>
      </trkpt>
      <trkpt lat="45.90358" lon="6.17561">
        <ele>1168</ele>
        <time>2018-08-06T05:52:00Z</time>
      </trkpt>
      <trkpt lat="45.90361" lon="6.17562">
        <ele>1169</ele>
        <time>2018-08-06T05:52:07Z</time>
      </trkpt>
      <trkpt lat="45.90366" lon="6.17561">
        <ele>1169</ele>
        <time>2018-08-06T05:52:14Z</time>
      </trkpt>
      <trkpt lat="45.90373" lon="6.17557">
        <ele>1170</ele>
        <time>2018-08-06T05:52:23Z</time>
      </trkpt>
      <trkpt lat="45.90375" lon="6.17555">
        <ele>1170</ele>
        <time>2018-08-06T05:52:26Z</time>
      </trkpt>
      <trkpt lat="45.90379" lon="6.17554">
        <ele>1170</ele>
        <time>2018-08-06T05:52:30Z</time>
      </trkpt>
      <trkpt lat="45.9038" lon="6.17556">
        <ele>1171</ele>
        <time>2018-08-06T05:52:34Z</time>
      </trkpt>
      <trkpt lat="45.90377" lon="6.17565">
        <ele>1171</ele>
        <time>2018-08-06T05:52:43Z</time>
      </trkpt>
      <trkpt lat="45.90375" lon="6.17568">
        <ele>1172</ele>
        <time>2018-08-06T05:52:46Z</time>
      </trkpt>
      <trkpt lat="45.90374" lon="6.17571">
        <ele>1172</ele>
        <time>2018-08-06T05:52:50Z</time>
      </trkpt>
      <trkpt lat="45.90373" lon="6.17575">
        <ele>1172</ele>
        <time>2018-08-06T05:52:55Z</time>
      </trkpt>
      <trkpt lat="45.90371" lon="6.17578">
        <ele>1173</ele>
        <time>2018-08-06T05:52:58Z</time>
      </trkpt>
      <trkpt lat="45.9037" lon="6.17582">
        <ele>1173</ele>
        <time>2018-08-06T05:53:01Z</time>
      </trkpt>
      <trkpt lat="45.90368" lon="6.17584">
        <ele>1173</ele>
        <time>2018-08-06T05:53:04Z</time>
      </trkpt>
      <trkpt lat="45.90361" lon="6.17591">
        <ele>1174</ele>
        <time>2018-08-06T05:53:13Z</time>
      </trkpt>
      <trkpt lat="45.90356" lon="6.17602">
        <ele>1176</ele>
        <time>2018-08-06T05:53:28Z</time>
      </trkpt>
      <trkpt lat="45.90354" lon="6.17609">
        <ele>1177</ele>
        <time>2018-08-06T05:53:36Z</time>
      </trkpt>
      <trkpt lat="45.90352" lon="6.17612">
        <ele>1178</ele>
        <time>2018-08-06T05:53:39Z</time>
      </trkpt>
      <trkpt lat="45.90344" lon="6.17618">
        <ele>1179</ele>
        <time>2018-08-06T05:53:54Z</time>
      </trkpt>
      <trkpt lat="45.90341" lon="6.1762">
        <ele>1180</ele>
        <time>2018-08-06T05:53:57Z</time>
      </trkpt>
      <trkpt lat="45.90338" lon="6.17623">
        <ele>1180</ele>
        <time>2018-08-06T05:54:00Z</time>
      </trkpt>
      <trkpt lat="45.90335" lon="6.17625">
        <ele>1181</ele>
        <time>2018-08-06T05:54:06Z</time>
      </trkpt>
      <trkpt lat="45.90331" lon="6.17633">
        <ele>1182</ele>
        <time>2018-08-06T05:54:12Z</time>
      </trkpt>
      <trkpt lat="45.90328" lon="6.17636">
        <ele>1183</ele>
        <time>2018-08-06T05:54:19Z</time>
      </trkpt>
      <trkpt lat="45.90323" lon="6.17642">
        <ele>1185</ele>
        <time>2018-08-06T05:54:29Z</time>
      </trkpt>
      <trkpt lat="45.90322" lon="6.17645">
        <ele>1185</ele>
        <time>2018-08-06T05:54:31Z</time>
      </trkpt>
      <trkpt lat="45.90316" lon="6.17648">
        <ele>1185</ele>
        <time>2018-08-06T05:54:35Z</time>
      </trkpt>
      <trkpt lat="45.90314" lon="6.17655">
        <ele>1186</ele>
        <time>2018-08-06T05:54:42Z</time>
      </trkpt>
      <trkpt lat="45.90313" lon="6.17657">
        <ele>1187</ele>
        <time>2018-08-06T05:54:45Z</time>
      </trkpt>
      <trkpt lat="45.90308" lon="6.1766">
        <ele>1188</ele>
        <time>2018-08-06T05:54:50Z</time>
      </trkpt>
      <trkpt lat="45.90305" lon="6.17661">
        <ele>1188</ele>
        <time>2018-08-06T05:54:52Z</time>
      </trkpt>
      <trkpt lat="45.90301" lon="6.1766">
        <ele>1189</ele>
        <time>2018-08-06T05:54:59Z</time>
      </trkpt>
      <trkpt lat="45.90298" lon="6.17662">
        <ele>1190</ele>
        <time>2018-08-06T05:55:02Z</time>
      </trkpt>
      <trkpt lat="45.90292" lon="6.17666">
        <ele>1191</ele>
        <time>2018-08-06T05:55:08Z</time>
      </trkpt>
      <trkpt lat="45.90289" lon="6.17669">
        <ele>1191</ele>
        <time>2018-08-06T05:55:10Z</time>
      </trkpt>
      <trkpt lat="45.90288" lon="6.17672">
        <ele>1192</ele>
        <time>2018-08-06T05:55:14Z</time>
      </trkpt>
      <trkpt lat="45.90287" lon="6.17676">
        <ele>1192</ele>
        <time>2018-08-06T05:55:19Z</time>
      </trkpt>
      <trkpt lat="45.90286" lon="6.17679">
        <ele>1193</ele>
        <time>2018-08-06T05:55:23Z</time>
      </trkpt>
      <trkpt lat="45.90285" lon="6.17682">
        <ele>1193</ele>
        <time>2018-08-06T05:55:25Z</time>
      </trkpt>
      <trkpt lat="45.90279" lon="6.17697">
        <ele>1195</ele>
        <time>2018-08-06T05:55:31Z</time>
      </trkpt>
      <trkpt lat="45.90271" lon="6.1771">
        <ele>1196</ele>
        <time>2018-08-06T05:55:38Z</time>
      </trkpt>
      <trkpt lat="45.90267" lon="6.17715">
        <ele>1196</ele>
        <time>2018-08-06T05:55:42Z</time>
      </trkpt>
      <trkpt lat="45.90264" lon="6.17717">
        <ele>1197</ele>
        <time>2018-08-06T05:55:45Z</time>
      </trkpt>
      <trkpt lat="45.90264" lon="6.17721">
        <ele>1197</ele>
        <time>2018-08-06T05:55:47Z</time>
      </trkpt>
      <trkpt lat="45.90262" lon="6.17724">
        <ele>1198</ele>
        <time>2018-08-06T05:55:51Z</time>
      </trkpt>
      <trkpt lat="45.9026" lon="6.17728">
        <ele>1198</ele>
        <time>2018-08-06T05:55:54Z</time>
      </trkpt>
      <trkpt lat="45.90257" lon="6.17731">
        <ele>1199</ele>
        <time>2018-08-06T05:55:59Z</time>
      </trkpt>
      <trkpt lat="45.90254" lon="6.17733">
        <ele>1200</ele>
        <time>2018-08-06T05:56:03Z</time>
      </trkpt>
      <trkpt lat="45.90248" lon="6.17738">
        <ele>1201</ele>
        <time>2018-08-06T05:56:10Z</time>
      </trkpt>
      <trkpt lat="45.90245" lon="6.17739">
        <ele>1201</ele>
        <time>2018-08-06T05:56:13Z</time>
      </trkpt>
      <trkpt lat="45.90242" lon="6.17742">
        <ele>1202</ele>
        <time>2018-08-06T05:56:16Z</time>
      </trkpt>
      <trkpt lat="45.9024" lon="6.1775">
        <ele>1202</ele>
        <time>2018-08-06T05:56:20Z</time>
      </trkpt>
      <trkpt lat="45.90238" lon="6.17753">
        <ele>1203</ele>
        <time>2018-08-06T05:56:22Z</time>
      </trkpt>
      <trkpt lat="45.90237" lon="6.17757">
        <ele>1203</ele>
        <time>2018-08-06T05:56:25Z</time>
      </trkpt>
      <trkpt lat="45.90236" lon="6.17766">
        <ele>1204</ele>
        <time>2018-08-06T05:56:29Z</time>
      </trkpt>
      <trkpt lat="45.90234" lon="6.1777">
        <ele>1204</ele>
        <time>2018-08-06T05:56:32Z</time>
      </trkpt>
      <trkpt lat="45.90231" lon="6.17773">
        <ele>1205</ele>
        <time>2018-08-06T05:56:36Z</time>
      </trkpt>
      <trkpt lat="45.90231" lon="6.17776">
        <ele>1205</ele>
        <time>2018-08-06T05:56:39Z</time>
      </trkpt>
      <trkpt lat="45.9023" lon="6.17779">
        <ele>1206</ele>
        <time>2018-08-06T05:56:42Z</time>
      </trkpt>
      <trkpt lat="45.90228" lon="6.17783">
        <ele>1206</ele>
        <time>2018-08-06T05:56:45Z</time>
      </trkpt>
      <trkpt lat="45.9022" lon="6.17791">
        <ele>1207</ele>
        <time>2018-08-06T05:56:50Z</time>
      </trkpt>
      <trkpt lat="45.90228" lon="6.17794">
        <ele>1208</ele>
        <time>2018-08-06T05:56:57Z</time>
      </trkpt>
      <trkpt lat="45.90231" lon="6.17796">
        <ele>1209</ele>
        <time>2018-08-06T05:57:02Z</time>
      </trkpt>
      <trkpt lat="45.90234" lon="6.178">
        <ele>1209</ele>
        <time>2018-08-06T05:57:05Z</time>
      </trkpt>
      <trkpt lat="45.90235" lon="6.17803">
        <ele>1210</ele>
        <time>2018-08-06T05:57:08Z</time>
      </trkpt>
      <trkpt lat="45.90235" lon="6.17807">
        <ele>1210</ele>
        <time>2018-08-06T05:57:10Z</time>
      </trkpt>
      <trkpt lat="45.90236" lon="6.17812">
        <ele>1211</ele>
        <time>2018-08-06T05:57:17Z</time>
      </trkpt>
      <trkpt lat="45.90237" lon="6.1782">
        <ele>1212</ele>
        <time>2018-08-06T05:57:23Z</time>
      </trkpt>
      <trkpt lat="45.90236" lon="6.17824">
        <ele>1213</ele>
        <time>2018-08-06T05:57:29Z</time>
      </trkpt>
      <trkpt lat="45.90235" lon="6.17833">
        <ele>1214</ele>
        <time>2018-08-06T05:57:39Z</time>
      </trkpt>
      <trkpt lat="45.90235" lon="6.17837">
        <ele>1215</ele>
        <time>2018-08-06T05:57:43Z</time>
      </trkpt>
      <trkpt lat="45.90228" lon="6.1784">
        <ele>1216</ele>
        <time>2018-08-06T05:57:51Z</time>
      </trkpt>
      <trkpt lat="45.90227" lon="6.17843">
        <ele>1217</ele>
        <time>2018-08-06T05:58:00Z</time>
      </trkpt>
      <trkpt lat="45.90226" lon="6.17846">
        <ele>1219</ele>
        <time>2018-08-06T05:58:02Z</time>
      </trkpt>
      <trkpt lat="45.90223" lon="6.1785">
        <ele>1219</ele>
        <time>2018-08-06T05:58:08Z</time>
      </trkpt>
      <trkpt lat="45.90223" lon="6.17853">
        <ele>1221</ele>
        <time>2018-08-06T05:58:11Z</time>
      </trkpt>
      <trkpt lat="45.90221" lon="6.17856">
        <ele>1221</ele>
        <time>2018-08-06T05:58:15Z</time>
      </trkpt>
      <trkpt lat="45.90216" lon="6.17861">
        <ele>1223</ele>
        <time>2018-08-06T05:58:23Z</time>
      </trkpt>
      <trkpt lat="45.90215" lon="6.17863">
        <ele>1224</ele>
        <time>2018-08-06T05:58:29Z</time>
      </trkpt>
      <trkpt lat="45.90212" lon="6.17866">
        <ele>1225</ele>
        <time>2018-08-06T05:58:36Z</time>
      </trkpt>
      <trkpt lat="45.90211" lon="6.1787">
        <ele>1226</ele>
        <time>2018-08-06T05:58:39Z</time>
      </trkpt>
      <trkpt lat="45.9021" lon="6.17873">
        <ele>1226</ele>
        <time>2018-08-06T05:58:42Z</time>
      </trkpt>
      <trkpt lat="45.90212" lon="6.17881">
        <ele>1228</ele>
        <time>2018-08-06T05:58:51Z</time>
      </trkpt>
      <trkpt lat="45.90213" lon="6.17887">
        <ele>1229</ele>
        <time>2018-08-06T05:58:57Z</time>
      </trkpt>
      <trkpt lat="45.90212" lon="6.17893">
        <ele>1230</ele>
        <time>2018-08-06T05:59:01Z</time>
      </trkpt>
      <trkpt lat="45.90211" lon="6.17897">
        <ele>1230</ele>
        <time>2018-08-06T05:59:03Z</time>
      </trkpt>
      <trkpt lat="45.90206" lon="6.17902">
        <ele>1231</ele>
        <time>2018-08-06T05:59:07Z</time>
      </trkpt>
      <trkpt lat="45.90203" lon="6.17905">
        <ele>1231</ele>
        <time>2018-08-06T05:59:09Z</time>
      </trkpt>
      <trkpt lat="45.90199" lon="6.17912">
        <ele>1232</ele>
        <time>2018-08-06T05:59:14Z</time>
      </trkpt>
      <trkpt lat="45.90198" lon="6.17914">
        <ele>1232</ele>
        <time>2018-08-06T05:59:16Z</time>
      </trkpt>
      <trkpt lat="45.90197" lon="6.17916">
        <ele>1232</ele>
        <time>2018-08-06T05:59:19Z</time>
      </trkpt>
      <trkpt lat="45.90195" lon="6.17926">
        <ele>1233</ele>
        <time>2018-08-06T05:59:26Z</time>
      </trkpt>
      <trkpt lat="45.90195" lon="6.17929">
        <ele>1234</ele>
        <time>2018-08-06T05:59:28Z</time>
      </trkpt>
      <trkpt lat="45.90194" lon="6.17932">
        <ele>1234</ele>
        <time>2018-08-06T05:59:30Z</time>
      </trkpt>
      <trkpt lat="45.90194" lon="6.17947">
        <ele>1235</ele>
        <time>2018-08-06T05:59:38Z</time>
      </trkpt>
      <trkpt lat="45.90198" lon="6.17955">
        <ele>1236</ele>
        <time>2018-08-06T05:59:45Z</time>
      </trkpt>
      <trkpt lat="45.90198" lon="6.17959">
        <ele>1237</ele>
        <time>2018-08-06T05:59:47Z</time>
      </trkpt>
      <trkpt lat="45.90198" lon="6.17963">
        <ele>1237</ele>
        <time>2018-08-06T05:59:50Z</time>
      </trkpt>
      <trkpt lat="45.90198" lon="6.17966">
        <ele>1237</ele>
        <time>2018-08-06T05:59:53Z</time>
      </trkpt>
      <trkpt lat="45.90196" lon="6.17971">
        <ele>1238</ele>
        <time>2018-08-06T05:59:56Z</time>
      </trkpt>
      <trkpt lat="45.90195" lon="6.17976">
        <ele>1238</ele>
        <time>2018-08-06T06:00:01Z</time>
      </trkpt>
      <trkpt lat="45.90194" lon="6.17981">
        <ele>1239</ele>
        <time>2018-08-06T06:00:03Z</time>
      </trkpt>
      <trkpt lat="45.90192" lon="6.17986">
        <ele>1239</ele>
        <time>2018-08-06T06:00:07Z</time>
      </trkpt>
      <trkpt lat="45.90189" lon="6.17989">
        <ele>1239</ele>
        <time>2018-08-06T06:00:09Z</time>
      </trkpt>
      <trkpt lat="45.90185" lon="6.17996">
        <ele>1240</ele>
        <time>2018-08-06T06:00:15Z</time>
      </trkpt>
      <trkpt lat="45.90184" lon="6.18001">
        <ele>1240</ele>
        <time>2018-08-06T06:00:17Z</time>
      </trkpt>
      <trkpt lat="45.90183" lon="6.18005">
        <ele>1241</ele>
        <time>2018-08-06T06:00:19Z</time>
      </trkpt>
      <trkpt lat="45.9018" lon="6.18009">
        <ele>1241</ele>
        <time>2018-08-06T06:00:22Z</time>
      </trkpt>
      <trkpt lat="45.90179" lon="6.18012">
        <ele>1241</ele>
        <time>2018-08-06T06:00:26Z</time>
      </trkpt>
      <trkpt lat="45.90176" lon="6.18022">
        <ele>1242</ele>
        <time>2018-08-06T06:00:37Z</time>
      </trkpt>
      <trkpt lat="45.90173" lon="6.18026">
        <ele>1243</ele>
        <time>2018-08-06T06:00:43Z</time>
      </trkpt>
      <trkpt lat="45.90169" lon="6.18028">
        <ele>1243</ele>
        <time>2018-08-06T06:00:48Z</time>
      </trkpt>
      <trkpt lat="45.90164" lon="6.18028">
        <ele>1244</ele>
        <time>2018-08-06T06:00:51Z</time>
      </trkpt>
      <trkpt lat="45.90158" lon="6.18027">
        <ele>1244</ele>
        <time>2018-08-06T06:00:54Z</time>
      </trkpt>
      <trkpt lat="45.9015" lon="6.1803">
        <ele>1244</ele>
        <time>2018-08-06T06:00:57Z</time>
      </trkpt>
      <trkpt lat="45.90147" lon="6.18033">
        <ele>1244</ele>
        <time>2018-08-06T06:00:59Z</time>
      </trkpt>
      <trkpt lat="45.90142" lon="6.18035">
        <ele>1244</ele>
        <time>2018-08-06T06:01:02Z</time>
      </trkpt>
      <trkpt lat="45.90138" lon="6.18036">
        <ele>1245</ele>
        <time>2018-08-06T06:01:04Z</time>
      </trkpt>
      <trkpt lat="45.90135" lon="6.18037">
        <ele>1245</ele>
        <time>2018-08-06T06:01:07Z</time>
      </trkpt>
      <trkpt lat="45.90134" lon="6.18042">
        <ele>1245</ele>
        <time>2018-08-06T06:01:10Z</time>
      </trkpt>
      <trkpt lat="45.90131" lon="6.18047">
        <ele>1245</ele>
        <time>2018-08-06T06:01:12Z</time>
      </trkpt>
      <trkpt lat="45.90124" lon="6.18051">
        <ele>1245</ele>
        <time>2018-08-06T06:01:18Z</time>
      </trkpt>
      <trkpt lat="45.9012" lon="6.18053">
        <ele>1246</ele>
        <time>2018-08-06T06:01:21Z</time>
      </trkpt>
      <trkpt lat="45.90117" lon="6.18055">
        <ele>1246</ele>
        <time>2018-08-06T06:01:23Z</time>
      </trkpt>
      <trkpt lat="45.90116" lon="6.18059">
        <ele>1246</ele>
        <time>2018-08-06T06:01:26Z</time>
      </trkpt>
      <trkpt lat="45.90115" lon="6.18064">
        <ele>1246</ele>
        <time>2018-08-06T06:01:29Z</time>
      </trkpt>
      <trkpt lat="45.90114" lon="6.18068">
        <ele>1246</ele>
        <time>2018-08-06T06:01:32Z</time>
      </trkpt>
      <trkpt lat="45.90113" lon="6.18078">
        <ele>1247</ele>
        <time>2018-08-06T06:01:38Z</time>
      </trkpt>
      <trkpt lat="45.90113" lon="6.18082">
        <ele>1247</ele>
        <time>2018-08-06T06:01:41Z</time>
      </trkpt>
      <trkpt lat="45.90123" lon="6.18089">
        <ele>1247</ele>
        <time>2018-08-06T06:01:50Z</time>
      </trkpt>
      <trkpt lat="45.90126" lon="6.18092">
        <ele>1247</ele>
        <time>2018-08-06T06:01:54Z</time>
      </trkpt>
      <trkpt lat="45.90128" lon="6.18095">
        <ele>1248</ele>
        <time>2018-08-06T06:01:58Z</time>
      </trkpt>
      <trkpt lat="45.90128" lon="6.18099">
        <ele>1248</ele>
        <time>2018-08-06T06:02:02Z</time>
      </trkpt>
      <trkpt lat="45.90125" lon="6.181">
        <ele>1248</ele>
        <time>2018-08-06T06:02:10Z</time>
      </trkpt>
      <trkpt lat="45.90122" lon="6.18101">
        <ele>1248</ele>
        <time>2018-08-06T06:02:15Z</time>
      </trkpt>
      <trkpt lat="45.90119" lon="6.18102">
        <ele>1249</ele>
        <time>2018-08-06T06:02:22Z</time>
      </trkpt>
      <trkpt lat="45.90118" lon="6.18106">
        <ele>1249</ele>
        <time>2018-08-06T06:02:26Z</time>
      </trkpt>
      <trkpt lat="45.90118" lon="6.18108">
        <ele>1249</ele>
        <time>2018-08-06T06:02:28Z</time>
      </trkpt>
      <trkpt lat="45.9012" lon="6.18112">
        <ele>1249</ele>
        <time>2018-08-06T06:02:31Z</time>
      </trkpt>
      <trkpt lat="45.90119" lon="6.18119">
        <ele>1250</ele>
        <time>2018-08-06T06:02:36Z</time>
      </trkpt>
      <trkpt lat="45.90117" lon="6.18121">
        <ele>1250</ele>
        <time>2018-08-06T06:02:39Z</time>
      </trkpt>
      <trkpt lat="45.90115" lon="6.18124">
        <ele>1250</ele>
        <time>2018-08-06T06:02:43Z</time>
      </trkpt>
      <trkpt lat="45.90113" lon="6.18126">
        <ele>1250</ele>
        <time>2018-08-06T06:02:45Z</time>
      </trkpt>
      <trkpt lat="45.90111" lon="6.18134">
        <ele>1251</ele>
        <time>2018-08-06T06:02:50Z</time>
      </trkpt>
      <trkpt lat="45.9011" lon="6.18138">
        <ele>1251</ele>
        <time>2018-08-06T06:02:52Z</time>
      </trkpt>
      <trkpt lat="45.9011" lon="6.18141">
        <ele>1251</ele>
        <time>2018-08-06T06:02:55Z</time>
      </trkpt>
      <trkpt lat="45.90109" lon="6.18144">
        <ele>1251</ele>
        <time>2018-08-06T06:02:57Z</time>
      </trkpt>
      <trkpt lat="45.90108" lon="6.18147">
        <ele>1251</ele>
        <time>2018-08-06T06:02:59Z</time>
      </trkpt>
      <trkpt lat="45.90108" lon="6.1815">
        <ele>1252</ele>
        <time>2018-08-06T06:03:04Z</time>
      </trkpt>
      <trkpt lat="45.90105" lon="6.18153">
        <ele>1252</ele>
        <time>2018-08-06T06:03:07Z</time>
      </trkpt>
      <trkpt lat="45.90103" lon="6.18157">
        <ele>1252</ele>
        <time>2018-08-06T06:03:10Z</time>
      </trkpt>
      <trkpt lat="45.90099" lon="6.18164">
        <ele>1253</ele>
        <time>2018-08-06T06:03:17Z</time>
      </trkpt>
      <trkpt lat="45.90097" lon="6.18168">
        <ele>1253</ele>
        <time>2018-08-06T06:03:19Z</time>
      </trkpt>
      <trkpt lat="45.90095" lon="6.18172">
        <ele>1253</ele>
        <time>2018-08-06T06:03:21Z</time>
      </trkpt>
      <trkpt lat="45.90094" lon="6.18176">
        <ele>1253</ele>
        <time>2018-08-06T06:03:23Z</time>
      </trkpt>
      <trkpt lat="45.90094" lon="6.18181">
        <ele>1254</ele>
        <time>2018-08-06T06:03:26Z</time>
      </trkpt>
      <trkpt lat="45.90092" lon="6.18184">
        <ele>1254</ele>
        <time>2018-08-06T06:03:29Z</time>
      </trkpt>
      <trkpt lat="45.90092" lon="6.18189">
        <ele>1254</ele>
        <time>2018-08-06T06:03:32Z</time>
      </trkpt>
      <trkpt lat="45.90093" lon="6.18193">
        <ele>1254</ele>
        <time>2018-08-06T06:03:35Z</time>
      </trkpt>
      <trkpt lat="45.90092" lon="6.18197">
        <ele>1255</ele>
        <time>2018-08-06T06:03:37Z</time>
      </trkpt>
      <trkpt lat="45.9009" lon="6.18206">
        <ele>1255</ele>
        <time>2018-08-06T06:03:45Z</time>
      </trkpt>
      <trkpt lat="45.90088" lon="6.18211">
        <ele>1255</ele>
        <time>2018-08-06T06:03:51Z</time>
      </trkpt>
      <trkpt lat="45.90087" lon="6.18214">
        <ele>1256</ele>
        <time>2018-08-06T06:03:53Z</time>
      </trkpt>
      <trkpt lat="45.90079" lon="6.18232">
        <ele>1257</ele>
        <time>2018-08-06T06:04:12Z</time>
      </trkpt>
      <trkpt lat="45.90077" lon="6.18235">
        <ele>1257</ele>
        <time>2018-08-06T06:04:15Z</time>
      </trkpt>
      <trkpt lat="45.90076" lon="6.18239">
        <ele>1257</ele>
        <time>2018-08-06T06:04:18Z</time>
      </trkpt>
      <trkpt lat="45.90077" lon="6.18247">
        <ele>1258</ele>
        <time>2018-08-06T06:04:23Z</time>
      </trkpt>
      <trkpt lat="45.90076" lon="6.18251">
        <ele>1258</ele>
        <time>2018-08-06T06:04:26Z</time>
      </trkpt>
      <trkpt lat="45.90073" lon="6.18254">
        <ele>1258</ele>
        <time>2018-08-06T06:04:29Z</time>
      </trkpt>
      <trkpt lat="45.90072" lon="6.18257">
        <ele>1258</ele>
        <time>2018-08-06T06:04:32Z</time>
      </trkpt>
      <trkpt lat="45.90069" lon="6.18259">
        <ele>1259</ele>
        <time>2018-08-06T06:04:45Z</time>
      </trkpt>
      <trkpt lat="45.90067" lon="6.18259">
        <ele>1260</ele>
        <time>2018-08-06T06:04:50Z</time>
      </trkpt>
      <trkpt lat="45.90064" lon="6.18264">
        <ele>1260</ele>
        <time>2018-08-06T06:05:00Z</time>
      </trkpt>
      <trkpt lat="45.90059" lon="6.18269">
        <ele>1261</ele>
        <time>2018-08-06T06:05:04Z</time>
      </trkpt>
      <trkpt lat="45.90055" lon="6.18272">
        <ele>1261</ele>
        <time>2018-08-06T06:05:07Z</time>
      </trkpt>
      <trkpt lat="45.9005" lon="6.18276">
        <ele>1262</ele>
        <time>2018-08-06T06:05:11Z</time>
      </trkpt>
      <trkpt lat="45.90046" lon="6.18278">
        <ele>1262</ele>
        <time>2018-08-06T06:05:14Z</time>
      </trkpt>
      <trkpt lat="45.90044" lon="6.18281">
        <ele>1262</ele>
        <time>2018-08-06T06:05:17Z</time>
      </trkpt>
      <trkpt lat="45.90043" lon="6.18285">
        <ele>1262</ele>
        <time>2018-08-06T06:05:20Z</time>
      </trkpt>
      <trkpt lat="45.90034" lon="6.18296">
        <ele>1263</ele>
        <time>2018-08-06T06:05:29Z</time>
      </trkpt>
      <trkpt lat="45.90028" lon="6.18302">
        <ele>1264</ele>
        <time>2018-08-06T06:05:33Z</time>
      </trkpt>
      <trkpt lat="45.90025" lon="6.18305">
        <ele>1264</ele>
        <time>2018-08-06T06:05:35Z</time>
      </trkpt>
      <trkpt lat="45.90022" lon="6.18308">
        <ele>1264</ele>
        <time>2018-08-06T06:05:37Z</time>
      </trkpt>
      <trkpt lat="45.90019" lon="6.1831">
        <ele>1264</ele>
        <time>2018-08-06T06:05:39Z</time>
      </trkpt>
      <trkpt lat="45.9001" lon="6.18318">
        <ele>1265</ele>
        <time>2018-08-06T06:05:48Z</time>
      </trkpt>
      <trkpt lat="45.90007" lon="6.18322">
        <ele>1265</ele>
        <time>2018-08-06T06:05:51Z</time>
      </trkpt>
      <trkpt lat="45.90002" lon="6.18326">
        <ele>1265</ele>
        <time>2018-08-06T06:05:55Z</time>
      </trkpt>
      <trkpt lat="45.89999" lon="6.18329">
        <ele>1265</ele>
        <time>2018-08-06T06:05:57Z</time>
      </trkpt>
      <trkpt lat="45.89997" lon="6.18331">
        <ele>1265</ele>
        <time>2018-08-06T06:05:58Z</time>
      </trkpt>
      <trkpt lat="45.89997" lon="6.18335">
        <ele>1265</ele>
        <time>2018-08-06T06:06:00Z</time>
      </trkpt>
      <trkpt lat="45.89998" lon="6.18338">
        <ele>1266</ele>
        <time>2018-08-06T06:06:02Z</time>
      </trkpt>
      <trkpt lat="45.89997" lon="6.18342">
        <ele>1266</ele>
        <time>2018-08-06T06:06:04Z</time>
      </trkpt>
      <trkpt lat="45.89996" lon="6.18346">
        <ele>1266</ele>
        <time>2018-08-06T06:06:06Z</time>
      </trkpt>
      <trkpt lat="45.89996" lon="6.18349">
        <ele>1266</ele>
        <time>2018-08-06T06:06:08Z</time>
      </trkpt>
      <trkpt lat="45.89994" lon="6.18351">
        <ele>1266</ele>
        <time>2018-08-06T06:06:10Z</time>
      </trkpt>
      <trkpt lat="45.89991" lon="6.18356">
        <ele>1266</ele>
        <time>2018-08-06T06:06:15Z</time>
      </trkpt>
      <trkpt lat="45.89989" lon="6.18362">
        <ele>1267</ele>
        <time>2018-08-06T06:06:18Z</time>
      </trkpt>
      <trkpt lat="45.89987" lon="6.18364">
        <ele>1267</ele>
        <time>2018-08-06T06:06:20Z</time>
      </trkpt>
      <trkpt lat="45.89981" lon="6.1837">
        <ele>1267</ele>
        <time>2018-08-06T06:06:24Z</time>
      </trkpt>
      <trkpt lat="45.89978" lon="6.18373">
        <ele>1267</ele>
        <time>2018-08-06T06:06:26Z</time>
      </trkpt>
      <trkpt lat="45.89967" lon="6.18393">
        <ele>1268</ele>
        <time>2018-08-06T06:06:37Z</time>
      </trkpt>
      <trkpt lat="45.89965" lon="6.18395">
        <ele>1268</ele>
        <time>2018-08-06T06:06:42Z</time>
      </trkpt>
      <trkpt lat="45.89962" lon="6.18398">
        <ele>1268</ele>
        <time>2018-08-06T06:06:46Z</time>
      </trkpt>
      <trkpt lat="45.89957" lon="6.18402">
        <ele>1268</ele>
        <time>2018-08-06T06:06:53Z</time>
      </trkpt>
      <trkpt lat="45.89954" lon="6.18406">
        <ele>1268</ele>
        <time>2018-08-06T06:06:57Z</time>
      </trkpt>
      <trkpt lat="45.89951" lon="6.18408">
        <ele>1269</ele>
        <time>2018-08-06T06:07:00Z</time>
      </trkpt>
      <trkpt lat="45.89948" lon="6.1841">
        <ele>1269</ele>
        <time>2018-08-06T06:07:03Z</time>
      </trkpt>
      <trkpt lat="45.89946" lon="6.18414">
        <ele>1269</ele>
        <time>2018-08-06T06:07:05Z</time>
      </trkpt>
      <trkpt lat="45.89945" lon="6.18419">
        <ele>1269</ele>
        <time>2018-08-06T06:07:08Z</time>
      </trkpt>
      <trkpt lat="45.89943" lon="6.18422">
        <ele>1269</ele>
        <time>2018-08-06T06:07:11Z</time>
      </trkpt>
      <trkpt lat="45.89941" lon="6.18424">
        <ele>1269</ele>
        <time>2018-08-06T06:07:13Z</time>
      </trkpt>
      <trkpt lat="45.89938" lon="6.18427">
        <ele>1269</ele>
        <time>2018-08-06T06:07:16Z</time>
      </trkpt>
      <trkpt lat="45.8993" lon="6.18429">
        <ele>1269</ele>
        <time>2018-08-06T06:07:22Z</time>
      </trkpt>
      <trkpt lat="45.89925" lon="6.18432">
        <ele>1269</ele>
        <time>2018-08-06T06:07:26Z</time>
      </trkpt>
      <trkpt lat="45.89921" lon="6.18434">
        <ele>1269</ele>
        <time>2018-08-06T06:07:28Z</time>
      </trkpt>
      <trkpt lat="45.89915" lon="6.18438">
        <ele>1270</ele>
        <time>2018-08-06T06:07:32Z</time>
      </trkpt>
      <trkpt lat="45.89912" lon="6.18441">
        <ele>1270</ele>
        <time>2018-08-06T06:07:34Z</time>
      </trkpt>
      <trkpt lat="45.8991" lon="6.18446">
        <ele>1270</ele>
        <time>2018-08-06T06:07:36Z</time>
      </trkpt>
      <trkpt lat="45.89895" lon="6.18459">
        <ele>1270</ele>
        <time>2018-08-06T06:07:48Z</time>
      </trkpt>
      <trkpt lat="45.89892" lon="6.1846">
        <ele>1270</ele>
        <time>2018-08-06T06:07:51Z</time>
      </trkpt>
      <trkpt lat="45.89878" lon="6.18469">
        <ele>1270</ele>
        <time>2018-08-06T06:08:04Z</time>
      </trkpt>
      <trkpt lat="45.89876" lon="6.18474">
        <ele>1270</ele>
        <time>2018-08-06T06:08:08Z</time>
      </trkpt>
      <trkpt lat="45.89873" lon="6.18476">
        <ele>1270</ele>
        <time>2018-08-06T06:08:12Z</time>
      </trkpt>
      <trkpt lat="45.89871" lon="6.18479">
        <ele>1270</ele>
        <time>2018-08-06T06:08:17Z</time>
      </trkpt>
      <trkpt lat="45.89868" lon="6.18482">
        <ele>1271</ele>
        <time>2018-08-06T06:08:20Z</time>
      </trkpt>
      <trkpt lat="45.89864" lon="6.18484">
        <ele>1271</ele>
        <time>2018-08-06T06:08:23Z</time>
      </trkpt>
      <trkpt lat="45.89862" lon="6.18488">
        <ele>1271</ele>
        <time>2018-08-06T06:08:26Z</time>
      </trkpt>
      <trkpt lat="45.89859" lon="6.18491">
        <ele>1271</ele>
        <time>2018-08-06T06:08:29Z</time>
      </trkpt>
      <trkpt lat="45.89858" lon="6.18496">
        <ele>1271</ele>
        <time>2018-08-06T06:08:35Z</time>
      </trkpt>
      <trkpt lat="45.89852" lon="6.185">
        <ele>1271</ele>
        <time>2018-08-06T06:08:41Z</time>
      </trkpt>
      <trkpt lat="45.89845" lon="6.18502">
        <ele>1271</ele>
        <time>2018-08-06T06:08:48Z</time>
      </trkpt>
      <trkpt lat="45.89842" lon="6.18502">
        <ele>1271</ele>
        <time>2018-08-06T06:08:51Z</time>
      </trkpt>
      <trkpt lat="45.89839" lon="6.18503">
        <ele>1271</ele>
        <time>2018-08-06T06:08:54Z</time>
      </trkpt>
      <trkpt lat="45.89836" lon="6.18505">
        <ele>1271</ele>
        <time>2018-08-06T06:08:56Z</time>
      </trkpt>
      <trkpt lat="45.89834" lon="6.18508">
        <ele>1271</ele>
        <time>2018-08-06T06:08:58Z</time>
      </trkpt>
      <trkpt lat="45.89831" lon="6.18511">
        <ele>1271</ele>
        <time>2018-08-06T06:09:03Z</time>
      </trkpt>
      <trkpt lat="45.8983" lon="6.18514">
        <ele>1271</ele>
        <time>2018-08-06T06:09:06Z</time>
      </trkpt>
      <trkpt lat="45.89828" lon="6.18517">
        <ele>1271</ele>
        <time>2018-08-06T06:09:08Z</time>
      </trkpt>
      <trkpt lat="45.89825" lon="6.1852">
        <ele>1271</ele>
        <time>2018-08-06T06:09:11Z</time>
      </trkpt>
      <trkpt lat="45.89822" lon="6.18523">
        <ele>1271</ele>
        <time>2018-08-06T06:09:14Z</time>
      </trkpt>
      <trkpt lat="45.89819" lon="6.18524">
        <ele>1272</ele>
        <time>2018-08-06T06:09:17Z</time>
      </trkpt>
      <trkpt lat="45.89816" lon="6.18526">
        <ele>1272</ele>
        <time>2018-08-06T06:09:19Z</time>
      </trkpt>
      <trkpt lat="45.89806" lon="6.18532">
        <ele>1272</ele>
        <time>2018-08-06T06:09:29Z</time>
      </trkpt>
      <trkpt lat="45.89802" lon="6.18533">
        <ele>1272</ele>
        <time>2018-08-06T06:09:32Z</time>
      </trkpt>
      <trkpt lat="45.89795" lon="6.18536">
        <ele>1272</ele>
        <time>2018-08-06T06:09:40Z</time>
      </trkpt>
      <trkpt lat="45.89791" lon="6.18537">
        <ele>1272</ele>
        <time>2018-08-06T06:09:44Z</time>
      </trkpt>
      <trkpt lat="45.89778" lon="6.18542">
        <ele>1272</ele>
        <time>2018-08-06T06:09:55Z</time>
      </trkpt>
      <trkpt lat="45.89775" lon="6.18544">
        <ele>1273</ele>
        <time>2018-08-06T06:09:59Z</time>
      </trkpt>
      <trkpt lat="45.89772" lon="6.18546">
        <ele>1273</ele>
        <time>2018-08-06T06:10:01Z</time>
      </trkpt>
      <trkpt lat="45.89769" lon="6.18553">
        <ele>1273</ele>
        <time>2018-08-06T06:10:08Z</time>
      </trkpt>
      <trkpt lat="45.89766" lon="6.18554">
        <ele>1273</ele>
        <time>2018-08-06T06:10:11Z</time>
      </trkpt>
      <trkpt lat="45.89764" lon="6.18557">
        <ele>1273</ele>
        <time>2018-08-06T06:10:15Z</time>
      </trkpt>
      <trkpt lat="45.89762" lon="6.1856">
        <ele>1273</ele>
        <time>2018-08-06T06:10:17Z</time>
      </trkpt>
      <trkpt lat="45.89759" lon="6.18561">
        <ele>1273</ele>
        <time>2018-08-06T06:10:19Z</time>
      </trkpt>
      <trkpt lat="45.89757" lon="6.18563">
        <ele>1273</ele>
        <time>2018-08-06T06:10:21Z</time>
      </trkpt>
      <trkpt lat="45.89755" lon="6.18566">
        <ele>1273</ele>
        <time>2018-08-06T06:10:27Z</time>
      </trkpt>
      <trkpt lat="45.89751" lon="6.18567">
        <ele>1274</ele>
        <time>2018-08-06T06:10:33Z</time>
      </trkpt>
      <trkpt lat="45.89748" lon="6.18568">
        <ele>1274</ele>
        <time>2018-08-06T06:10:37Z</time>
      </trkpt>
      <trkpt lat="45.89745" lon="6.1857">
        <ele>1274</ele>
        <time>2018-08-06T06:10:39Z</time>
      </trkpt>
      <trkpt lat="45.89739" lon="6.18573">
        <ele>1274</ele>
        <time>2018-08-06T06:10:44Z</time>
      </trkpt>
      <trkpt lat="45.89734" lon="6.18575">
        <ele>1274</ele>
        <time>2018-08-06T06:10:47Z</time>
      </trkpt>
      <trkpt lat="45.89731" lon="6.18575">
        <ele>1274</ele>
        <time>2018-08-06T06:10:53Z</time>
      </trkpt>
      <trkpt lat="45.89728" lon="6.18574">
        <ele>1274</ele>
        <time>2018-08-06T06:10:56Z</time>
      </trkpt>
      <trkpt lat="45.89721" lon="6.1858">
        <ele>1275</ele>
        <time>2018-08-06T06:11:01Z</time>
      </trkpt>
      <trkpt lat="45.89711" lon="6.18583">
        <ele>1275</ele>
        <time>2018-08-06T06:11:05Z</time>
      </trkpt>
      <trkpt lat="45.89707" lon="6.18586">
        <ele>1275</ele>
        <time>2018-08-06T06:11:08Z</time>
      </trkpt>
      <trkpt lat="45.89705" lon="6.18589">
        <ele>1275</ele>
        <time>2018-08-06T06:11:11Z</time>
      </trkpt>
      <trkpt lat="45.89702" lon="6.1859">
        <ele>1275</ele>
        <time>2018-08-06T06:11:14Z</time>
      </trkpt>
      <trkpt lat="45.89699" lon="6.18594">
        <ele>1275</ele>
        <time>2018-08-06T06:11:17Z</time>
      </trkpt>
      <trkpt lat="45.89697" lon="6.18597">
        <ele>1275</ele>
        <time>2018-08-06T06:11:21Z</time>
      </trkpt>
      <trkpt lat="45.89695" lon="6.186">
        <ele>1276</ele>
        <time>2018-08-06T06:11:24Z</time>
      </trkpt>
      <trkpt lat="45.89693" lon="6.18605">
        <ele>1276</ele>
        <time>2018-08-06T06:11:30Z</time>
      </trkpt>
      <trkpt lat="45.89692" lon="6.18608">
        <ele>1276</ele>
        <time>2018-08-06T06:11:35Z</time>
      </trkpt>
      <trkpt lat="45.89688" lon="6.18609">
        <ele>1276</ele>
        <time>2018-08-06T06:11:38Z</time>
      </trkpt>
      <trkpt lat="45.89686" lon="6.18611">
        <ele>1276</ele>
        <time>2018-08-06T06:11:40Z</time>
      </trkpt>
      <trkpt lat="45.89685" lon="6.18618">
        <ele>1276</ele>
        <time>2018-08-06T06:11:45Z</time>
      </trkpt>
      <trkpt lat="45.89682" lon="6.18629">
        <ele>1277</ele>
        <time>2018-08-06T06:11:51Z</time>
      </trkpt>
      <trkpt lat="45.89679" lon="6.18639">
        <ele>1277</ele>
        <time>2018-08-06T06:11:57Z</time>
      </trkpt>
      <trkpt lat="45.89683" lon="6.18639">
        <ele>1277</ele>
        <time>2018-08-06T06:12:04Z</time>
      </trkpt>
      <trkpt lat="45.89685" lon="6.18637">
        <ele>1277</ele>
        <time>2018-08-06T06:12:08Z</time>
      </trkpt>
      <trkpt lat="45.89688" lon="6.18634">
        <ele>1277</ele>
        <time>2018-08-06T06:12:11Z</time>
      </trkpt>
      <trkpt lat="45.89691" lon="6.18632">
        <ele>1278</ele>
        <time>2018-08-06T06:12:15Z</time>
      </trkpt>
      <trkpt lat="45.89692" lon="6.18635">
        <ele>1278</ele>
        <time>2018-08-06T06:12:18Z</time>
      </trkpt>
      <trkpt lat="45.89691" lon="6.18638">
        <ele>1278</ele>
        <time>2018-08-06T06:12:21Z</time>
      </trkpt>
      <trkpt lat="45.8969" lon="6.18639">
        <ele>1278</ele>
        <time>2018-08-06T06:12:23Z</time>
      </trkpt>
      <trkpt lat="45.89686" lon="6.18646">
        <ele>1278</ele>
        <time>2018-08-06T06:12:29Z</time>
      </trkpt>
      <trkpt lat="45.89684" lon="6.18648">
        <ele>1278</ele>
        <time>2018-08-06T06:12:32Z</time>
      </trkpt>
      <trkpt lat="45.89683" lon="6.18654">
        <ele>1279</ele>
        <time>2018-08-06T06:12:38Z</time>
      </trkpt>
      <trkpt lat="45.89682" lon="6.18657">
        <ele>1279</ele>
        <time>2018-08-06T06:12:40Z</time>
      </trkpt>
      <trkpt lat="45.89684" lon="6.18659">
        <ele>1279</ele>
        <time>2018-08-06T06:12:51Z</time>
      </trkpt>
      <trkpt lat="45.89682" lon="6.18663">
        <ele>1279</ele>
        <time>2018-08-06T06:13:12Z</time>
      </trkpt>
      <trkpt lat="45.89681" lon="6.18661">
        <ele>1280</ele>
        <time>2018-08-06T06:13:52Z</time>
      </trkpt>
      <trkpt lat="45.89679" lon="6.18662">
        <ele>1280</ele>
        <time>2018-08-06T06:14:23Z</time>
      </trkpt>
      <trkpt lat="45.89677" lon="6.18662">
        <ele>1282</ele>
        <time>2018-08-06T06:14:48Z</time>
      </trkpt>
      <trkpt lat="45.8968" lon="6.18663">
        <ele>1282</ele>
        <time>2018-08-06T06:15:28Z</time>
      </trkpt>
      <trkpt lat="45.8968" lon="6.18668">
        <ele>1283</ele>
        <time>2018-08-06T06:15:51Z</time>
      </trkpt>
      <trkpt lat="45.8968" lon="6.18672">
        <ele>1284</ele>
        <time>2018-08-06T06:15:54Z</time>
      </trkpt>
      <trkpt lat="45.89681" lon="6.18676">
        <ele>1284</ele>
        <time>2018-08-06T06:15:58Z</time>
      </trkpt>
      <trkpt lat="45.89671" lon="6.18683">
        <ele>1285</ele>
        <time>2018-08-06T06:16:05Z</time>
      </trkpt>
      <trkpt lat="45.89669" lon="6.18684">
        <ele>1285</ele>
        <time>2018-08-06T06:16:08Z</time>
      </trkpt>
      <trkpt lat="45.89665" lon="6.18686">
        <ele>1286</ele>
        <time>2018-08-06T06:16:12Z</time>
      </trkpt>
      <trkpt lat="45.8966" lon="6.18691">
        <ele>1286</ele>
        <time>2018-08-06T06:16:19Z</time>
      </trkpt>
      <trkpt lat="45.89653" lon="6.18695">
        <ele>1286</ele>
        <time>2018-08-06T06:16:24Z</time>
      </trkpt>
      <trkpt lat="45.89638" lon="6.18697">
        <ele>1287</ele>
        <time>2018-08-06T06:16:33Z</time>
      </trkpt>
      <trkpt lat="45.89635" lon="6.18698">
        <ele>1287</ele>
        <time>2018-08-06T06:16:36Z</time>
      </trkpt>
      <trkpt lat="45.89632" lon="6.18701">
        <ele>1287</ele>
        <time>2018-08-06T06:16:41Z</time>
      </trkpt>
      <trkpt lat="45.89629" lon="6.18704">
        <ele>1287</ele>
        <time>2018-08-06T06:16:46Z</time>
      </trkpt>
      <trkpt lat="45.89624" lon="6.18709">
        <ele>1288</ele>
        <time>2018-08-06T06:16:56Z</time>
      </trkpt>
      <trkpt lat="45.89621" lon="6.18711">
        <ele>1288</ele>
        <time>2018-08-06T06:16:59Z</time>
      </trkpt>
      <trkpt lat="45.89618" lon="6.18714">
        <ele>1288</ele>
        <time>2018-08-06T06:17:02Z</time>
      </trkpt>
      <trkpt lat="45.89617" lon="6.18717">
        <ele>1288</ele>
        <time>2018-08-06T06:17:06Z</time>
      </trkpt>
      <trkpt lat="45.89615" lon="6.18721">
        <ele>1288</ele>
        <time>2018-08-06T06:17:11Z</time>
      </trkpt>
      <trkpt lat="45.89614" lon="6.18723">
        <ele>1288</ele>
        <time>2018-08-06T06:17:15Z</time>
      </trkpt>
      <trkpt lat="45.89612" lon="6.18725">
        <ele>1288</ele>
        <time>2018-08-06T06:17:17Z</time>
      </trkpt>
      <trkpt lat="45.8961" lon="6.18728">
        <ele>1288</ele>
        <time>2018-08-06T06:17:19Z</time>
      </trkpt>
      <trkpt lat="45.89608" lon="6.18729">
        <ele>1289</ele>
        <time>2018-08-06T06:17:21Z</time>
      </trkpt>
      <trkpt lat="45.89606" lon="6.1873">
        <ele>1289</ele>
        <time>2018-08-06T06:17:27Z</time>
      </trkpt>
      <trkpt lat="45.89604" lon="6.18727">
        <ele>1289</ele>
        <time>2018-08-06T06:17:33Z</time>
      </trkpt>
      <trkpt lat="45.896" lon="6.18728">
        <ele>1289</ele>
        <time>2018-08-06T06:17:37Z</time>
      </trkpt>
      <trkpt lat="45.89596" lon="6.18728">
        <ele>1289</ele>
        <time>2018-08-06T06:17:42Z</time>
      </trkpt>
      <trkpt lat="45.89591" lon="6.1873">
        <ele>1289</ele>
        <time>2018-08-06T06:17:45Z</time>
      </trkpt>
      <trkpt lat="45.89584" lon="6.18728">
        <ele>1289</ele>
        <time>2018-08-06T06:17:47Z</time>
      </trkpt>
      <trkpt lat="45.89573" lon="6.18738">
        <ele>1289</ele>
        <time>2018-08-06T06:17:54Z</time>
      </trkpt>
      <trkpt lat="45.89569" lon="6.18742">
        <ele>1289</ele>
        <time>2018-08-06T06:18:02Z</time>
      </trkpt>
      <trkpt lat="45.89568" lon="6.18745">
        <ele>1288</ele>
        <time>2018-08-06T06:18:05Z</time>
      </trkpt>
      <trkpt lat="45.89562" lon="6.1875">
        <ele>1288</ele>
        <time>2018-08-06T06:18:13Z</time>
      </trkpt>
      <trkpt lat="45.89558" lon="6.18754">
        <ele>1288</ele>
        <time>2018-08-06T06:18:15Z</time>
      </trkpt>
      <trkpt lat="45.89554" lon="6.18757">
        <ele>1288</ele>
        <time>2018-08-06T06:18:17Z</time>
      </trkpt>
      <trkpt lat="45.89547" lon="6.1876">
        <ele>1288</ele>
        <time>2018-08-06T06:18:20Z</time>
      </trkpt>
      <trkpt lat="45.89541" lon="6.18762">
        <ele>1288</ele>
        <time>2018-08-06T06:18:24Z</time>
      </trkpt>
      <trkpt lat="45.89537" lon="6.18761">
        <ele>1288</ele>
        <time>2018-08-06T06:18:26Z</time>
      </trkpt>
      <trkpt lat="45.89534" lon="6.1876">
        <ele>1288</ele>
        <time>2018-08-06T06:18:31Z</time>
      </trkpt>
      <trkpt lat="45.89525" lon="6.18757">
        <ele>1287</ele>
        <time>2018-08-06T06:18:39Z</time>
      </trkpt>
      <trkpt lat="45.89521" lon="6.18757">
        <ele>1287</ele>
        <time>2018-08-06T06:18:42Z</time>
      </trkpt>
      <trkpt lat="45.89517" lon="6.18757">
        <ele>1287</ele>
        <time>2018-08-06T06:18:46Z</time>
      </trkpt>
      <trkpt lat="45.89514" lon="6.18759">
        <ele>1287</ele>
        <time>2018-08-06T06:18:50Z</time>
      </trkpt>
      <trkpt lat="45.89512" lon="6.1876">
        <ele>1287</ele>
        <time>2018-08-06T06:18:53Z</time>
      </trkpt>
      <trkpt lat="45.8951" lon="6.18762">
        <ele>1287</ele>
        <time>2018-08-06T06:18:56Z</time>
      </trkpt>
      <trkpt lat="45.89507" lon="6.18764">
        <ele>1287</ele>
        <time>2018-08-06T06:18:59Z</time>
      </trkpt>
      <trkpt lat="45.89505" lon="6.18764">
        <ele>1287</ele>
        <time>2018-08-06T06:19:02Z</time>
      </trkpt>
      <trkpt lat="45.89503" lon="6.18765">
        <ele>1287</ele>
        <time>2018-08-06T06:19:04Z</time>
      </trkpt>
      <trkpt lat="45.89501" lon="6.18764">
        <ele>1286</ele>
        <time>2018-08-06T06:19:08Z</time>
      </trkpt>
      <trkpt lat="45.89498" lon="6.18765">
        <ele>1286</ele>
        <time>2018-08-06T06:19:13Z</time>
      </trkpt>
      <trkpt lat="45.89496" lon="6.18767">
        <ele>1286</ele>
        <time>2018-08-06T06:19:16Z</time>
      </trkpt>
      <trkpt lat="45.89495" lon="6.18769">
        <ele>1286</ele>
        <time>2018-08-06T06:19:21Z</time>
      </trkpt>
      <trkpt lat="45.89495" lon="6.18772">
        <ele>1286</ele>
        <time>2018-08-06T06:19:25Z</time>
      </trkpt>
      <trkpt lat="45.89492" lon="6.18773">
        <ele>1286</ele>
        <time>2018-08-06T06:19:28Z</time>
      </trkpt>
      <trkpt lat="45.8949" lon="6.18776">
        <ele>1285</ele>
        <time>2018-08-06T06:19:34Z</time>
      </trkpt>
      <trkpt lat="45.89487" lon="6.18778">
        <ele>1285</ele>
        <time>2018-08-06T06:19:38Z</time>
      </trkpt>
      <trkpt lat="45.89486" lon="6.1878">
        <ele>1285</ele>
        <time>2018-08-06T06:19:40Z</time>
      </trkpt>
      <trkpt lat="45.89484" lon="6.18782">
        <ele>1285</ele>
        <time>2018-08-06T06:19:46Z</time>
      </trkpt>
      <trkpt lat="45.89482" lon="6.18786">
        <ele>1284</ele>
        <time>2018-08-06T06:19:53Z</time>
      </trkpt>
      <trkpt lat="45.8948" lon="6.18788">
        <ele>1284</ele>
        <time>2018-08-06T06:19:55Z</time>
      </trkpt>
      <trkpt lat="45.89473" lon="6.1879">
        <ele>1283</ele>
        <time>2018-08-06T06:20:03Z</time>
      </trkpt>
      <trkpt lat="45.8947" lon="6.1879">
        <ele>1283</ele>
        <time>2018-08-06T06:20:08Z</time>
      </trkpt>
      <trkpt lat="45.89464" lon="6.18797">
        <ele>1282</ele>
        <time>2018-08-06T06:20:22Z</time>
      </trkpt>
      <trkpt lat="45.89457" lon="6.18799">
        <ele>1282</ele>
        <time>2018-08-06T06:20:28Z</time>
      </trkpt>
      <trkpt lat="45.89446" lon="6.18805">
        <ele>1281</ele>
        <time>2018-08-06T06:20:37Z</time>
      </trkpt>
      <trkpt lat="45.8944" lon="6.18807">
        <ele>1281</ele>
        <time>2018-08-06T06:20:41Z</time>
      </trkpt>
      <trkpt lat="45.89436" lon="6.18807">
        <ele>1281</ele>
        <time>2018-08-06T06:20:45Z</time>
      </trkpt>
      <trkpt lat="45.89429" lon="6.18811">
        <ele>1281</ele>
        <time>2018-08-06T06:20:53Z</time>
      </trkpt>
      <trkpt lat="45.89424" lon="6.18813">
        <ele>1280</ele>
        <time>2018-08-06T06:20:56Z</time>
      </trkpt>
      <trkpt lat="45.8942" lon="6.18815">
        <ele>1280</ele>
        <time>2018-08-06T06:21:01Z</time>
      </trkpt>
      <trkpt lat="45.89417" lon="6.18818">
        <ele>1280</ele>
        <time>2018-08-06T06:21:06Z</time>
      </trkpt>
      <trkpt lat="45.89415" lon="6.18822">
        <ele>1280</ele>
        <time>2018-08-06T06:21:10Z</time>
      </trkpt>
      <trkpt lat="45.89411" lon="6.18824">
        <ele>1280</ele>
        <time>2018-08-06T06:21:13Z</time>
      </trkpt>
      <trkpt lat="45.89405" lon="6.18826">
        <ele>1280</ele>
        <time>2018-08-06T06:21:17Z</time>
      </trkpt>
      <trkpt lat="45.89401" lon="6.18829">
        <ele>1280</ele>
        <time>2018-08-06T06:21:20Z</time>
      </trkpt>
      <trkpt lat="45.89393" lon="6.18832">
        <ele>1280</ele>
        <time>2018-08-06T06:21:25Z</time>
      </trkpt>
      <trkpt lat="45.89389" lon="6.18834">
        <ele>1279</ele>
        <time>2018-08-06T06:21:27Z</time>
      </trkpt>
      <trkpt lat="45.89385" lon="6.18834">
        <ele>1279</ele>
        <time>2018-08-06T06:21:29Z</time>
      </trkpt>
      <trkpt lat="45.8938" lon="6.18836">
        <ele>1279</ele>
        <time>2018-08-06T06:21:33Z</time>
      </trkpt>
      <trkpt lat="45.89376" lon="6.18838">
        <ele>1279</ele>
        <time>2018-08-06T06:21:36Z</time>
      </trkpt>
      <trkpt lat="45.89373" lon="6.18839">
        <ele>1279</ele>
        <time>2018-08-06T06:21:38Z</time>
      </trkpt>
      <trkpt lat="45.89369" lon="6.18842">
        <ele>1279</ele>
        <time>2018-08-06T06:21:41Z</time>
      </trkpt>
      <trkpt lat="45.89366" lon="6.18847">
        <ele>1279</ele>
        <time>2018-08-06T06:21:45Z</time>
      </trkpt>
      <trkpt lat="45.8935" lon="6.1885">
        <ele>1278</ele>
        <time>2018-08-06T06:21:55Z</time>
      </trkpt>
      <trkpt lat="45.89341" lon="6.18854">
        <ele>1278</ele>
        <time>2018-08-06T06:22:01Z</time>
      </trkpt>
      <trkpt lat="45.89337" lon="6.18859">
        <ele>1278</ele>
        <time>2018-08-06T06:22:04Z</time>
      </trkpt>
      <trkpt lat="45.89332" lon="6.18859">
        <ele>1278</ele>
        <time>2018-08-06T06:22:07Z</time>
      </trkpt>
      <trkpt lat="45.89329" lon="6.18863">
        <ele>1278</ele>
        <time>2018-08-06T06:22:15Z</time>
      </trkpt>
      <trkpt lat="45.89325" lon="6.18864">
        <ele>1278</ele>
        <time>2018-08-06T06:22:18Z</time>
      </trkpt>
      <trkpt lat="45.8932" lon="6.18867">
        <ele>1277</ele>
        <time>2018-08-06T06:22:21Z</time>
      </trkpt>
      <trkpt lat="45.89317" lon="6.18869">
        <ele>1277</ele>
        <time>2018-08-06T06:22:23Z</time>
      </trkpt>
      <trkpt lat="45.89314" lon="6.18872">
        <ele>1277</ele>
        <time>2018-08-06T06:22:25Z</time>
      </trkpt>
      <trkpt lat="45.8931" lon="6.18874">
        <ele>1277</ele>
        <time>2018-08-06T06:22:27Z</time>
      </trkpt>
      <trkpt lat="45.89305" lon="6.18876">
        <ele>1277</ele>
        <time>2018-08-06T06:22:30Z</time>
      </trkpt>
      <trkpt lat="45.89301" lon="6.18879">
        <ele>1277</ele>
        <time>2018-08-06T06:22:33Z</time>
      </trkpt>
      <trkpt lat="45.89289" lon="6.18883">
        <ele>1276</ele>
        <time>2018-08-06T06:22:43Z</time>
      </trkpt>
      <trkpt lat="45.89286" lon="6.18885">
        <ele>1276</ele>
        <time>2018-08-06T06:22:46Z</time>
      </trkpt>
      <trkpt lat="45.89282" lon="6.18887">
        <ele>1276</ele>
        <time>2018-08-06T06:22:51Z</time>
      </trkpt>
      <trkpt lat="45.89279" lon="6.18889">
        <ele>1275</ele>
        <time>2018-08-06T06:22:59Z</time>
      </trkpt>
      <trkpt lat="45.89275" lon="6.1889">
        <ele>1275</ele>
        <time>2018-08-06T06:23:04Z</time>
      </trkpt>
      <trkpt lat="45.89272" lon="6.18892">
        <ele>1275</ele>
        <time>2018-08-06T06:23:09Z</time>
      </trkpt>
      <trkpt lat="45.89268" lon="6.18893">
        <ele>1275</ele>
        <time>2018-08-06T06:23:15Z</time>
      </trkpt>
      <trkpt lat="45.89263" lon="6.18891">
        <ele>1274</ele>
        <time>2018-08-06T06:23:19Z</time>
      </trkpt>
      <trkpt lat="45.8926" lon="6.18892">
        <ele>1274</ele>
        <time>2018-08-06T06:23:22Z</time>
      </trkpt>
      <trkpt lat="45.89255" lon="6.18893">
        <ele>1274</ele>
        <time>2018-08-06T06:23:25Z</time>
      </trkpt>
      <trkpt lat="45.89249" lon="6.18894">
        <ele>1274</ele>
        <time>2018-08-06T06:23:29Z</time>
      </trkpt>
      <trkpt lat="45.89242" lon="6.18903">
        <ele>1273</ele>
        <time>2018-08-06T06:23:34Z</time>
      </trkpt>
      <trkpt lat="45.89238" lon="6.18911">
        <ele>1273</ele>
        <time>2018-08-06T06:23:39Z</time>
      </trkpt>
      <trkpt lat="45.89227" lon="6.18914">
        <ele>1273</ele>
        <time>2018-08-06T06:23:47Z</time>
      </trkpt>
      <trkpt lat="45.89224" lon="6.18915">
        <ele>1273</ele>
        <time>2018-08-06T06:23:49Z</time>
      </trkpt>
      <trkpt lat="45.89221" lon="6.18917">
        <ele>1273</ele>
        <time>2018-08-06T06:23:51Z</time>
      </trkpt>
      <trkpt lat="45.89207" lon="6.18927">
        <ele>1272</ele>
        <time>2018-08-06T06:24:02Z</time>
      </trkpt>
      <trkpt lat="45.89205" lon="6.18929">
        <ele>1272</ele>
        <time>2018-08-06T06:24:04Z</time>
      </trkpt>
      <trkpt lat="45.89203" lon="6.18933">
        <ele>1271</ele>
        <time>2018-08-06T06:24:20Z</time>
      </trkpt>
      <trkpt lat="45.89201" lon="6.18932">
        <ele>1269</ele>
        <time>2018-08-06T06:26:43Z</time>
      </trkpt>
      <trkpt lat="45.89199" lon="6.18933">
        <ele>1269</ele>
        <time>2018-08-06T06:26:52Z</time>
      </trkpt>
      <trkpt lat="45.89198" lon="6.18932">
        <ele>1265</ele>
        <time>2018-08-06T06:27:13Z</time>
      </trkpt>
      <trkpt lat="45.89196" lon="6.18929">
        <ele>1264</ele>
        <time>2018-08-06T06:27:15Z</time>
      </trkpt>
      <trkpt lat="45.89194" lon="6.18926">
        <ele>1264</ele>
        <time>2018-08-06T06:27:17Z</time>
      </trkpt>
      <trkpt lat="45.89193" lon="6.18921">
        <ele>1264</ele>
        <time>2018-08-06T06:27:20Z</time>
      </trkpt>
      <trkpt lat="45.89188" lon="6.18915">
        <ele>1263</ele>
        <time>2018-08-06T06:27:26Z</time>
      </trkpt>
      <trkpt lat="45.89185" lon="6.18912">
        <ele>1263</ele>
        <time>2018-08-06T06:27:30Z</time>
      </trkpt>
      <trkpt lat="45.89182" lon="6.18914">
        <ele>1263</ele>
        <time>2018-08-06T06:27:32Z</time>
      </trkpt>
      <trkpt lat="45.8918" lon="6.18916">
        <ele>1263</ele>
        <time>2018-08-06T06:27:34Z</time>
      </trkpt>
      <trkpt lat="45.89178" lon="6.18919">
        <ele>1262</ele>
        <time>2018-08-06T06:27:38Z</time>
      </trkpt>
      <trkpt lat="45.89171" lon="6.18921">
        <ele>1262</ele>
        <time>2018-08-06T06:27:43Z</time>
      </trkpt>
      <trkpt lat="45.89166" lon="6.18922">
        <ele>1262</ele>
        <time>2018-08-06T06:27:49Z</time>
      </trkpt>
      <trkpt lat="45.8916" lon="6.18923">
        <ele>1261</ele>
        <time>2018-08-06T06:27:53Z</time>
      </trkpt>
      <trkpt lat="45.89151" lon="6.18927">
        <ele>1261</ele>
        <time>2018-08-06T06:27:59Z</time>
      </trkpt>
      <trkpt lat="45.89148" lon="6.1893">
        <ele>1261</ele>
        <time>2018-08-06T06:28:01Z</time>
      </trkpt>
      <trkpt lat="45.89145" lon="6.18932">
        <ele>1261</ele>
        <time>2018-08-06T06:28:04Z</time>
      </trkpt>
      <trkpt lat="45.89142" lon="6.18934">
        <ele>1261</ele>
        <time>2018-08-06T06:28:07Z</time>
      </trkpt>
      <trkpt lat="45.89139" lon="6.18934">
        <ele>1260</ele>
        <time>2018-08-06T06:28:09Z</time>
      </trkpt>
      <trkpt lat="45.89138" lon="6.18935">
        <ele>1260</ele>
        <time>2018-08-06T06:28:11Z</time>
      </trkpt>
      <trkpt lat="45.89134" lon="6.18939">
        <ele>1260</ele>
        <time>2018-08-06T06:28:15Z</time>
      </trkpt>
      <trkpt lat="45.89122" lon="6.18943">
        <ele>1260</ele>
        <time>2018-08-06T06:28:21Z</time>
      </trkpt>
      <trkpt lat="45.89119" lon="6.18945">
        <ele>1260</ele>
        <time>2018-08-06T06:28:23Z</time>
      </trkpt>
      <trkpt lat="45.89116" lon="6.18945">
        <ele>1259</ele>
        <time>2018-08-06T06:28:25Z</time>
      </trkpt>
      <trkpt lat="45.89114" lon="6.18947">
        <ele>1259</ele>
        <time>2018-08-06T06:28:27Z</time>
      </trkpt>
      <trkpt lat="45.89108" lon="6.18951">
        <ele>1259</ele>
        <time>2018-08-06T06:28:32Z</time>
      </trkpt>
      <trkpt lat="45.89106" lon="6.18951">
        <ele>1259</ele>
        <time>2018-08-06T06:28:34Z</time>
      </trkpt>
      <trkpt lat="45.89103" lon="6.18953">
        <ele>1259</ele>
        <time>2018-08-06T06:28:39Z</time>
      </trkpt>
      <trkpt lat="45.89101" lon="6.18956">
        <ele>1258</ele>
        <time>2018-08-06T06:28:45Z</time>
      </trkpt>
      <trkpt lat="45.89098" lon="6.18957">
        <ele>1258</ele>
        <time>2018-08-06T06:28:51Z</time>
      </trkpt>
      <trkpt lat="45.89098" lon="6.18961">
        <ele>1258</ele>
        <time>2018-08-06T06:28:56Z</time>
      </trkpt>
      <trkpt lat="45.89097" lon="6.18968">
        <ele>1257</ele>
        <time>2018-08-06T06:29:05Z</time>
      </trkpt>
      <trkpt lat="45.89093" lon="6.18975">
        <ele>1256</ele>
        <time>2018-08-06T06:29:14Z</time>
      </trkpt>
      <trkpt lat="45.89091" lon="6.18978">
        <ele>1256</ele>
        <time>2018-08-06T06:29:19Z</time>
      </trkpt>
      <trkpt lat="45.89089" lon="6.18984">
        <ele>1256</ele>
        <time>2018-08-06T06:29:24Z</time>
      </trkpt>
      <trkpt lat="45.89085" lon="6.18989">
        <ele>1255</ele>
        <time>2018-08-06T06:29:30Z</time>
      </trkpt>
      <trkpt lat="45.89083" lon="6.18992">
        <ele>1255</ele>
        <time>2018-08-06T06:29:34Z</time>
      </trkpt>
      <trkpt lat="45.89081" lon="6.18997">
        <ele>1254</ele>
        <time>2018-08-06T06:29:44Z</time>
      </trkpt>
      <trkpt lat="45.8908" lon="6.19001">
        <ele>1254</ele>
        <time>2018-08-06T06:29:47Z</time>
      </trkpt>
      <trkpt lat="45.89078" lon="6.19002">
        <ele>1254</ele>
        <time>2018-08-06T06:29:50Z</time>
      </trkpt>
      <trkpt lat="45.89077" lon="6.19004">
        <ele>1253</ele>
        <time>2018-08-06T06:29:52Z</time>
      </trkpt>
      <trkpt lat="45.89075" lon="6.19007">
        <ele>1253</ele>
        <time>2018-08-06T06:29:55Z</time>
      </trkpt>
      <trkpt lat="45.89076" lon="6.19009">
        <ele>1253</ele>
        <time>2018-08-06T06:29:58Z</time>
      </trkpt>
      <trkpt lat="45.89075" lon="6.19012">
        <ele>1252</ele>
        <time>2018-08-06T06:30:02Z</time>
      </trkpt>
      <trkpt lat="45.89073" lon="6.19013">
        <ele>1252</ele>
        <time>2018-08-06T06:30:06Z</time>
      </trkpt>
      <trkpt lat="45.89072" lon="6.19015">
        <ele>1252</ele>
        <time>2018-08-06T06:30:09Z</time>
      </trkpt>
      <trkpt lat="45.8907" lon="6.19015">
        <ele>1251</ele>
        <time>2018-08-06T06:30:11Z</time>
      </trkpt>
      <trkpt lat="45.89072" lon="6.19022">
        <ele>1250</ele>
        <time>2018-08-06T06:30:19Z</time>
      </trkpt>
      <trkpt lat="45.89071" lon="6.19024">
        <ele>1250</ele>
        <time>2018-08-06T06:30:22Z</time>
      </trkpt>
      <trkpt lat="45.89068" lon="6.19025">
        <ele>1250</ele>
        <time>2018-08-06T06:30:25Z</time>
      </trkpt>
      <trkpt lat="45.89067" lon="6.19024">
        <ele>1249</ele>
        <time>2018-08-06T06:30:33Z</time>
      </trkpt>
      <trkpt lat="45.89065" lon="6.19022">
        <ele>1248</ele>
        <time>2018-08-06T06:30:36Z</time>
      </trkpt>
      <trkpt lat="45.89063" lon="6.19023">
        <ele>1247</ele>
        <time>2018-08-06T06:30:41Z</time>
      </trkpt>
      <trkpt lat="45.8906" lon="6.19026">
        <ele>1246</ele>
        <time>2018-08-06T06:30:44Z</time>
      </trkpt>
      <trkpt lat="45.89059" lon="6.19029">
        <ele>1246</ele>
        <time>2018-08-06T06:30:50Z</time>
      </trkpt>
      <trkpt lat="45.8906" lon="6.19034">
        <ele>1245</ele>
        <time>2018-08-06T06:30:54Z</time>
      </trkpt>
      <trkpt lat="45.89061" lon="6.19044">
        <ele>1243</ele>
        <time>2018-08-06T06:31:05Z</time>
      </trkpt>
      <trkpt lat="45.89063" lon="6.19049">
        <ele>1243</ele>
        <time>2018-08-06T06:31:11Z</time>
      </trkpt>
      <trkpt lat="45.89065" lon="6.19054">
        <ele>1242</ele>
        <time>2018-08-06T06:31:19Z</time>
      </trkpt>
      <trkpt lat="45.89064" lon="6.19059">
        <ele>1241</ele>
        <time>2018-08-06T06:31:24Z</time>
      </trkpt>
      <trkpt lat="45.89067" lon="6.19065">
        <ele>1240</ele>
        <time>2018-08-06T06:31:31Z</time>
      </trkpt>
      <trkpt lat="45.89068" lon="6.1907">
        <ele>1239</ele>
        <time>2018-08-06T06:31:34Z</time>
      </trkpt>
      <trkpt lat="45.8907" lon="6.19075">
        <ele>1239</ele>
        <time>2018-08-06T06:31:37Z</time>
      </trkpt>
      <trkpt lat="45.89086" lon="6.19085">
        <ele>1237</ele>
        <time>2018-08-06T06:31:54Z</time>
      </trkpt>
      <trkpt lat="45.89099" lon="6.19086">
        <ele>1235</ele>
        <time>2018-08-06T06:32:04Z</time>
      </trkpt>
      <trkpt lat="45.89104" lon="6.19092">
        <ele>1235</ele>
        <time>2018-08-06T06:32:11Z</time>
      </trkpt>
      <trkpt lat="45.89106" lon="6.19098">
        <ele>1234</ele>
        <time>2018-08-06T06:32:18Z</time>
      </trkpt>
      <trkpt lat="45.89107" lon="6.19104">
        <ele>1233</ele>
        <time>2018-08-06T06:32:23Z</time>
      </trkpt>
      <trkpt lat="45.89105" lon="6.19108">
        <ele>1232</ele>
        <time>2018-08-06T06:32:30Z</time>
      </trkpt>
      <trkpt lat="45.89101" lon="6.1911">
        <ele>1230</ele>
        <time>2018-08-06T06:32:40Z</time>
      </trkpt>
      <trkpt lat="45.89102" lon="6.19116">
        <ele>1229</ele>
        <time>2018-08-06T06:32:51Z</time>
      </trkpt>
      <trkpt lat="45.89099" lon="6.1912">
        <ele>1228</ele>
        <time>2018-08-06T06:32:58Z</time>
      </trkpt>
      <trkpt lat="45.89096" lon="6.19122">
        <ele>1226</ele>
        <time>2018-08-06T06:33:04Z</time>
      </trkpt>
      <trkpt lat="45.89092" lon="6.19126">
        <ele>1225</ele>
        <time>2018-08-06T06:33:12Z</time>
      </trkpt>
      <trkpt lat="45.89096" lon="6.19128">
        <ele>1224</ele>
        <time>2018-08-06T06:33:24Z</time>
      </trkpt>
      <trkpt lat="45.89095" lon="6.19134">
        <ele>1223</ele>
        <time>2018-08-06T06:33:31Z</time>
      </trkpt>
      <trkpt lat="45.89091" lon="6.19137">
        <ele>1222</ele>
        <time>2018-08-06T06:33:36Z</time>
      </trkpt>
      <trkpt lat="45.89089" lon="6.19141">
        <ele>1221</ele>
        <time>2018-08-06T06:33:40Z</time>
      </trkpt>
      <trkpt lat="45.89085" lon="6.19143">
        <ele>1219</ele>
        <time>2018-08-06T06:33:45Z</time>
      </trkpt>
      <trkpt lat="45.89081" lon="6.19145">
        <ele>1219</ele>
        <time>2018-08-06T06:33:50Z</time>
      </trkpt>
      <trkpt lat="45.89076" lon="6.19144">
        <ele>1218</ele>
        <time>2018-08-06T06:33:56Z</time>
      </trkpt>
      <trkpt lat="45.89071" lon="6.19147">
        <ele>1216</ele>
        <time>2018-08-06T06:34:01Z</time>
      </trkpt>
      <trkpt lat="45.8907" lon="6.19154">
        <ele>1214</ele>
        <time>2018-08-06T06:34:12Z</time>
      </trkpt>
      <trkpt lat="45.89066" lon="6.19153">
        <ele>1212</ele>
        <time>2018-08-06T06:34:26Z</time>
      </trkpt>
      <trkpt lat="45.89062" lon="6.19152">
        <ele>1210</ele>
        <time>2018-08-06T06:34:32Z</time>
      </trkpt>
      <trkpt lat="45.89052" lon="6.19159">
        <ele>1208</ele>
        <time>2018-08-06T06:34:41Z</time>
      </trkpt>
      <trkpt lat="45.89047" lon="6.19161">
        <ele>1207</ele>
        <time>2018-08-06T06:34:45Z</time>
      </trkpt>
      <trkpt lat="45.89041" lon="6.19161">
        <ele>1205</ele>
        <time>2018-08-06T06:34:53Z</time>
      </trkpt>
      <trkpt lat="45.89037" lon="6.19161">
        <ele>1204</ele>
        <time>2018-08-06T06:34:59Z</time>
      </trkpt>
      <trkpt lat="45.89025" lon="6.19156">
        <ele>1202</ele>
        <time>2018-08-06T06:35:08Z</time>
      </trkpt>
      <trkpt lat="45.89019" lon="6.19155">
        <ele>1201</ele>
        <time>2018-08-06T06:35:13Z</time>
      </trkpt>
      <trkpt lat="45.89014" lon="6.19157">
        <ele>1199</ele>
        <time>2018-08-06T06:35:21Z</time>
      </trkpt>
      <trkpt lat="45.8901" lon="6.19164">
        <ele>1198</ele>
        <time>2018-08-06T06:35:35Z</time>
      </trkpt>
      <trkpt lat="45.89004" lon="6.19165">
        <ele>1195</ele>
        <time>2018-08-06T06:35:41Z</time>
      </trkpt>
      <trkpt lat="45.88998" lon="6.19163">
        <ele>1194</ele>
        <time>2018-08-06T06:35:47Z</time>
      </trkpt>
      <trkpt lat="45.88996" lon="6.19168">
        <ele>1191</ele>
        <time>2018-08-06T06:36:03Z</time>
      </trkpt>
      <trkpt lat="45.88985" lon="6.19165">
        <ele>1189</ele>
        <time>2018-08-06T06:36:13Z</time>
      </trkpt>
      <trkpt lat="45.8898" lon="6.19163">
        <ele>1188</ele>
        <time>2018-08-06T06:36:16Z</time>
      </trkpt>
      <trkpt lat="45.88967" lon="6.19165">
        <ele>1186</ele>
        <time>2018-08-06T06:36:24Z</time>
      </trkpt>
      <trkpt lat="45.88961" lon="6.19162">
        <ele>1185</ele>
        <time>2018-08-06T06:36:28Z</time>
      </trkpt>
      <trkpt lat="45.88954" lon="6.19149">
        <ele>1184</ele>
        <time>2018-08-06T06:36:38Z</time>
      </trkpt>
      <trkpt lat="45.88947" lon="6.19143">
        <ele>1183</ele>
        <time>2018-08-06T06:36:42Z</time>
      </trkpt>
      <trkpt lat="45.88931" lon="6.19137">
        <ele>1181</ele>
        <time>2018-08-06T06:36:54Z</time>
      </trkpt>
      <trkpt lat="45.88926" lon="6.19133">
        <ele>1181</ele>
        <time>2018-08-06T06:36:59Z</time>
      </trkpt>
      <trkpt lat="45.88921" lon="6.19126">
        <ele>1179</ele>
        <time>2018-08-06T06:37:03Z</time>
      </trkpt>
      <trkpt lat="45.88915" lon="6.19121">
        <ele>1178</ele>
        <time>2018-08-06T06:37:06Z</time>
      </trkpt>
      <trkpt lat="45.88911" lon="6.19115">
        <ele>1177</ele>
        <time>2018-08-06T06:37:09Z</time>
      </trkpt>
      <trkpt lat="45.88907" lon="6.19086">
        <ele>1173</ele>
        <time>2018-08-06T06:37:16Z</time>
      </trkpt>
      <trkpt lat="45.88905" lon="6.19078">
        <ele>1172</ele>
        <time>2018-08-06T06:37:19Z</time>
      </trkpt>
      <trkpt lat="45.88903" lon="6.1907">
        <ele>1170</ele>
        <time>2018-08-06T06:37:22Z</time>
      </trkpt>
      <trkpt lat="45.88898" lon="6.19065">
        <ele>1169</ele>
        <time>2018-08-06T06:37:26Z</time>
      </trkpt>
      <trkpt lat="45.8889" lon="6.19052">
        <ele>1165</ele>
        <time>2018-08-06T06:37:32Z</time>
      </trkpt>
      <trkpt lat="45.88884" lon="6.19047">
        <ele>1162</ele>
        <time>2018-08-06T06:37:36Z</time>
      </trkpt>
      <trkpt lat="45.88877" lon="6.19041">
        <ele>1158</ele>
        <time>2018-08-06T06:37:41Z</time>
      </trkpt>
      <trkpt lat="45.88873" lon="6.19039">
        <ele>1155</ele>
        <time>2018-08-06T06:37:45Z</time>
      </trkpt>
      <trkpt lat="45.88868" lon="6.19035">
        <ele>1153</ele>
        <time>2018-08-06T06:37:48Z</time>
      </trkpt>
      <trkpt lat="45.88865" lon="6.19031">
        <ele>1150</ele>
        <time>2018-08-06T06:37:51Z</time>
      </trkpt>
      <trkpt lat="45.88864" lon="6.19025">
        <ele>1148</ele>
        <time>2018-08-06T06:37:53Z</time>
      </trkpt>
      <trkpt lat="45.88864" lon="6.1902">
        <ele>1147</ele>
        <time>2018-08-06T06:37:55Z</time>
      </trkpt>
      <trkpt lat="45.88865" lon="6.19013">
        <ele>1144</ele>
        <time>2018-08-06T06:37:59Z</time>
      </trkpt>
      <trkpt lat="45.88864" lon="6.19007">
        <ele>1142</ele>
        <time>2018-08-06T06:38:03Z</time>
      </trkpt>
      <trkpt lat="45.88866" lon="6.19002">
        <ele>1138</ele>
        <time>2018-08-06T06:38:08Z</time>
      </trkpt>
      <trkpt lat="45.88867" lon="6.18997">
        <ele>1135</ele>
        <time>2018-08-06T06:38:16Z</time>
      </trkpt>
      <trkpt lat="45.88867" lon="6.18984">
        <ele>1130</ele>
        <time>2018-08-06T06:38:25Z</time>
      </trkpt>
      <trkpt lat="45.88869" lon="6.1898">
        <ele>1128</ele>
        <time>2018-08-06T06:38:28Z</time>
      </trkpt>
      <trkpt lat="45.88869" lon="6.18975">
        <ele>1126</ele>
        <time>2018-08-06T06:38:33Z</time>
      </trkpt>
      <trkpt lat="45.88865" lon="6.18976">
        <ele>1124</ele>
        <time>2018-08-06T06:38:38Z</time>
      </trkpt>
      <trkpt lat="45.88861" lon="6.18976">
        <ele>1120</ele>
        <time>2018-08-06T06:38:43Z</time>
      </trkpt>
      <trkpt lat="45.88858" lon="6.18979">
        <ele>1118</ele>
        <time>2018-08-06T06:38:49Z</time>
      </trkpt>
      <trkpt lat="45.88853" lon="6.18982">
        <ele>1115</ele>
        <time>2018-08-06T06:38:54Z</time>
      </trkpt>
      <trkpt lat="45.8885" lon="6.18986">
        <ele>1114</ele>
        <time>2018-08-06T06:38:56Z</time>
      </trkpt>
      <trkpt lat="45.8884" lon="6.18999">
        <ele>1111</ele>
        <time>2018-08-06T06:39:02Z</time>
      </trkpt>
      <trkpt lat="45.88839" lon="6.19001">
        <ele>1108</ele>
        <time>2018-08-06T06:39:13Z</time>
      </trkpt>
      <trkpt lat="45.88839" lon="6.18994">
        <ele>1107</ele>
        <time>2018-08-06T06:39:16Z</time>
      </trkpt>
      <trkpt lat="45.88838" lon="6.18986">
        <ele>1104</ele>
        <time>2018-08-06T06:39:19Z</time>
      </trkpt>
      <trkpt lat="45.88838" lon="6.1898">
        <ele>1103</ele>
        <time>2018-08-06T06:39:22Z</time>
      </trkpt>
      <trkpt lat="45.88837" lon="6.18974">
        <ele>1102</ele>
        <time>2018-08-06T06:39:25Z</time>
      </trkpt>
      <trkpt lat="45.88837" lon="6.18967">
        <ele>1101</ele>
        <time>2018-08-06T06:39:28Z</time>
      </trkpt>
      <trkpt lat="45.88842" lon="6.1895">
        <ele>1098</ele>
        <time>2018-08-06T06:39:40Z</time>
      </trkpt>
      <trkpt lat="45.88842" lon="6.18941">
        <ele>1097</ele>
        <time>2018-08-06T06:39:42Z</time>
      </trkpt>
      <trkpt lat="45.88842" lon="6.18933">
        <ele>1096</ele>
        <time>2018-08-06T06:39:44Z</time>
      </trkpt>
      <trkpt lat="45.88838" lon="6.1893">
        <ele>1096</ele>
        <time>2018-08-06T06:39:47Z</time>
      </trkpt>
      <trkpt lat="45.88834" lon="6.18929">
        <ele>1095</ele>
        <time>2018-08-06T06:39:50Z</time>
      </trkpt>
      <trkpt lat="45.8883" lon="6.18931">
        <ele>1095</ele>
        <time>2018-08-06T06:39:52Z</time>
      </trkpt>
      <trkpt lat="45.88824" lon="6.18933">
        <ele>1094</ele>
        <time>2018-08-06T06:39:55Z</time>
      </trkpt>
      <trkpt lat="45.88819" lon="6.18938">
        <ele>1093</ele>
        <time>2018-08-06T06:39:58Z</time>
      </trkpt>
      <trkpt lat="45.88815" lon="6.18939">
        <ele>1092</ele>
        <time>2018-08-06T06:40:01Z</time>
      </trkpt>
      <trkpt lat="45.88809" lon="6.18942">
        <ele>1091</ele>
        <time>2018-08-06T06:40:06Z</time>
      </trkpt>
      <trkpt lat="45.88792" lon="6.18958">
        <ele>1088</ele>
        <time>2018-08-06T06:40:19Z</time>
      </trkpt>
      <trkpt lat="45.88787" lon="6.18964">
        <ele>1087</ele>
        <time>2018-08-06T06:40:27Z</time>
      </trkpt>
      <trkpt lat="45.8878" lon="6.18977">
        <ele>1085</ele>
        <time>2018-08-06T06:40:38Z</time>
      </trkpt>
      <trkpt lat="45.88779" lon="6.18984">
        <ele>1083</ele>
        <time>2018-08-06T06:40:43Z</time>
      </trkpt>
      <trkpt lat="45.88779" lon="6.18991">
        <ele>1082</ele>
        <time>2018-08-06T06:40:51Z</time>
      </trkpt>
      <trkpt lat="45.88773" lon="6.19008">
        <ele>1081</ele>
        <time>2018-08-06T06:41:01Z</time>
      </trkpt>
      <trkpt lat="45.88775" lon="6.19017">
        <ele>1080</ele>
        <time>2018-08-06T06:41:05Z</time>
      </trkpt>
      <trkpt lat="45.88773" lon="6.19021">
        <ele>1079</ele>
        <time>2018-08-06T06:41:14Z</time>
      </trkpt>
      <trkpt lat="45.8877" lon="6.19026">
        <ele>1078</ele>
        <time>2018-08-06T06:41:21Z</time>
      </trkpt>
      <trkpt lat="45.88769" lon="6.19031">
        <ele>1077</ele>
        <time>2018-08-06T06:41:26Z</time>
      </trkpt>
      <trkpt lat="45.88768" lon="6.19036">
        <ele>1076</ele>
        <time>2018-08-06T06:41:29Z</time>
      </trkpt>
      <trkpt lat="45.88764" lon="6.19056">
        <ele>1075</ele>
        <time>2018-08-06T06:41:40Z</time>
      </trkpt>
      <trkpt lat="45.88762" lon="6.19064">
        <ele>1074</ele>
        <time>2018-08-06T06:41:42Z</time>
      </trkpt>
      <trkpt lat="45.8876" lon="6.19072">
        <ele>1074</ele>
        <time>2018-08-06T06:41:45Z</time>
      </trkpt>
      <trkpt lat="45.88759" lon="6.1908">
        <ele>1073</ele>
        <time>2018-08-06T06:41:49Z</time>
      </trkpt>
      <trkpt lat="45.88756" lon="6.1909">
        <ele>1073</ele>
        <time>2018-08-06T06:41:53Z</time>
      </trkpt>
      <trkpt lat="45.88755" lon="6.19095">
        <ele>1072</ele>
        <time>2018-08-06T06:41:56Z</time>
      </trkpt>
      <trkpt lat="45.88757" lon="6.191">
        <ele>1072</ele>
        <time>2018-08-06T06:41:59Z</time>
      </trkpt>
      <trkpt lat="45.88756" lon="6.19106">
        <ele>1071</ele>
        <time>2018-08-06T06:42:04Z</time>
      </trkpt>
      <trkpt lat="45.88754" lon="6.19113">
        <ele>1071</ele>
        <time>2018-08-06T06:42:10Z</time>
      </trkpt>
      <trkpt lat="45.88752" lon="6.1912">
        <ele>1069</ele>
        <time>2018-08-06T06:42:14Z</time>
      </trkpt>
      <trkpt lat="45.88752" lon="6.19125">
        <ele>1068</ele>
        <time>2018-08-06T06:42:21Z</time>
      </trkpt>
      <trkpt lat="45.88742" lon="6.19126">
        <ele>1063</ele>
        <time>2018-08-06T06:42:42Z</time>
      </trkpt>
      <trkpt lat="45.88743" lon="6.19134">
        <ele>1057</ele>
        <time>2018-08-06T06:42:52Z</time>
      </trkpt>
      <trkpt lat="45.88736" lon="6.19132">
        <ele>1057</ele>
        <time>2018-08-06T06:42:56Z</time>
      </trkpt>
      <trkpt lat="45.88728" lon="6.19139">
        <ele>1056</ele>
        <time>2018-08-06T06:43:04Z</time>
      </trkpt>
      <trkpt lat="45.88724" lon="6.19138">
        <ele>1056</ele>
        <time>2018-08-06T06:43:08Z</time>
      </trkpt>
      <trkpt lat="45.88719" lon="6.19141">
        <ele>1056</ele>
        <time>2018-08-06T06:43:13Z</time>
      </trkpt>
      <trkpt lat="45.88695" lon="6.19145">
        <ele>1056</ele>
        <time>2018-08-06T06:43:30Z</time>
      </trkpt>
      <trkpt lat="45.8869" lon="6.19147">
        <ele>1056</ele>
        <time>2018-08-06T06:43:36Z</time>
      </trkpt>
      <trkpt lat="45.88684" lon="6.1915">
        <ele>1056</ele>
        <time>2018-08-06T06:43:45Z</time>
      </trkpt>
      <trkpt lat="45.88677" lon="6.19148">
        <ele>1055</ele>
        <time>2018-08-06T06:43:49Z</time>
      </trkpt>
      <trkpt lat="45.88672" lon="6.19148">
        <ele>1055</ele>
        <time>2018-08-06T06:43:54Z</time>
      </trkpt>
      <trkpt lat="45.88666" lon="6.19147">
        <ele>1055</ele>
        <time>2018-08-06T06:44:01Z</time>
      </trkpt>
      <trkpt lat="45.88662" lon="6.19146">
        <ele>1055</ele>
        <time>2018-08-06T06:44:04Z</time>
      </trkpt>
      <trkpt lat="45.88659" lon="6.19145">
        <ele>1055</ele>
        <time>2018-08-06T06:44:09Z</time>
      </trkpt>
      <trkpt lat="45.88659" lon="6.19139">
        <ele>1054</ele>
        <time>2018-08-06T06:44:23Z</time>
      </trkpt>
      <trkpt lat="45.88663" lon="6.19133">
        <ele>1053</ele>
        <time>2018-08-06T06:44:28Z</time>
      </trkpt>
      <trkpt lat="45.88664" lon="6.19128">
        <ele>1053</ele>
        <time>2018-08-06T06:44:36Z</time>
      </trkpt>
      <trkpt lat="45.88666" lon="6.19122">
        <ele>1052</ele>
        <time>2018-08-06T06:44:42Z</time>
      </trkpt>
      <trkpt lat="45.88673" lon="6.19118">
        <ele>1051</ele>
        <time>2018-08-06T06:44:47Z</time>
      </trkpt>
      <trkpt lat="45.88679" lon="6.19116">
        <ele>1051</ele>
        <time>2018-08-06T06:44:51Z</time>
      </trkpt>
      <trkpt lat="45.88681" lon="6.19109">
        <ele>1049</ele>
        <time>2018-08-06T06:45:17Z</time>
      </trkpt>
      <trkpt lat="45.88676" lon="6.19106">
        <ele>1047</ele>
        <time>2018-08-06T06:45:32Z</time>
      </trkpt>
      <trkpt lat="45.88671" lon="6.19101">
        <ele>1044</ele>
        <time>2018-08-06T06:45:36Z</time>
      </trkpt>
      <trkpt lat="45.88664" lon="6.19099">
        <ele>1043</ele>
        <time>2018-08-06T06:45:42Z</time>
      </trkpt>
      <trkpt lat="45.88655" lon="6.19088">
        <ele>1041</ele>
        <time>2018-08-06T06:45:50Z</time>
      </trkpt>
      <trkpt lat="45.88649" lon="6.19084">
        <ele>1041</ele>
        <time>2018-08-06T06:45:55Z</time>
      </trkpt>
      <trkpt lat="45.88647" lon="6.19077">
        <ele>1041</ele>
        <time>2018-08-06T06:45:59Z</time>
      </trkpt>
      <trkpt lat="45.88641" lon="6.19083">
        <ele>1040</ele>
        <time>2018-08-06T06:46:08Z</time>
      </trkpt>
      <trkpt lat="45.88639" lon="6.19091">
        <ele>1040</ele>
        <time>2018-08-06T06:46:19Z</time>
      </trkpt>
      <trkpt lat="45.88635" lon="6.19089">
        <ele>1037</ele>
        <time>2018-08-06T06:46:56Z</time>
      </trkpt>
      <trkpt lat="45.88631" lon="6.19082">
        <ele>1036</ele>
        <time>2018-08-06T06:47:02Z</time>
      </trkpt>
      <trkpt lat="45.88614" lon="6.19075">
        <ele>1023</ele>
        <time>2018-08-06T06:47:29Z</time>
      </trkpt>
      <trkpt lat="45.88609" lon="6.19075">
        <ele>1022</ele>
        <time>2018-08-06T06:47:34Z</time>
      </trkpt>
      <trkpt lat="45.88604" lon="6.19078">
        <ele>1020</ele>
        <time>2018-08-06T06:47:39Z</time>
      </trkpt>
      <trkpt lat="45.88601" lon="6.19084">
        <ele>1019</ele>
        <time>2018-08-06T06:47:47Z</time>
      </trkpt>
      <trkpt lat="45.88601" lon="6.19077">
        <ele>1013</ele>
        <time>2018-08-06T06:48:31Z</time>
      </trkpt>
      <trkpt lat="45.88596" lon="6.19075">
        <ele>1012</ele>
        <time>2018-08-06T06:48:37Z</time>
      </trkpt>
      <trkpt lat="45.88592" lon="6.19069">
        <ele>1009</ele>
        <time>2018-08-06T06:48:40Z</time>
      </trkpt>
      <trkpt lat="45.88587" lon="6.19066">
        <ele>1008</ele>
        <time>2018-08-06T06:48:44Z</time>
      </trkpt>
      <trkpt lat="45.88581" lon="6.19069">
        <ele>1005</ele>
        <time>2018-08-06T06:48:51Z</time>
      </trkpt>
      <trkpt lat="45.88575" lon="6.19068">
        <ele>1005</ele>
        <time>2018-08-06T06:48:54Z</time>
      </trkpt>
      <trkpt lat="45.88571" lon="6.19069">
        <ele>1004</ele>
        <time>2018-08-06T06:48:59Z</time>
      </trkpt>
      <trkpt lat="45.88567" lon="6.1907">
        <ele>1003</ele>
        <time>2018-08-06T06:49:01Z</time>
      </trkpt>
      <trkpt lat="45.88562" lon="6.19071">
        <ele>1003</ele>
        <time>2018-08-06T06:49:03Z</time>
      </trkpt>
      <trkpt lat="45.88555" lon="6.19073">
        <ele>1003</ele>
        <time>2018-08-06T06:49:05Z</time>
      </trkpt>
      <trkpt lat="45.8855" lon="6.19077">
        <ele>1003</ele>
        <time>2018-08-06T06:49:08Z</time>
      </trkpt>
      <trkpt lat="45.88548" lon="6.19088">
        <ele>1002</ele>
        <time>2018-08-06T06:49:15Z</time>
      </trkpt>
      <trkpt lat="45.88544" lon="6.19093">
        <ele>1002</ele>
        <time>2018-08-06T06:49:22Z</time>
      </trkpt>
      <trkpt lat="45.88539" lon="6.19088">
        <ele>1002</ele>
        <time>2018-08-06T06:49:27Z</time>
      </trkpt>
      <trkpt lat="45.88536" lon="6.19081">
        <ele>1001</ele>
        <time>2018-08-06T06:49:32Z</time>
      </trkpt>
      <trkpt lat="45.8853" lon="6.19076">
        <ele>1000</ele>
        <time>2018-08-06T06:49:38Z</time>
      </trkpt>
      <trkpt lat="45.88524" lon="6.19076">
        <ele>998</ele>
        <time>2018-08-06T06:49:43Z</time>
      </trkpt>
      <trkpt lat="45.88518" lon="6.1908">
        <ele>996</ele>
        <time>2018-08-06T06:49:49Z</time>
      </trkpt>
      <trkpt lat="45.88513" lon="6.19083">
        <ele>995</ele>
        <time>2018-08-06T06:49:54Z</time>
      </trkpt>
      <trkpt lat="45.88507" lon="6.19083">
        <ele>993</ele>
        <time>2018-08-06T06:50:03Z</time>
      </trkpt>
      <trkpt lat="45.88501" lon="6.19084">
        <ele>991</ele>
        <time>2018-08-06T06:50:08Z</time>
      </trkpt>
      <trkpt lat="45.88497" lon="6.19088">
        <ele>990</ele>
        <time>2018-08-06T06:50:14Z</time>
      </trkpt>
      <trkpt lat="45.88495" lon="6.19079">
        <ele>983</ele>
        <time>2018-08-06T06:50:52Z</time>
      </trkpt>
      <trkpt lat="45.88491" lon="6.19073">
        <ele>978</ele>
        <time>2018-08-06T06:50:56Z</time>
      </trkpt>
      <trkpt lat="45.88487" lon="6.19065">
        <ele>975</ele>
        <time>2018-08-06T06:51:02Z</time>
      </trkpt>
      <trkpt lat="45.88484" lon="6.19058">
        <ele>972</ele>
        <time>2018-08-06T06:51:08Z</time>
      </trkpt>
      <trkpt lat="45.88479" lon="6.19051">
        <ele>971</ele>
        <time>2018-08-06T06:51:12Z</time>
      </trkpt>
      <trkpt lat="45.88472" lon="6.19055">
        <ele>967</ele>
        <time>2018-08-06T06:51:22Z</time>
      </trkpt>
      <trkpt lat="45.88463" lon="6.19055">
        <ele>965</ele>
        <time>2018-08-06T06:51:25Z</time>
      </trkpt>
      <trkpt lat="45.88458" lon="6.19048">
        <ele>964</ele>
        <time>2018-08-06T06:51:28Z</time>
      </trkpt>
      <trkpt lat="45.88452" lon="6.19046">
        <ele>961</ele>
        <time>2018-08-06T06:51:37Z</time>
      </trkpt>
      <trkpt lat="45.88448" lon="6.19041">
        <ele>958</ele>
        <time>2018-08-06T06:51:45Z</time>
      </trkpt>
      <trkpt lat="45.88443" lon="6.19035">
        <ele>955</ele>
        <time>2018-08-06T06:51:53Z</time>
      </trkpt>
      <trkpt lat="45.88434" lon="6.19019">
        <ele>951</ele>
        <time>2018-08-06T06:51:59Z</time>
      </trkpt>
      <trkpt lat="45.88429" lon="6.19013">
        <ele>949</ele>
        <time>2018-08-06T06:52:04Z</time>
      </trkpt>
      <trkpt lat="45.88429" lon="6.19011">
        <ele>941</ele>
        <time>2018-08-06T06:52:32Z</time>
      </trkpt>
      <trkpt lat="45.88433" lon="6.19006">
        <ele>939</ele>
        <time>2018-08-06T06:52:39Z</time>
      </trkpt>
      <trkpt lat="45.88432" lon="6.18998">
        <ele>932</ele>
        <time>2018-08-06T06:52:46Z</time>
      </trkpt>
      <trkpt lat="45.88428" lon="6.18989">
        <ele>928</ele>
        <time>2018-08-06T06:52:56Z</time>
      </trkpt>
      <trkpt lat="45.88428" lon="6.1898">
        <ele>926</ele>
        <time>2018-08-06T06:53:01Z</time>
      </trkpt>
      <trkpt lat="45.88431" lon="6.18973">
        <ele>923</ele>
        <time>2018-08-06T06:53:09Z</time>
      </trkpt>
      <trkpt lat="45.8843" lon="6.18963">
        <ele>921</ele>
        <time>2018-08-06T06:53:17Z</time>
      </trkpt>
      <trkpt lat="45.88428" lon="6.18956">
        <ele>919</ele>
        <time>2018-08-06T06:53:20Z</time>
      </trkpt>
      <trkpt lat="45.88433" lon="6.18951">
        <ele>916</ele>
        <time>2018-08-06T06:53:36Z</time>
      </trkpt>
      <trkpt lat="45.88432" lon="6.18943">
        <ele>913</ele>
        <time>2018-08-06T06:53:41Z</time>
      </trkpt>
      <trkpt lat="45.88437" lon="6.18937">
        <ele>910</ele>
        <time>2018-08-06T06:53:50Z</time>
      </trkpt>
      <trkpt lat="45.8844" lon="6.1893">
        <ele>907</ele>
        <time>2018-08-06T06:53:56Z</time>
      </trkpt>
      <trkpt lat="45.88443" lon="6.18922">
        <ele>906</ele>
        <time>2018-08-06T06:54:01Z</time>
      </trkpt>
      <trkpt lat="45.88447" lon="6.18916">
        <ele>904</ele>
        <time>2018-08-06T06:54:05Z</time>
      </trkpt>
      <trkpt lat="45.88451" lon="6.18909">
        <ele>903</ele>
        <time>2018-08-06T06:54:10Z</time>
      </trkpt>
      <trkpt lat="45.88452" lon="6.189">
        <ele>901</ele>
        <time>2018-08-06T06:54:14Z</time>
      </trkpt>
      <trkpt lat="45.8845" lon="6.18891">
        <ele>900</ele>
        <time>2018-08-06T06:54:18Z</time>
      </trkpt>
      <trkpt lat="45.88451" lon="6.18882">
        <ele>899</ele>
        <time>2018-08-06T06:54:20Z</time>
      </trkpt>
      <trkpt lat="45.88447" lon="6.1887">
        <ele>897</ele>
        <time>2018-08-06T06:54:25Z</time>
      </trkpt>
      <trkpt lat="45.88446" lon="6.18865">
        <ele>896</ele>
        <time>2018-08-06T06:54:27Z</time>
      </trkpt>
      <trkpt lat="45.88447" lon="6.1886">
        <ele>895</ele>
        <time>2018-08-06T06:54:30Z</time>
      </trkpt>
      <trkpt lat="45.88446" lon="6.18853">
        <ele>893</ele>
        <time>2018-08-06T06:54:33Z</time>
      </trkpt>
      <trkpt lat="45.88446" lon="6.18848">
        <ele>892</ele>
        <time>2018-08-06T06:54:35Z</time>
      </trkpt>
      <trkpt lat="45.88447" lon="6.18841">
        <ele>890</ele>
        <time>2018-08-06T06:54:38Z</time>
      </trkpt>
      <trkpt lat="45.88448" lon="6.18833">
        <ele>889</ele>
        <time>2018-08-06T06:54:42Z</time>
      </trkpt>
      <trkpt lat="45.88452" lon="6.18813">
        <ele>885</ele>
        <time>2018-08-06T06:54:48Z</time>
      </trkpt>
      <trkpt lat="45.88453" lon="6.18805">
        <ele>883</ele>
        <time>2018-08-06T06:54:51Z</time>
      </trkpt>
      <trkpt lat="45.88454" lon="6.18796">
        <ele>882</ele>
        <time>2018-08-06T06:54:56Z</time>
      </trkpt>
      <trkpt lat="45.88458" lon="6.18788">
        <ele>879</ele>
        <time>2018-08-06T06:55:01Z</time>
      </trkpt>
      <trkpt lat="45.8846" lon="6.18778">
        <ele>877</ele>
        <time>2018-08-06T06:55:04Z</time>
      </trkpt>
      <trkpt lat="45.88464" lon="6.1877">
        <ele>876</ele>
        <time>2018-08-06T06:55:07Z</time>
      </trkpt>
      <trkpt lat="45.88471" lon="6.18764">
        <ele>875</ele>
        <time>2018-08-06T06:55:10Z</time>
      </trkpt>
      <trkpt lat="45.8848" lon="6.18753">
        <ele>873</ele>
        <time>2018-08-06T06:55:17Z</time>
      </trkpt>
      <trkpt lat="45.88483" lon="6.18746">
        <ele>871</ele>
        <time>2018-08-06T06:55:21Z</time>
      </trkpt>
      <trkpt lat="45.88486" lon="6.18737">
        <ele>870</ele>
        <time>2018-08-06T06:55:25Z</time>
      </trkpt>
      <trkpt lat="45.8849" lon="6.1873">
        <ele>868</ele>
        <time>2018-08-06T06:55:29Z</time>
      </trkpt>
      <trkpt lat="45.88494" lon="6.18724">
        <ele>867</ele>
        <time>2018-08-06T06:55:33Z</time>
      </trkpt>
      <trkpt lat="45.885" lon="6.18721">
        <ele>865</ele>
        <time>2018-08-06T06:55:37Z</time>
      </trkpt>
      <trkpt lat="45.88504" lon="6.18715">
        <ele>865</ele>
        <time>2018-08-06T06:55:39Z</time>
      </trkpt>
      <trkpt lat="45.88506" lon="6.18707">
        <ele>863</ele>
        <time>2018-08-06T06:55:44Z</time>
      </trkpt>
      <trkpt lat="45.88508" lon="6.18698">
        <ele>862</ele>
        <time>2018-08-06T06:55:47Z</time>
      </trkpt>
      <trkpt lat="45.8851" lon="6.18686">
        <ele>861</ele>
        <time>2018-08-06T06:55:49Z</time>
      </trkpt>
      <trkpt lat="45.88511" lon="6.18675">
        <ele>860</ele>
        <time>2018-08-06T06:55:51Z</time>
      </trkpt>
      <trkpt lat="45.88512" lon="6.18667">
        <ele>860</ele>
        <time>2018-08-06T06:55:54Z</time>
      </trkpt>
      <trkpt lat="45.88531" lon="6.18645">
        <ele>858</ele>
        <time>2018-08-06T06:55:59Z</time>
      </trkpt>
      <trkpt lat="45.88539" lon="6.1864">
        <ele>856</ele>
        <time>2018-08-06T06:56:03Z</time>
      </trkpt>
      <trkpt lat="45.88545" lon="6.18634">
        <ele>856</ele>
        <time>2018-08-06T06:56:06Z</time>
      </trkpt>
      <trkpt lat="45.88551" lon="6.18632">
        <ele>855</ele>
        <time>2018-08-06T06:56:10Z</time>
      </trkpt>
      <trkpt lat="45.88562" lon="6.18623">
        <ele>853</ele>
        <time>2018-08-06T06:56:18Z</time>
      </trkpt>
      <trkpt lat="45.88566" lon="6.18615">
        <ele>851</ele>
        <time>2018-08-06T06:56:23Z</time>
      </trkpt>
      <trkpt lat="45.88585" lon="6.1859">
        <ele>848</ele>
        <time>2018-08-06T06:56:36Z</time>
      </trkpt>
      <trkpt lat="45.8859" lon="6.18586">
        <ele>848</ele>
        <time>2018-08-06T06:56:38Z</time>
      </trkpt>
      <trkpt lat="45.88596" lon="6.18582">
        <ele>847</ele>
        <time>2018-08-06T06:56:41Z</time>
      </trkpt>
      <trkpt lat="45.88602" lon="6.1858">
        <ele>846</ele>
        <time>2018-08-06T06:56:44Z</time>
      </trkpt>
      <trkpt lat="45.88608" lon="6.18574">
        <ele>845</ele>
        <time>2018-08-06T06:56:50Z</time>
      </trkpt>
      <trkpt lat="45.88616" lon="6.1857">
        <ele>845</ele>
        <time>2018-08-06T06:56:55Z</time>
      </trkpt>
      <trkpt lat="45.88623" lon="6.18567">
        <ele>844</ele>
        <time>2018-08-06T06:56:58Z</time>
      </trkpt>
      <trkpt lat="45.88626" lon="6.1856">
        <ele>843</ele>
        <time>2018-08-06T06:57:03Z</time>
      </trkpt>
      <trkpt lat="45.88652" lon="6.18565">
        <ele>842</ele>
        <time>2018-08-06T06:57:16Z</time>
      </trkpt>
      <trkpt lat="45.88667" lon="6.1856">
        <ele>841</ele>
        <time>2018-08-06T06:57:21Z</time>
      </trkpt>
      <trkpt lat="45.88672" lon="6.18563">
        <ele>841</ele>
        <time>2018-08-06T06:57:24Z</time>
      </trkpt>
      <trkpt lat="45.88677" lon="6.18565">
        <ele>840</ele>
        <time>2018-08-06T06:57:28Z</time>
      </trkpt>
      <trkpt lat="45.88683" lon="6.18567">
        <ele>840</ele>
        <time>2018-08-06T06:57:33Z</time>
      </trkpt>
      <trkpt lat="45.88688" lon="6.18571">
        <ele>839</ele>
        <time>2018-08-06T06:57:38Z</time>
      </trkpt>
      <trkpt lat="45.88694" lon="6.1857">
        <ele>839</ele>
        <time>2018-08-06T06:57:47Z</time>
      </trkpt>
      <trkpt lat="45.8871" lon="6.18561">
        <ele>837</ele>
        <time>2018-08-06T06:58:09Z</time>
      </trkpt>
      <trkpt lat="45.88715" lon="6.18559">
        <ele>836</ele>
        <time>2018-08-06T06:58:14Z</time>
      </trkpt>
      <trkpt lat="45.88721" lon="6.1856">
        <ele>836</ele>
        <time>2018-08-06T06:58:20Z</time>
      </trkpt>
      <trkpt lat="45.88725" lon="6.18562">
        <ele>835</ele>
        <time>2018-08-06T06:58:26Z</time>
      </trkpt>
      <trkpt lat="45.8873" lon="6.18562">
        <ele>835</ele>
        <time>2018-08-06T06:58:30Z</time>
      </trkpt>
      <trkpt lat="45.88737" lon="6.18566">
        <ele>835</ele>
        <time>2018-08-06T06:58:34Z</time>
      </trkpt>
      <trkpt lat="45.88743" lon="6.18567">
        <ele>835</ele>
        <time>2018-08-06T06:58:38Z</time>
      </trkpt>
      <trkpt lat="45.88749" lon="6.18565">
        <ele>835</ele>
        <time>2018-08-06T06:58:43Z</time>
      </trkpt>
      <trkpt lat="45.88755" lon="6.18564">
        <ele>834</ele>
        <time>2018-08-06T06:58:51Z</time>
      </trkpt>
      <trkpt lat="45.88761" lon="6.18566">
        <ele>834</ele>
        <time>2018-08-06T06:58:56Z</time>
      </trkpt>
      <trkpt lat="45.88766" lon="6.18564">
        <ele>834</ele>
        <time>2018-08-06T06:59:06Z</time>
      </trkpt>
      <trkpt lat="45.88772" lon="6.18569">
        <ele>834</ele>
        <time>2018-08-06T06:59:14Z</time>
      </trkpt>
      <trkpt lat="45.88778" lon="6.18569">
        <ele>834</ele>
        <time>2018-08-06T06:59:16Z</time>
      </trkpt>
      <trkpt lat="45.88784" lon="6.18568">
        <ele>834</ele>
        <time>2018-08-06T06:59:18Z</time>
      </trkpt>
      <trkpt lat="45.8879" lon="6.18567">
        <ele>834</ele>
        <time>2018-08-06T06:59:21Z</time>
      </trkpt>
      <trkpt lat="45.88797" lon="6.18565">
        <ele>834</ele>
        <time>2018-08-06T06:59:25Z</time>
      </trkpt>
      <trkpt lat="45.88815" lon="6.18565">
        <ele>833</ele>
        <time>2018-08-06T06:59:44Z</time>
      </trkpt>
      <trkpt lat="45.88815" lon="6.18556">
        <ele>833</ele>
        <time>2018-08-06T06:59:59Z</time>
      </trkpt>
      <trkpt lat="45.88818" lon="6.18546">
        <ele>833</ele>
        <time>2018-08-06T07:00:04Z</time>
      </trkpt>
      <trkpt lat="45.88821" lon="6.18538">
        <ele>833</ele>
        <time>2018-08-06T07:00:10Z</time>
      </trkpt>
      <trkpt lat="45.88826" lon="6.18535">
        <ele>833</ele>
        <time>2018-08-06T07:00:13Z</time>
      </trkpt>
      <trkpt lat="45.88832" lon="6.18531">
        <ele>833</ele>
        <time>2018-08-06T07:00:16Z</time>
      </trkpt>
      <trkpt lat="45.88838" lon="6.18525">
        <ele>833</ele>
        <time>2018-08-06T07:00:22Z</time>
      </trkpt>
      <trkpt lat="45.88842" lon="6.1852">
        <ele>833</ele>
        <time>2018-08-06T07:00:25Z</time>
      </trkpt>
      <trkpt lat="45.88848" lon="6.18518">
        <ele>833</ele>
        <time>2018-08-06T07:00:28Z</time>
      </trkpt>
      <trkpt lat="45.88853" lon="6.18518">
        <ele>833</ele>
        <time>2018-08-06T07:00:32Z</time>
      </trkpt>
      <trkpt lat="45.8886" lon="6.1852">
        <ele>833</ele>
        <time>2018-08-06T07:00:36Z</time>
      </trkpt>
      <trkpt lat="45.88876" lon="6.18517">
        <ele>833</ele>
        <time>2018-08-06T07:00:42Z</time>
      </trkpt>
      <trkpt lat="45.88885" lon="6.18516">
        <ele>833</ele>
        <time>2018-08-06T07:00:46Z</time>
      </trkpt>
      <trkpt lat="45.88892" lon="6.18516">
        <ele>832</ele>
        <time>2018-08-06T07:00:50Z</time>
      </trkpt>
      <trkpt lat="45.88897" lon="6.18518">
        <ele>832</ele>
        <time>2018-08-06T07:00:54Z</time>
      </trkpt>
      <trkpt lat="45.88903" lon="6.18518">
        <ele>832</ele>
        <time>2018-08-06T07:00:58Z</time>
      </trkpt>
      <trkpt lat="45.88911" lon="6.18514">
        <ele>832</ele>
        <time>2018-08-06T07:01:04Z</time>
      </trkpt>
      <trkpt lat="45.88917" lon="6.18512">
        <ele>832</ele>
        <time>2018-08-06T07:01:09Z</time>
      </trkpt>
      <trkpt lat="45.88922" lon="6.18507">
        <ele>832</ele>
        <time>2018-08-06T07:01:18Z</time>
      </trkpt>
      <trkpt lat="45.88927" lon="6.18501">
        <ele>832</ele>
        <time>2018-08-06T07:01:23Z</time>
      </trkpt>
      <trkpt lat="45.88932" lon="6.18497">
        <ele>832</ele>
        <time>2018-08-06T07:01:29Z</time>
      </trkpt>
      <trkpt lat="45.88939" lon="6.18493">
        <ele>832</ele>
        <time>2018-08-06T07:01:36Z</time>
      </trkpt>
      <trkpt lat="45.88949" lon="6.18479">
        <ele>832</ele>
        <time>2018-08-06T07:01:43Z</time>
      </trkpt>
      <trkpt lat="45.88955" lon="6.1847">
        <ele>831</ele>
        <time>2018-08-06T07:01:47Z</time>
      </trkpt>
      <trkpt lat="45.88962" lon="6.18454">
        <ele>831</ele>
        <time>2018-08-06T07:01:54Z</time>
      </trkpt>
      <trkpt lat="45.88967" lon="6.18448">
        <ele>831</ele>
        <time>2018-08-06T07:01:58Z</time>
      </trkpt>
      <trkpt lat="45.88974" lon="6.18443">
        <ele>831</ele>
        <time>2018-08-06T07:02:04Z</time>
      </trkpt>
      <trkpt lat="45.88979" lon="6.18434">
        <ele>831</ele>
        <time>2018-08-06T07:02:08Z</time>
      </trkpt>
      <trkpt lat="45.88985" lon="6.18422">
        <ele>831</ele>
        <time>2018-08-06T07:02:12Z</time>
      </trkpt>
      <trkpt lat="45.88988" lon="6.18412">
        <ele>831</ele>
        <time>2018-08-06T07:02:15Z</time>
      </trkpt>
      <trkpt lat="45.88991" lon="6.18401">
        <ele>830</ele>
        <time>2018-08-06T07:02:21Z</time>
      </trkpt>
      <trkpt lat="45.8901" lon="6.18382">
        <ele>830</ele>
        <time>2018-08-06T07:02:34Z</time>
      </trkpt>
      <trkpt lat="45.89017" lon="6.18376">
        <ele>830</ele>
        <time>2018-08-06T07:02:38Z</time>
      </trkpt>
      <trkpt lat="45.8902" lon="6.18367">
        <ele>829</ele>
        <time>2018-08-06T07:02:43Z</time>
      </trkpt>
      <trkpt lat="45.89028" lon="6.18361">
        <ele>829</ele>
        <time>2018-08-06T07:02:48Z</time>
      </trkpt>
      <trkpt lat="45.8905" lon="6.18338">
        <ele>829</ele>
        <time>2018-08-06T07:03:01Z</time>
      </trkpt>
      <trkpt lat="45.89065" lon="6.18321">
        <ele>829</ele>
        <time>2018-08-06T07:03:06Z</time>
      </trkpt>
      <trkpt lat="45.89071" lon="6.18314">
        <ele>828</ele>
        <time>2018-08-06T07:03:11Z</time>
      </trkpt>
      <trkpt lat="45.89083" lon="6.18299">
        <ele>828</ele>
        <time>2018-08-06T07:03:17Z</time>
      </trkpt>
      <trkpt lat="45.89094" lon="6.18289">
        <ele>828</ele>
        <time>2018-08-06T07:03:23Z</time>
      </trkpt>
      <trkpt lat="45.89102" lon="6.18284">
        <ele>828</ele>
        <time>2018-08-06T07:03:29Z</time>
      </trkpt>
      <trkpt lat="45.89109" lon="6.18283">
        <ele>827</ele>
        <time>2018-08-06T07:03:34Z</time>
      </trkpt>
      <trkpt lat="45.89116" lon="6.18286">
        <ele>827</ele>
        <time>2018-08-06T07:03:41Z</time>
      </trkpt>
      <trkpt lat="45.89123" lon="6.18288">
        <ele>827</ele>
        <time>2018-08-06T07:03:44Z</time>
      </trkpt>
      <trkpt lat="45.8913" lon="6.18287">
        <ele>827</ele>
        <time>2018-08-06T07:03:49Z</time>
      </trkpt>
      <trkpt lat="45.89137" lon="6.18282">
        <ele>826</ele>
        <time>2018-08-06T07:03:52Z</time>
      </trkpt>
      <trkpt lat="45.89141" lon="6.18271">
        <ele>826</ele>
        <time>2018-08-06T07:03:55Z</time>
      </trkpt>
      <trkpt lat="45.89143" lon="6.18264">
        <ele>826</ele>
        <time>2018-08-06T07:03:58Z</time>
      </trkpt>
      <trkpt lat="45.89147" lon="6.18258">
        <ele>826</ele>
        <time>2018-08-06T07:04:03Z</time>
      </trkpt>
      <trkpt lat="45.89151" lon="6.18251">
        <ele>825</ele>
        <time>2018-08-06T07:04:07Z</time>
      </trkpt>
      <trkpt lat="45.89154" lon="6.18244">
        <ele>825</ele>
        <time>2018-08-06T07:04:13Z</time>
      </trkpt>
      <trkpt lat="45.89155" lon="6.18235">
        <ele>825</ele>
        <time>2018-08-06T07:04:17Z</time>
      </trkpt>
      <trkpt lat="45.89157" lon="6.18227">
        <ele>824</ele>
        <time>2018-08-06T07:04:24Z</time>
      </trkpt>
      <trkpt lat="45.89159" lon="6.18223">
        <ele>824</ele>
        <time>2018-08-06T07:04:28Z</time>
      </trkpt>
      <trkpt lat="45.89161" lon="6.18218">
        <ele>823</ele>
        <time>2018-08-06T07:04:31Z</time>
      </trkpt>
      <trkpt lat="45.89164" lon="6.1821">
        <ele>823</ele>
        <time>2018-08-06T07:04:36Z</time>
      </trkpt>
      <trkpt lat="45.89164" lon="6.18202">
        <ele>822</ele>
        <time>2018-08-06T07:04:41Z</time>
      </trkpt>
      <trkpt lat="45.89163" lon="6.18193">
        <ele>821</ele>
        <time>2018-08-06T07:04:46Z</time>
      </trkpt>
      <trkpt lat="45.89164" lon="6.18183">
        <ele>821</ele>
        <time>2018-08-06T07:04:50Z</time>
      </trkpt>
      <trkpt lat="45.89165" lon="6.18174">
        <ele>820</ele>
        <time>2018-08-06T07:04:54Z</time>
      </trkpt>
      <trkpt lat="45.89168" lon="6.18166">
        <ele>820</ele>
        <time>2018-08-06T07:04:57Z</time>
      </trkpt>
      <trkpt lat="45.8917" lon="6.18157">
        <ele>820</ele>
        <time>2018-08-06T07:05:00Z</time>
      </trkpt>
      <trkpt lat="45.89174" lon="6.1815">
        <ele>819</ele>
        <time>2018-08-06T07:05:07Z</time>
      </trkpt>
      <trkpt lat="45.89178" lon="6.18143">
        <ele>819</ele>
        <time>2018-08-06T07:05:10Z</time>
      </trkpt>
      <trkpt lat="45.89183" lon="6.18126">
        <ele>817</ele>
        <time>2018-08-06T07:05:20Z</time>
      </trkpt>
      <trkpt lat="45.89183" lon="6.18118">
        <ele>817</ele>
        <time>2018-08-06T07:05:24Z</time>
      </trkpt>
      <trkpt lat="45.89183" lon="6.18107">
        <ele>816</ele>
        <time>2018-08-06T07:05:27Z</time>
      </trkpt>
      <trkpt lat="45.89184" lon="6.18097">
        <ele>815</ele>
        <time>2018-08-06T07:05:31Z</time>
      </trkpt>
      <trkpt lat="45.89186" lon="6.18088">
        <ele>814</ele>
        <time>2018-08-06T07:05:36Z</time>
      </trkpt>
      <trkpt lat="45.89187" lon="6.18083">
        <ele>814</ele>
        <time>2018-08-06T07:05:39Z</time>
      </trkpt>
      <trkpt lat="45.89189" lon="6.18079">
        <ele>813</ele>
        <time>2018-08-06T07:05:42Z</time>
      </trkpt>
      <trkpt lat="45.89196" lon="6.18062">
        <ele>812</ele>
        <time>2018-08-06T07:05:50Z</time>
      </trkpt>
      <trkpt lat="45.89201" lon="6.18057">
        <ele>811</ele>
        <time>2018-08-06T07:05:55Z</time>
      </trkpt>
      <trkpt lat="45.89223" lon="6.18033">
        <ele>807</ele>
        <time>2018-08-06T07:06:16Z</time>
      </trkpt>
      <trkpt lat="45.8923" lon="6.18027">
        <ele>806</ele>
        <time>2018-08-06T07:06:22Z</time>
      </trkpt>
      <trkpt lat="45.89241" lon="6.18014">
        <ele>804</ele>
        <time>2018-08-06T07:06:32Z</time>
      </trkpt>
      <trkpt lat="45.89246" lon="6.18008">
        <ele>803</ele>
        <time>2018-08-06T07:06:36Z</time>
      </trkpt>
      <trkpt lat="45.89254" lon="6.18001">
        <ele>802</ele>
        <time>2018-08-06T07:06:42Z</time>
      </trkpt>
      <trkpt lat="45.89259" lon="6.1799">
        <ele>801</ele>
        <time>2018-08-06T07:06:44Z</time>
      </trkpt>
      <trkpt lat="45.8926" lon="6.17979">
        <ele>801</ele>
        <time>2018-08-06T07:06:46Z</time>
      </trkpt>
      <trkpt lat="45.89262" lon="6.17968">
        <ele>800</ele>
        <time>2018-08-06T07:06:50Z</time>
      </trkpt>
      <trkpt lat="45.89266" lon="6.1795">
        <ele>798</ele>
        <time>2018-08-06T07:06:58Z</time>
      </trkpt>
      <trkpt lat="45.89269" lon="6.17943">
        <ele>798</ele>
        <time>2018-08-06T07:07:03Z</time>
      </trkpt>
      <trkpt lat="45.89271" lon="6.17935">
        <ele>796</ele>
        <time>2018-08-06T07:07:11Z</time>
      </trkpt>
      <trkpt lat="45.89274" lon="6.17926">
        <ele>796</ele>
        <time>2018-08-06T07:07:16Z</time>
      </trkpt>
      <trkpt lat="45.89279" lon="6.17919">
        <ele>794</ele>
        <time>2018-08-06T07:07:20Z</time>
      </trkpt>
      <trkpt lat="45.89283" lon="6.17913">
        <ele>794</ele>
        <time>2018-08-06T07:07:24Z</time>
      </trkpt>
      <trkpt lat="45.89291" lon="6.17906">
        <ele>793</ele>
        <time>2018-08-06T07:07:27Z</time>
      </trkpt>
      <trkpt lat="45.89295" lon="6.17898">
        <ele>793</ele>
        <time>2018-08-06T07:07:29Z</time>
      </trkpt>
      <trkpt lat="45.893" lon="6.17888">
        <ele>792</ele>
        <time>2018-08-06T07:07:33Z</time>
      </trkpt>
      <trkpt lat="45.89307" lon="6.1788">
        <ele>791</ele>
        <time>2018-08-06T07:07:38Z</time>
      </trkpt>
      <trkpt lat="45.89311" lon="6.1787">
        <ele>791</ele>
        <time>2018-08-06T07:07:41Z</time>
      </trkpt>
      <trkpt lat="45.89315" lon="6.17865">
        <ele>791</ele>
        <time>2018-08-06T07:07:44Z</time>
      </trkpt>
      <trkpt lat="45.8932" lon="6.17861">
        <ele>790</ele>
        <time>2018-08-06T07:07:49Z</time>
      </trkpt>
      <trkpt lat="45.89326" lon="6.17856">
        <ele>789</ele>
        <time>2018-08-06T07:07:54Z</time>
      </trkpt>
      <trkpt lat="45.89338" lon="6.1785">
        <ele>788</ele>
        <time>2018-08-06T07:08:02Z</time>
      </trkpt>
      <trkpt lat="45.89342" lon="6.1784">
        <ele>788</ele>
        <time>2018-08-06T07:08:05Z</time>
      </trkpt>
      <trkpt lat="45.89346" lon="6.17833">
        <ele>787</ele>
        <time>2018-08-06T07:08:11Z</time>
      </trkpt>
      <trkpt lat="45.89352" lon="6.17828">
        <ele>786</ele>
        <time>2018-08-06T07:08:17Z</time>
      </trkpt>
      <trkpt lat="45.89355" lon="6.17821">
        <ele>786</ele>
        <time>2018-08-06T07:08:19Z</time>
      </trkpt>
      <trkpt lat="45.8936" lon="6.17813">
        <ele>785</ele>
        <time>2018-08-06T07:08:23Z</time>
      </trkpt>
      <trkpt lat="45.89365" lon="6.17804">
        <ele>785</ele>
        <time>2018-08-06T07:08:25Z</time>
      </trkpt>
      <trkpt lat="45.89367" lon="6.17796">
        <ele>784</ele>
        <time>2018-08-06T07:08:28Z</time>
      </trkpt>
      <trkpt lat="45.89369" lon="6.17788">
        <ele>784</ele>
        <time>2018-08-06T07:08:35Z</time>
      </trkpt>
      <trkpt lat="45.89374" lon="6.17785">
        <ele>783</ele>
        <time>2018-08-06T07:08:38Z</time>
      </trkpt>
      <trkpt lat="45.89379" lon="6.17781">
        <ele>782</ele>
        <time>2018-08-06T07:08:41Z</time>
      </trkpt>
      <trkpt lat="45.89384" lon="6.17773">
        <ele>781</ele>
        <time>2018-08-06T07:08:47Z</time>
      </trkpt>
      <trkpt lat="45.8939" lon="6.17767">
        <ele>780</ele>
        <time>2018-08-06T07:08:51Z</time>
      </trkpt>
      <trkpt lat="45.89396" lon="6.17764">
        <ele>778</ele>
        <time>2018-08-06T07:08:58Z</time>
      </trkpt>
      <trkpt lat="45.89402" lon="6.17766">
        <ele>778</ele>
        <time>2018-08-06T07:09:02Z</time>
      </trkpt>
      <trkpt lat="45.89411" lon="6.17766">
        <ele>776</ele>
        <time>2018-08-06T07:09:06Z</time>
      </trkpt>
      <trkpt lat="45.89417" lon="6.17767">
        <ele>775</ele>
        <time>2018-08-06T07:09:14Z</time>
      </trkpt>
      <trkpt lat="45.89424" lon="6.17759">
        <ele>773</ele>
        <time>2018-08-06T07:09:19Z</time>
      </trkpt>
      <trkpt lat="45.89432" lon="6.17758">
        <ele>772</ele>
        <time>2018-08-06T07:09:24Z</time>
      </trkpt>
      <trkpt lat="45.89437" lon="6.17754">
        <ele>769</ele>
        <time>2018-08-06T07:09:31Z</time>
      </trkpt>
      <trkpt lat="45.89442" lon="6.17759">
        <ele>768</ele>
        <time>2018-08-06T07:09:34Z</time>
      </trkpt>
      <trkpt lat="45.8945" lon="6.17759">
        <ele>767</ele>
        <time>2018-08-06T07:09:39Z</time>
      </trkpt>
      <trkpt lat="45.89456" lon="6.17757">
        <ele>766</ele>
        <time>2018-08-06T07:09:43Z</time>
      </trkpt>
      <trkpt lat="45.89462" lon="6.17754">
        <ele>765</ele>
        <time>2018-08-06T07:09:52Z</time>
      </trkpt>
      <trkpt lat="45.89468" lon="6.17755">
        <ele>763</ele>
        <time>2018-08-06T07:09:56Z</time>
      </trkpt>
      <trkpt lat="45.89473" lon="6.17752">
        <ele>763</ele>
        <time>2018-08-06T07:10:00Z</time>
      </trkpt>
      <trkpt lat="45.89477" lon="6.17739">
        <ele>761</ele>
        <time>2018-08-06T07:10:10Z</time>
      </trkpt>
      <trkpt lat="45.8948" lon="6.17728">
        <ele>759</ele>
        <time>2018-08-06T07:10:20Z</time>
      </trkpt>
      <trkpt lat="45.89479" lon="6.17717">
        <ele>758</ele>
        <time>2018-08-06T07:10:27Z</time>
      </trkpt>
      <trkpt lat="45.89479" lon="6.17709">
        <ele>756</ele>
        <time>2018-08-06T07:10:34Z</time>
      </trkpt>
      <trkpt lat="45.89479" lon="6.17689">
        <ele>754</ele>
        <time>2018-08-06T07:10:44Z</time>
      </trkpt>
      <trkpt lat="45.89477" lon="6.17681">
        <ele>753</ele>
        <time>2018-08-06T07:10:49Z</time>
      </trkpt>
      <trkpt lat="45.89472" lon="6.17654">
        <ele>751</ele>
        <time>2018-08-06T07:10:55Z</time>
      </trkpt>
      <trkpt lat="45.89471" lon="6.17643">
        <ele>751</ele>
        <time>2018-08-06T07:11:00Z</time>
      </trkpt>
      <trkpt lat="45.8947" lon="6.17616">
        <ele>748</ele>
        <time>2018-08-06T07:11:10Z</time>
      </trkpt>
      <trkpt lat="45.89471" lon="6.17608">
        <ele>748</ele>
        <time>2018-08-06T07:11:13Z</time>
      </trkpt>
      <trkpt lat="45.89472" lon="6.176">
        <ele>747</ele>
        <time>2018-08-06T07:11:16Z</time>
      </trkpt>
      <trkpt lat="45.89485" lon="6.17581">
        <ele>743</ele>
        <time>2018-08-06T07:11:33Z</time>
      </trkpt>
      <trkpt lat="45.89501" lon="6.17569">
        <ele>737</ele>
        <time>2018-08-06T07:11:47Z</time>
      </trkpt>
      <trkpt lat="45.89505" lon="6.17562">
        <ele>734</ele>
        <time>2018-08-06T07:11:54Z</time>
      </trkpt>
      <trkpt lat="45.89512" lon="6.17562">
        <ele>732</ele>
        <time>2018-08-06T07:11:59Z</time>
      </trkpt>
      <trkpt lat="45.89518" lon="6.17562">
        <ele>730</ele>
        <time>2018-08-06T07:12:04Z</time>
      </trkpt>
      <trkpt lat="45.89523" lon="6.17565">
        <ele>728</ele>
        <time>2018-08-06T07:12:10Z</time>
      </trkpt>
      <trkpt lat="45.89529" lon="6.17568">
        <ele>726</ele>
        <time>2018-08-06T07:12:16Z</time>
      </trkpt>
      <trkpt lat="45.89535" lon="6.17568">
        <ele>725</ele>
        <time>2018-08-06T07:12:24Z</time>
      </trkpt>
      <trkpt lat="45.89541" lon="6.17567">
        <ele>724</ele>
        <time>2018-08-06T07:12:28Z</time>
      </trkpt>
      <trkpt lat="45.89545" lon="6.17567">
        <ele>723</ele>
        <time>2018-08-06T07:12:31Z</time>
      </trkpt>
      <trkpt lat="45.89548" lon="6.1757">
        <ele>722</ele>
        <time>2018-08-06T07:12:37Z</time>
      </trkpt>
      <trkpt lat="45.89553" lon="6.17572">
        <ele>722</ele>
        <time>2018-08-06T07:12:42Z</time>
      </trkpt>
      <trkpt lat="45.89557" lon="6.17572">
        <ele>721</ele>
        <time>2018-08-06T07:12:44Z</time>
      </trkpt>
      <trkpt lat="45.89566" lon="6.17571">
        <ele>721</ele>
        <time>2018-08-06T07:12:52Z</time>
      </trkpt>
      <trkpt lat="45.8957" lon="6.17572">
        <ele>720</ele>
        <time>2018-08-06T07:12:55Z</time>
      </trkpt>
      <trkpt lat="45.89574" lon="6.17571">
        <ele>720</ele>
        <time>2018-08-06T07:12:57Z</time>
      </trkpt>
      <trkpt lat="45.8958" lon="6.17569">
        <ele>720</ele>
        <time>2018-08-06T07:13:01Z</time>
      </trkpt>
      <trkpt lat="45.89597" lon="6.17569">
        <ele>719</ele>
        <time>2018-08-06T07:13:15Z</time>
      </trkpt>
      <trkpt lat="45.89603" lon="6.17567">
        <ele>719</ele>
        <time>2018-08-06T07:13:22Z</time>
      </trkpt>
      <trkpt lat="45.89606" lon="6.17563">
        <ele>719</ele>
        <time>2018-08-06T07:13:26Z</time>
      </trkpt>
      <trkpt lat="45.89609" lon="6.1756">
        <ele>719</ele>
        <time>2018-08-06T07:13:30Z</time>
      </trkpt>
      <trkpt lat="45.89613" lon="6.17555">
        <ele>720</ele>
        <time>2018-08-06T07:13:42Z</time>
      </trkpt>
      <trkpt lat="45.89618" lon="6.17536">
        <ele>720</ele>
        <time>2018-08-06T07:13:46Z</time>
      </trkpt>
      <trkpt lat="45.89619" lon="6.17529">
        <ele>720</ele>
        <time>2018-08-06T07:13:48Z</time>
      </trkpt>
      <trkpt lat="45.89621" lon="6.17513">
        <ele>721</ele>
        <time>2018-08-06T07:14:09Z</time>
      </trkpt>
      <trkpt lat="45.89619" lon="6.17502">
        <ele>722</ele>
        <time>2018-08-06T07:14:24Z</time>
      </trkpt>
      <trkpt lat="45.89615" lon="6.17491">
        <ele>723</ele>
        <time>2018-08-06T07:14:32Z</time>
      </trkpt>
      <trkpt lat="45.89613" lon="6.17484">
        <ele>724</ele>
        <time>2018-08-06T07:14:36Z</time>
      </trkpt>
      <trkpt lat="45.89606" lon="6.17486">
        <ele>724</ele>
        <time>2018-08-06T07:14:43Z</time>
      </trkpt>
      <trkpt lat="45.896" lon="6.17487">
        <ele>724</ele>
        <time>2018-08-06T07:14:47Z</time>
      </trkpt>
      <trkpt lat="45.89596" lon="6.17482">
        <ele>724</ele>
        <time>2018-08-06T07:14:52Z</time>
      </trkpt>
      <trkpt lat="45.89593" lon="6.17475">
        <ele>724</ele>
        <time>2018-08-06T07:14:55Z</time>
      </trkpt>
      <trkpt lat="45.89584" lon="6.17462">
        <ele>723</ele>
        <time>2018-08-06T07:15:00Z</time>
      </trkpt>
      <trkpt lat="45.89581" lon="6.17455">
        <ele>723</ele>
        <time>2018-08-06T07:15:04Z</time>
      </trkpt>
      <trkpt lat="45.89582" lon="6.17447">
        <ele>723</ele>
        <time>2018-08-06T07:15:07Z</time>
      </trkpt>
      <trkpt lat="45.89582" lon="6.17434">
        <ele>722</ele>
        <time>2018-08-06T07:15:12Z</time>
      </trkpt>
      <trkpt lat="45.89581" lon="6.17426">
        <ele>722</ele>
        <time>2018-08-06T07:15:15Z</time>
      </trkpt>
      <trkpt lat="45.8958" lon="6.17417">
        <ele>722</ele>
        <time>2018-08-06T07:15:18Z</time>
      </trkpt>
      <trkpt lat="45.8958" lon="6.17408">
        <ele>722</ele>
        <time>2018-08-06T07:15:21Z</time>
      </trkpt>
      <trkpt lat="45.89577" lon="6.17398">
        <ele>721</ele>
        <time>2018-08-06T07:15:27Z</time>
      </trkpt>
      <trkpt lat="45.89575" lon="6.17391">
        <ele>721</ele>
        <time>2018-08-06T07:15:33Z</time>
      </trkpt>
      <trkpt lat="45.8957" lon="6.17374">
        <ele>720</ele>
        <time>2018-08-06T07:15:39Z</time>
      </trkpt>
      <trkpt lat="45.89566" lon="6.17364">
        <ele>720</ele>
        <time>2018-08-06T07:15:42Z</time>
      </trkpt>
      <trkpt lat="45.89565" lon="6.17356">
        <ele>720</ele>
        <time>2018-08-06T07:15:44Z</time>
      </trkpt>
      <trkpt lat="45.89563" lon="6.17349">
        <ele>720</ele>
        <time>2018-08-06T07:15:47Z</time>
      </trkpt>
      <trkpt lat="45.89559" lon="6.17342">
        <ele>719</ele>
        <time>2018-08-06T07:15:51Z</time>
      </trkpt>
      <trkpt lat="45.8956" lon="6.17333">
        <ele>719</ele>
        <time>2018-08-06T07:15:54Z</time>
      </trkpt>
      <trkpt lat="45.8956" lon="6.17325">
        <ele>719</ele>
        <time>2018-08-06T07:15:58Z</time>
      </trkpt>
      <trkpt lat="45.89561" lon="6.1732">
        <ele>719</ele>
        <time>2018-08-06T07:16:02Z</time>
      </trkpt>
      <trkpt lat="45.89562" lon="6.17313">
        <ele>719</ele>
        <time>2018-08-06T07:16:06Z</time>
      </trkpt>
      <trkpt lat="45.89561" lon="6.17307">
        <ele>719</ele>
        <time>2018-08-06T07:16:09Z</time>
      </trkpt>
      <trkpt lat="45.89561" lon="6.17302">
        <ele>719</ele>
        <time>2018-08-06T07:16:12Z</time>
      </trkpt>
      <trkpt lat="45.89564" lon="6.17296">
        <ele>718</ele>
        <time>2018-08-06T07:16:15Z</time>
      </trkpt>
      <trkpt lat="45.89565" lon="6.17285">
        <ele>718</ele>
        <time>2018-08-06T07:16:22Z</time>
      </trkpt>
      <trkpt lat="45.89566" lon="6.17271">
        <ele>718</ele>
        <time>2018-08-06T07:16:30Z</time>
      </trkpt>
      <trkpt lat="45.89567" lon="6.17264">
        <ele>718</ele>
        <time>2018-08-06T07:16:34Z</time>
      </trkpt>
      <trkpt lat="45.89567" lon="6.17259">
        <ele>718</ele>
        <time>2018-08-06T07:16:37Z</time>
      </trkpt>
      <trkpt lat="45.89572" lon="6.17241">
        <ele>718</ele>
        <time>2018-08-06T07:16:45Z</time>
      </trkpt>
      <trkpt lat="45.89575" lon="6.17228">
        <ele>718</ele>
        <time>2018-08-06T07:16:51Z</time>
      </trkpt>
      <trkpt lat="45.89579" lon="6.17222">
        <ele>718</ele>
        <time>2018-08-06T07:16:54Z</time>
      </trkpt>
      <trkpt lat="45.89582" lon="6.17219">
        <ele>718</ele>
        <time>2018-08-06T07:16:57Z</time>
      </trkpt>
      <trkpt lat="45.89585" lon="6.17215">
        <ele>718</ele>
        <time>2018-08-06T07:17:00Z</time>
      </trkpt>
      <trkpt lat="45.8959" lon="6.17213">
        <ele>718</ele>
        <time>2018-08-06T07:17:04Z</time>
      </trkpt>
      <trkpt lat="45.89607" lon="6.17204">
        <ele>718</ele>
        <time>2018-08-06T07:17:15Z</time>
      </trkpt>
      <trkpt lat="45.8961" lon="6.17197">
        <ele>718</ele>
        <time>2018-08-06T07:17:19Z</time>
      </trkpt>
      <trkpt lat="45.89622" lon="6.17193">
        <ele>718</ele>
        <time>2018-08-06T07:17:31Z</time>
      </trkpt>
      <trkpt lat="45.89623" lon="6.17186">
        <ele>718</ele>
        <time>2018-08-06T07:17:34Z</time>
      </trkpt>
      <trkpt lat="45.89628" lon="6.17179">
        <ele>718</ele>
        <time>2018-08-06T07:17:41Z</time>
      </trkpt>
      <trkpt lat="45.89632" lon="6.17174">
        <ele>718</ele>
        <time>2018-08-06T07:17:44Z</time>
      </trkpt>
      <trkpt lat="45.89637" lon="6.17167">
        <ele>718</ele>
        <time>2018-08-06T07:17:48Z</time>
      </trkpt>
      <trkpt lat="45.89643" lon="6.17164">
        <ele>718</ele>
        <time>2018-08-06T07:17:53Z</time>
      </trkpt>
      <trkpt lat="45.89652" lon="6.17155">
        <ele>718</ele>
        <time>2018-08-06T07:18:03Z</time>
      </trkpt>
      <trkpt lat="45.89657" lon="6.17147">
        <ele>718</ele>
        <time>2018-08-06T07:18:07Z</time>
      </trkpt>
      <trkpt lat="45.8966" lon="6.17141">
        <ele>718</ele>
        <time>2018-08-06T07:18:12Z</time>
      </trkpt>
      <trkpt lat="45.89664" lon="6.17134">
        <ele>718</ele>
        <time>2018-08-06T07:18:16Z</time>
      </trkpt>
      <trkpt lat="45.89668" lon="6.17127">
        <ele>718</ele>
        <time>2018-08-06T07:18:21Z</time>
      </trkpt>
      <trkpt lat="45.89674" lon="6.17123">
        <ele>718</ele>
        <time>2018-08-06T07:18:25Z</time>
      </trkpt>
      <trkpt lat="45.89681" lon="6.17116">
        <ele>718</ele>
        <time>2018-08-06T07:18:28Z</time>
      </trkpt>
      <trkpt lat="45.89687" lon="6.17112">
        <ele>718</ele>
        <time>2018-08-06T07:18:30Z</time>
      </trkpt>
      <trkpt lat="45.89693" lon="6.17106">
        <ele>718</ele>
        <time>2018-08-06T07:18:33Z</time>
      </trkpt>
      <trkpt lat="45.89699" lon="6.17093">
        <ele>718</ele>
        <time>2018-08-06T07:18:39Z</time>
      </trkpt>
      <trkpt lat="45.89704" lon="6.17089">
        <ele>718</ele>
        <time>2018-08-06T07:18:42Z</time>
      </trkpt>
      <trkpt lat="45.8971" lon="6.17087">
        <ele>718</ele>
        <time>2018-08-06T07:18:46Z</time>
      </trkpt>
      <trkpt lat="45.89716" lon="6.17086">
        <ele>718</ele>
        <time>2018-08-06T07:18:51Z</time>
      </trkpt>
      <trkpt lat="45.89721" lon="6.17087">
        <ele>718</ele>
        <time>2018-08-06T07:18:56Z</time>
      </trkpt>
      <trkpt lat="45.89727" lon="6.17087">
        <ele>718</ele>
        <time>2018-08-06T07:19:01Z</time>
      </trkpt>
      <trkpt lat="45.89732" lon="6.17084">
        <ele>718</ele>
        <time>2018-08-06T07:19:07Z</time>
      </trkpt>
      <trkpt lat="45.89737" lon="6.1708">
        <ele>719</ele>
        <time>2018-08-06T07:19:11Z</time>
      </trkpt>
      <trkpt lat="45.89743" lon="6.17077">
        <ele>719</ele>
        <time>2018-08-06T07:19:15Z</time>
      </trkpt>
      <trkpt lat="45.89748" lon="6.17071">
        <ele>719</ele>
        <time>2018-08-06T07:19:19Z</time>
      </trkpt>
      <trkpt lat="45.89755" lon="6.17066">
        <ele>719</ele>
        <time>2018-08-06T07:19:23Z</time>
      </trkpt>
      <trkpt lat="45.89765" lon="6.17054">
        <ele>719</ele>
        <time>2018-08-06T07:19:29Z</time>
      </trkpt>
      <trkpt lat="45.89771" lon="6.17053">
        <ele>719</ele>
        <time>2018-08-06T07:19:38Z</time>
      </trkpt>
      <trkpt lat="45.89776" lon="6.17056">
        <ele>719</ele>
        <time>2018-08-06T07:19:41Z</time>
      </trkpt>
      <trkpt lat="45.89783" lon="6.17056">
        <ele>719</ele>
        <time>2018-08-06T07:19:44Z</time>
      </trkpt>
      <trkpt lat="45.89787" lon="6.1705">
        <ele>719</ele>
        <time>2018-08-06T07:19:46Z</time>
      </trkpt>
      <trkpt lat="45.89792" lon="6.17043">
        <ele>719</ele>
        <time>2018-08-06T07:19:49Z</time>
      </trkpt>
      <trkpt lat="45.89796" lon="6.17036">
        <ele>719</ele>
        <time>2018-08-06T07:19:53Z</time>
      </trkpt>
      <trkpt lat="45.89799" lon="6.17028">
        <ele>719</ele>
        <time>2018-08-06T07:20:01Z</time>
      </trkpt>
      <trkpt lat="45.89799" lon="6.17019">
        <ele>719</ele>
        <time>2018-08-06T07:20:06Z</time>
      </trkpt>
      <trkpt lat="45.89802" lon="6.1701">
        <ele>719</ele>
        <time>2018-08-06T07:20:12Z</time>
      </trkpt>
      <trkpt lat="45.89802" lon="6.17001">
        <ele>719</ele>
        <time>2018-08-06T07:20:18Z</time>
      </trkpt>
      <trkpt lat="45.89807" lon="6.16997">
        <ele>719</ele>
        <time>2018-08-06T07:20:27Z</time>
      </trkpt>
      <trkpt lat="45.89811" lon="6.16996">
        <ele>719</ele>
        <time>2018-08-06T07:20:31Z</time>
      </trkpt>
      <trkpt lat="45.89812" lon="6.16991">
        <ele>720</ele>
        <time>2018-08-06T07:20:34Z</time>
      </trkpt>
      <trkpt lat="45.89811" lon="6.16975">
        <ele>720</ele>
        <time>2018-08-06T07:20:45Z</time>
      </trkpt>
      <trkpt lat="45.8981" lon="6.16954">
        <ele>720</ele>
        <time>2018-08-06T07:20:54Z</time>
      </trkpt>
      <trkpt lat="45.89809" lon="6.16944">
        <ele>720</ele>
        <time>2018-08-06T07:20:57Z</time>
      </trkpt>
      <trkpt lat="45.89808" lon="6.16935">
        <ele>720</ele>
        <time>2018-08-06T07:21:01Z</time>
      </trkpt>
      <trkpt lat="45.89809" lon="6.16924">
        <ele>720</ele>
        <time>2018-08-06T07:21:05Z</time>
      </trkpt>
      <trkpt lat="45.89808" lon="6.16914">
        <ele>720</ele>
        <time>2018-08-06T07:21:09Z</time>
      </trkpt>
      <trkpt lat="45.89806" lon="6.16905">
        <ele>720</ele>
        <time>2018-08-06T07:21:14Z</time>
      </trkpt>
      <trkpt lat="45.89805" lon="6.169">
        <ele>720</ele>
        <time>2018-08-06T07:21:16Z</time>
      </trkpt>
      <trkpt lat="45.89805" lon="6.16895">
        <ele>720</ele>
        <time>2018-08-06T07:21:18Z</time>
      </trkpt>
      <trkpt lat="45.89806" lon="6.16887">
        <ele>720</ele>
        <time>2018-08-06T07:21:21Z</time>
      </trkpt>
      <trkpt lat="45.89805" lon="6.16881">
        <ele>720</ele>
        <time>2018-08-06T07:21:23Z</time>
      </trkpt>
      <trkpt lat="45.89805" lon="6.16875">
        <ele>720</ele>
        <time>2018-08-06T07:21:25Z</time>
      </trkpt>
      <trkpt lat="45.89807" lon="6.16868">
        <ele>720</ele>
        <time>2018-08-06T07:21:28Z</time>
      </trkpt>
      <trkpt lat="45.89807" lon="6.16862">
        <ele>720</ele>
        <time>2018-08-06T07:21:31Z</time>
      </trkpt>
      <trkpt lat="45.89812" lon="6.16847">
        <ele>720</ele>
        <time>2018-08-06T07:21:37Z</time>
      </trkpt>
      <trkpt lat="45.89816" lon="6.16842">
        <ele>720</ele>
        <time>2018-08-06T07:21:40Z</time>
      </trkpt>
      <trkpt lat="45.89821" lon="6.16835">
        <ele>720</ele>
        <time>2018-08-06T07:21:44Z</time>
      </trkpt>
      <trkpt lat="45.89827" lon="6.16831">
        <ele>720</ele>
        <time>2018-08-06T07:21:50Z</time>
      </trkpt>
      <trkpt lat="45.89831" lon="6.16824">
        <ele>720</ele>
        <time>2018-08-06T07:21:55Z</time>
      </trkpt>
      <trkpt lat="45.8984" lon="6.16813">
        <ele>720</ele>
        <time>2018-08-06T07:22:06Z</time>
      </trkpt>
      <trkpt lat="45.89844" lon="6.16807">
        <ele>720</ele>
        <time>2018-08-06T07:22:09Z</time>
      </trkpt>
      <trkpt lat="45.8985" lon="6.168">
        <ele>719</ele>
        <time>2018-08-06T07:22:14Z</time>
      </trkpt>
      <trkpt lat="45.89857" lon="6.16793">
        <ele>719</ele>
        <time>2018-08-06T07:22:18Z</time>
      </trkpt>
      <trkpt lat="45.89861" lon="6.16785">
        <ele>719</ele>
        <time>2018-08-06T07:22:20Z</time>
      </trkpt>
      <trkpt lat="45.89865" lon="6.16779">
        <ele>719</ele>
        <time>2018-08-06T07:22:23Z</time>
      </trkpt>
      <trkpt lat="45.89869" lon="6.16772">
        <ele>719</ele>
        <time>2018-08-06T07:22:27Z</time>
      </trkpt>
      <trkpt lat="45.89871" lon="6.16765">
        <ele>719</ele>
        <time>2018-08-06T07:22:32Z</time>
      </trkpt>
      <trkpt lat="45.89879" lon="6.16751">
        <ele>718</ele>
        <time>2018-08-06T07:22:40Z</time>
      </trkpt>
      <trkpt lat="45.89883" lon="6.16745">
        <ele>718</ele>
        <time>2018-08-06T07:22:44Z</time>
      </trkpt>
      <trkpt lat="45.89887" lon="6.16738">
        <ele>718</ele>
        <time>2018-08-06T07:22:50Z</time>
      </trkpt>
      <trkpt lat="45.89891" lon="6.16731">
        <ele>718</ele>
        <time>2018-08-06T07:22:53Z</time>
      </trkpt>
      <trkpt lat="45.89895" lon="6.16721">
        <ele>718</ele>
        <time>2018-08-06T07:22:58Z</time>
      </trkpt>
      <trkpt lat="45.89899" lon="6.16715">
        <ele>718</ele>
        <time>2018-08-06T07:23:00Z</time>
      </trkpt>
      <trkpt lat="45.89902" lon="6.16706">
        <ele>717</ele>
        <time>2018-08-06T07:23:04Z</time>
      </trkpt>
      <trkpt lat="45.8991" lon="6.1669">
        <ele>717</ele>
        <time>2018-08-06T07:23:10Z</time>
      </trkpt>
      <trkpt lat="45.89913" lon="6.16684">
        <ele>717</ele>
        <time>2018-08-06T07:23:13Z</time>
      </trkpt>
      <trkpt lat="45.89918" lon="6.16678">
        <ele>717</ele>
        <time>2018-08-06T07:23:16Z</time>
      </trkpt>
      <trkpt lat="45.89923" lon="6.16673">
        <ele>717</ele>
        <time>2018-08-06T07:23:20Z</time>
      </trkpt>
      <trkpt lat="45.89925" lon="6.16666">
        <ele>716</ele>
        <time>2018-08-06T07:23:28Z</time>
      </trkpt>
      <trkpt lat="45.89924" lon="6.16658">
        <ele>716</ele>
        <time>2018-08-06T07:23:33Z</time>
      </trkpt>
      <trkpt lat="45.89922" lon="6.16641">
        <ele>715</ele>
        <time>2018-08-06T07:23:45Z</time>
      </trkpt>
      <trkpt lat="45.8992" lon="6.16634">
        <ele>714</ele>
        <time>2018-08-06T07:23:49Z</time>
      </trkpt>
      <trkpt lat="45.89921" lon="6.16627">
        <ele>714</ele>
        <time>2018-08-06T07:23:52Z</time>
      </trkpt>
      <trkpt lat="45.89923" lon="6.16622">
        <ele>714</ele>
        <time>2018-08-06T07:23:54Z</time>
      </trkpt>
      <trkpt lat="45.89925" lon="6.16617">
        <ele>714</ele>
        <time>2018-08-06T07:23:56Z</time>
      </trkpt>
      <trkpt lat="45.89925" lon="6.16609">
        <ele>714</ele>
        <time>2018-08-06T07:24:02Z</time>
      </trkpt>
      <trkpt lat="45.89928" lon="6.16604">
        <ele>713</ele>
        <time>2018-08-06T07:24:07Z</time>
      </trkpt>
      <trkpt lat="45.89928" lon="6.16599">
        <ele>713</ele>
        <time>2018-08-06T07:24:10Z</time>
      </trkpt>
      <trkpt lat="45.89929" lon="6.16593">
        <ele>713</ele>
        <time>2018-08-06T07:24:13Z</time>
      </trkpt>
      <trkpt lat="45.89929" lon="6.16583">
        <ele>713</ele>
        <time>2018-08-06T07:24:20Z</time>
      </trkpt>
      <trkpt lat="45.89932" lon="6.16573">
        <ele>712</ele>
        <time>2018-08-06T07:24:23Z</time>
      </trkpt>
      <trkpt lat="45.89931" lon="6.16565">
        <ele>712</ele>
        <time>2018-08-06T07:24:29Z</time>
      </trkpt>
      <trkpt lat="45.89932" lon="6.16559">
        <ele>712</ele>
        <time>2018-08-06T07:24:36Z</time>
      </trkpt>
      <trkpt lat="45.89931" lon="6.16553">
        <ele>711</ele>
        <time>2018-08-06T07:24:40Z</time>
      </trkpt>
      <trkpt lat="45.8993" lon="6.16547">
        <ele>711</ele>
        <time>2018-08-06T07:24:43Z</time>
      </trkpt>
      <trkpt lat="45.89934" lon="6.16528">
        <ele>710</ele>
        <time>2018-08-06T07:24:52Z</time>
      </trkpt>
      <trkpt lat="45.89933" lon="6.16523">
        <ele>710</ele>
        <time>2018-08-06T07:24:55Z</time>
      </trkpt>
      <trkpt lat="45.89931" lon="6.16518">
        <ele>710</ele>
        <time>2018-08-06T07:24:58Z</time>
      </trkpt>
      <trkpt lat="45.89933" lon="6.16513">
        <ele>709</ele>
        <time>2018-08-06T07:25:04Z</time>
      </trkpt>
      <trkpt lat="45.89935" lon="6.16506">
        <ele>709</ele>
        <time>2018-08-06T07:25:08Z</time>
      </trkpt>
      <trkpt lat="45.89937" lon="6.16498">
        <ele>708</ele>
        <time>2018-08-06T07:25:11Z</time>
      </trkpt>
      <trkpt lat="45.89942" lon="6.16494">
        <ele>708</ele>
        <time>2018-08-06T07:25:17Z</time>
      </trkpt>
      <trkpt lat="45.89948" lon="6.16494">
        <ele>707</ele>
        <time>2018-08-06T07:25:20Z</time>
      </trkpt>
      <trkpt lat="45.89972" lon="6.16488">
        <ele>705</ele>
        <time>2018-08-06T07:25:31Z</time>
      </trkpt>
      <trkpt lat="45.89988" lon="6.16489">
        <ele>704</ele>
        <time>2018-08-06T07:25:43Z</time>
      </trkpt>
      <trkpt lat="45.89996" lon="6.1649">
        <ele>703</ele>
        <time>2018-08-06T07:25:47Z</time>
      </trkpt>
      <trkpt lat="45.90007" lon="6.16492">
        <ele>701</ele>
        <time>2018-08-06T07:25:58Z</time>
      </trkpt>
      <trkpt lat="45.90012" lon="6.16489">
        <ele>701</ele>
        <time>2018-08-06T07:26:07Z</time>
      </trkpt>
      <trkpt lat="45.90015" lon="6.16485">
        <ele>700</ele>
        <time>2018-08-06T07:26:11Z</time>
      </trkpt>
      <trkpt lat="45.90019" lon="6.1648">
        <ele>700</ele>
        <time>2018-08-06T07:26:15Z</time>
      </trkpt>
      <trkpt lat="45.90033" lon="6.16477">
        <ele>699</ele>
        <time>2018-08-06T07:26:23Z</time>
      </trkpt>
      <trkpt lat="45.90053" lon="6.16471">
        <ele>698</ele>
        <time>2018-08-06T07:26:33Z</time>
      </trkpt>
      <trkpt lat="45.90065" lon="6.16471">
        <ele>697</ele>
        <time>2018-08-06T07:26:39Z</time>
      </trkpt>
      <trkpt lat="45.90095" lon="6.16475">
        <ele>696</ele>
        <time>2018-08-06T07:26:57Z</time>
      </trkpt>
      <trkpt lat="45.90101" lon="6.16477">
        <ele>696</ele>
        <time>2018-08-06T07:27:00Z</time>
      </trkpt>
      <trkpt lat="45.90114" lon="6.16472">
        <ele>695</ele>
        <time>2018-08-06T07:27:06Z</time>
      </trkpt>
      <trkpt lat="45.90119" lon="6.16471">
        <ele>695</ele>
        <time>2018-08-06T07:27:09Z</time>
      </trkpt>
      <trkpt lat="45.90125" lon="6.16471">
        <ele>695</ele>
        <time>2018-08-06T07:27:13Z</time>
      </trkpt>
      <trkpt lat="45.90131" lon="6.16473">
        <ele>695</ele>
        <time>2018-08-06T07:27:19Z</time>
      </trkpt>
      <trkpt lat="45.90138" lon="6.16474">
        <ele>694</ele>
        <time>2018-08-06T07:27:25Z</time>
      </trkpt>
      <trkpt lat="45.90149" lon="6.16473">
        <ele>694</ele>
        <time>2018-08-06T07:27:32Z</time>
      </trkpt>
      <trkpt lat="45.90157" lon="6.16474">
        <ele>693</ele>
        <time>2018-08-06T07:27:37Z</time>
      </trkpt>
      <trkpt lat="45.9017" lon="6.16475">
        <ele>693</ele>
        <time>2018-08-06T07:27:44Z</time>
      </trkpt>
      <trkpt lat="45.90175" lon="6.16474">
        <ele>693</ele>
        <time>2018-08-06T07:27:47Z</time>
      </trkpt>
      <trkpt lat="45.90181" lon="6.16475">
        <ele>693</ele>
        <time>2018-08-06T07:27:52Z</time>
      </trkpt>
      <trkpt lat="45.90188" lon="6.16474">
        <ele>692</ele>
        <time>2018-08-06T07:27:56Z</time>
      </trkpt>
      <trkpt lat="45.90193" lon="6.16471">
        <ele>692</ele>
        <time>2018-08-06T07:28:00Z</time>
      </trkpt>
      <trkpt lat="45.90199" lon="6.16472">
        <ele>692</ele>
        <time>2018-08-06T07:28:04Z</time>
      </trkpt>
      <trkpt lat="45.90207" lon="6.16474">
        <ele>692</ele>
        <time>2018-08-06T07:28:08Z</time>
      </trkpt>
      <trkpt lat="45.90212" lon="6.16476">
        <ele>691</ele>
        <time>2018-08-06T07:28:11Z</time>
      </trkpt>
      <trkpt lat="45.90219" lon="6.16478">
        <ele>691</ele>
        <time>2018-08-06T07:28:14Z</time>
      </trkpt>
      <trkpt lat="45.90228" lon="6.16485">
        <ele>691</ele>
        <time>2018-08-06T07:28:20Z</time>
      </trkpt>
      <trkpt lat="45.90241" lon="6.16488">
        <ele>690</ele>
        <time>2018-08-06T07:28:30Z</time>
      </trkpt>
      <trkpt lat="45.90253" lon="6.16497">
        <ele>689</ele>
        <time>2018-08-06T07:28:37Z</time>
      </trkpt>
      <trkpt lat="45.90259" lon="6.16499">
        <ele>689</ele>
        <time>2018-08-06T07:28:41Z</time>
      </trkpt>
      <trkpt lat="45.90264" lon="6.16501">
        <ele>689</ele>
        <time>2018-08-06T07:28:45Z</time>
      </trkpt>
      <trkpt lat="45.90274" lon="6.16511">
        <ele>688</ele>
        <time>2018-08-06T07:28:53Z</time>
      </trkpt>
      <trkpt lat="45.9028" lon="6.16514">
        <ele>687</ele>
        <time>2018-08-06T07:28:59Z</time>
      </trkpt>
      <trkpt lat="45.90286" lon="6.16515">
        <ele>687</ele>
        <time>2018-08-06T07:29:03Z</time>
      </trkpt>
      <trkpt lat="45.90291" lon="6.16512">
        <ele>687</ele>
        <time>2018-08-06T07:29:05Z</time>
      </trkpt>
      <trkpt lat="45.90296" lon="6.16508">
        <ele>686</ele>
        <time>2018-08-06T07:29:08Z</time>
      </trkpt>
      <trkpt lat="45.90303" lon="6.1651">
        <ele>686</ele>
        <time>2018-08-06T07:29:11Z</time>
      </trkpt>
      <trkpt lat="45.90315" lon="6.16516">
        <ele>686</ele>
        <time>2018-08-06T07:29:19Z</time>
      </trkpt>
      <trkpt lat="45.90321" lon="6.1652">
        <ele>685</ele>
        <time>2018-08-06T07:29:24Z</time>
      </trkpt>
      <trkpt lat="45.90327" lon="6.16519">
        <ele>685</ele>
        <time>2018-08-06T07:29:29Z</time>
      </trkpt>
      <trkpt lat="45.90332" lon="6.16518">
        <ele>685</ele>
        <time>2018-08-06T07:29:32Z</time>
      </trkpt>
      <trkpt lat="45.90356" lon="6.16529">
        <ele>684</ele>
        <time>2018-08-06T07:29:49Z</time>
      </trkpt>
      <trkpt lat="45.90362" lon="6.16527">
        <ele>683</ele>
        <time>2018-08-06T07:29:54Z</time>
      </trkpt>
      <trkpt lat="45.90368" lon="6.16529">
        <ele>683</ele>
        <time>2018-08-06T07:29:57Z</time>
      </trkpt>
      <trkpt lat="45.90373" lon="6.16531">
        <ele>683</ele>
        <time>2018-08-06T07:30:00Z</time>
      </trkpt>
      <trkpt lat="45.90378" lon="6.16536">
        <ele>683</ele>
        <time>2018-08-06T07:30:03Z</time>
      </trkpt>
      <trkpt lat="45.90384" lon="6.16533">
        <ele>683</ele>
        <time>2018-08-06T07:30:08Z</time>
      </trkpt>
      <trkpt lat="45.9039" lon="6.16533">
        <ele>682</ele>
        <time>2018-08-06T07:30:14Z</time>
      </trkpt>
      <trkpt lat="45.90397" lon="6.16536">
        <ele>682</ele>
        <time>2018-08-06T07:30:18Z</time>
      </trkpt>
      <trkpt lat="45.90408" lon="6.16537">
        <ele>682</ele>
        <time>2018-08-06T07:30:26Z</time>
      </trkpt>
      <trkpt lat="45.90414" lon="6.16539">
        <ele>681</ele>
        <time>2018-08-06T07:30:33Z</time>
      </trkpt>
      <trkpt lat="45.90419" lon="6.16543">
        <ele>681</ele>
        <time>2018-08-06T07:30:39Z</time>
      </trkpt>
      <trkpt lat="45.90425" lon="6.16548">
        <ele>680</ele>
        <time>2018-08-06T07:30:43Z</time>
      </trkpt>
      <trkpt lat="45.90431" lon="6.16549">
        <ele>680</ele>
        <time>2018-08-06T07:30:46Z</time>
      </trkpt>
      <trkpt lat="45.90438" lon="6.16548">
        <ele>680</ele>
        <time>2018-08-06T07:30:50Z</time>
      </trkpt>
      <trkpt lat="45.90445" lon="6.16547">
        <ele>680</ele>
        <time>2018-08-06T07:30:53Z</time>
      </trkpt>
      <trkpt lat="45.9045" lon="6.16548">
        <ele>680</ele>
        <time>2018-08-06T07:30:55Z</time>
      </trkpt>
      <trkpt lat="45.90456" lon="6.1655">
        <ele>679</ele>
        <time>2018-08-06T07:30:59Z</time>
      </trkpt>
      <trkpt lat="45.90468" lon="6.16547">
        <ele>679</ele>
        <time>2018-08-06T07:31:06Z</time>
      </trkpt>
      <trkpt lat="45.90474" lon="6.16546">
        <ele>679</ele>
        <time>2018-08-06T07:31:10Z</time>
      </trkpt>
      <trkpt lat="45.90481" lon="6.16544">
        <ele>678</ele>
        <time>2018-08-06T07:31:15Z</time>
      </trkpt>
      <trkpt lat="45.90486" lon="6.16546">
        <ele>677</ele>
        <time>2018-08-06T07:31:19Z</time>
      </trkpt>
      <trkpt lat="45.90492" lon="6.16546">
        <ele>677</ele>
        <time>2018-08-06T07:31:24Z</time>
      </trkpt>
      <trkpt lat="45.90495" lon="6.16553">
        <ele>676</ele>
        <time>2018-08-06T07:31:34Z</time>
      </trkpt>
      <trkpt lat="45.90501" lon="6.16552">
        <ele>675</ele>
        <time>2018-08-06T07:31:41Z</time>
      </trkpt>
      <trkpt lat="45.90507" lon="6.16551">
        <ele>674</ele>
        <time>2018-08-06T07:31:52Z</time>
      </trkpt>
      <trkpt lat="45.90513" lon="6.1655">
        <ele>673</ele>
        <time>2018-08-06T07:31:59Z</time>
      </trkpt>
      <trkpt lat="45.90519" lon="6.1655">
        <ele>673</ele>
        <time>2018-08-06T07:32:03Z</time>
      </trkpt>
      <trkpt lat="45.90532" lon="6.16546">
        <ele>672</ele>
        <time>2018-08-06T07:32:10Z</time>
      </trkpt>
      <trkpt lat="45.90538" lon="6.16543">
        <ele>672</ele>
        <time>2018-08-06T07:32:16Z</time>
      </trkpt>
      <trkpt lat="45.90544" lon="6.16534">
        <ele>670</ele>
        <time>2018-08-06T07:32:29Z</time>
      </trkpt>
      <trkpt lat="45.90545" lon="6.16528">
        <ele>669</ele>
        <time>2018-08-06T07:32:38Z</time>
      </trkpt>
      <trkpt lat="45.90548" lon="6.16525">
        <ele>668</ele>
        <time>2018-08-06T07:32:50Z</time>
      </trkpt>
      <trkpt lat="45.90551" lon="6.16522">
        <ele>666</ele>
        <time>2018-08-06T07:32:57Z</time>
      </trkpt>
      <trkpt lat="45.9055" lon="6.16517">
        <ele>665</ele>
        <time>2018-08-06T07:33:08Z</time>
      </trkpt>
      <trkpt lat="45.9055" lon="6.16511">
        <ele>663</ele>
        <time>2018-08-06T07:33:20Z</time>
      </trkpt>
      <trkpt lat="45.9055" lon="6.16505">
        <ele>662</ele>
        <time>2018-08-06T07:33:25Z</time>
      </trkpt>
      <trkpt lat="45.90549" lon="6.165">
        <ele>661</ele>
        <time>2018-08-06T07:33:29Z</time>
      </trkpt>
      <trkpt lat="45.90548" lon="6.16495">
        <ele>660</ele>
        <time>2018-08-06T07:33:34Z</time>
      </trkpt>
      <trkpt lat="45.90542" lon="6.16492">
        <ele>659</ele>
        <time>2018-08-06T07:33:41Z</time>
      </trkpt>
      <trkpt lat="45.90537" lon="6.16488">
        <ele>657</ele>
        <time>2018-08-06T07:33:48Z</time>
      </trkpt>
      <trkpt lat="45.90531" lon="6.16485">
        <ele>656</ele>
        <time>2018-08-06T07:33:54Z</time>
      </trkpt>
      <trkpt lat="45.90526" lon="6.16482">
        <ele>654</ele>
        <time>2018-08-06T07:34:01Z</time>
      </trkpt>
      <trkpt lat="45.9052" lon="6.16478">
        <ele>651</ele>
        <time>2018-08-06T07:34:10Z</time>
      </trkpt>
      <trkpt lat="45.90518" lon="6.16482">
        <ele>650</ele>
        <time>2018-08-06T07:34:15Z</time>
      </trkpt>
      <trkpt lat="45.90513" lon="6.16486">
        <ele>650</ele>
        <time>2018-08-06T07:34:20Z</time>
      </trkpt>
      <trkpt lat="45.90509" lon="6.16479">
        <ele>647</ele>
        <time>2018-08-06T07:34:32Z</time>
      </trkpt>
      <trkpt lat="45.90505" lon="6.16474">
        <ele>645</ele>
        <time>2018-08-06T07:34:39Z</time>
      </trkpt>
      <trkpt lat="45.90498" lon="6.16469">
        <ele>644</ele>
        <time>2018-08-06T07:34:45Z</time>
      </trkpt>
      <trkpt lat="45.90492" lon="6.16465">
        <ele>643</ele>
        <time>2018-08-06T07:34:47Z</time>
      </trkpt>
      <trkpt lat="45.90486" lon="6.16461">
        <ele>642</ele>
        <time>2018-08-06T07:34:50Z</time>
      </trkpt>
      <trkpt lat="45.9048" lon="6.1646">
        <ele>640</ele>
        <time>2018-08-06T07:35:03Z</time>
      </trkpt>
      <trkpt lat="45.90477" lon="6.16452">
        <ele>639</ele>
        <time>2018-08-06T07:35:10Z</time>
      </trkpt>
      <trkpt lat="45.90473" lon="6.16446">
        <ele>636</ele>
        <time>2018-08-06T07:35:15Z</time>
      </trkpt>
      <trkpt lat="45.90466" lon="6.1644">
        <ele>634</ele>
        <time>2018-08-06T07:35:19Z</time>
      </trkpt>
      <trkpt lat="45.90462" lon="6.16437">
        <ele>633</ele>
        <time>2018-08-06T07:35:23Z</time>
      </trkpt>
      <trkpt lat="45.90457" lon="6.16431">
        <ele>632</ele>
        <time>2018-08-06T07:35:28Z</time>
      </trkpt>
      <trkpt lat="45.90452" lon="6.16434">
        <ele>631</ele>
        <time>2018-08-06T07:35:35Z</time>
      </trkpt>
      <trkpt lat="45.9044" lon="6.16437">
        <ele>628</ele>
        <time>2018-08-06T07:35:47Z</time>
      </trkpt>
      <trkpt lat="45.90445" lon="6.16432">
        <ele>627</ele>
        <time>2018-08-06T07:35:53Z</time>
      </trkpt>
      <trkpt lat="45.9045" lon="6.16428">
        <ele>626</ele>
        <time>2018-08-06T07:35:56Z</time>
      </trkpt>
      <trkpt lat="45.90455" lon="6.16425">
        <ele>623</ele>
        <time>2018-08-06T07:36:02Z</time>
      </trkpt>
      <trkpt lat="45.9046" lon="6.16421">
        <ele>622</ele>
        <time>2018-08-06T07:36:06Z</time>
      </trkpt>
      <trkpt lat="45.90465" lon="6.16418">
        <ele>619</ele>
        <time>2018-08-06T07:36:17Z</time>
      </trkpt>
      <trkpt lat="45.90466" lon="6.1641">
        <ele>619</ele>
        <time>2018-08-06T07:36:24Z</time>
      </trkpt>
      <trkpt lat="45.9046" lon="6.1641">
        <ele>617</ele>
        <time>2018-08-06T07:36:38Z</time>
      </trkpt>
      <trkpt lat="45.90463" lon="6.16403">
        <ele>612</ele>
        <time>2018-08-06T07:36:58Z</time>
      </trkpt>
      <trkpt lat="45.90469" lon="6.16402">
        <ele>610</ele>
        <time>2018-08-06T07:37:03Z</time>
      </trkpt>
      <trkpt lat="45.90481" lon="6.164">
        <ele>609</ele>
        <time>2018-08-06T07:37:10Z</time>
      </trkpt>
      <trkpt lat="45.90486" lon="6.16401">
        <ele>609</ele>
        <time>2018-08-06T07:37:15Z</time>
      </trkpt>
      <trkpt lat="45.90494" lon="6.16399">
        <ele>608</ele>
        <time>2018-08-06T07:37:19Z</time>
      </trkpt>
      <trkpt lat="45.90501" lon="6.16396">
        <ele>607</ele>
        <time>2018-08-06T07:37:25Z</time>
      </trkpt>
      <trkpt lat="45.90505" lon="6.16389">
        <ele>606</ele>
        <time>2018-08-06T07:37:28Z</time>
      </trkpt>
      <trkpt lat="45.90505" lon="6.1638">
        <ele>603</ele>
        <time>2018-08-06T07:37:38Z</time>
      </trkpt>
      <trkpt lat="45.90505" lon="6.16371">
        <ele>603</ele>
        <time>2018-08-06T07:37:42Z</time>
      </trkpt>
      <trkpt lat="45.90503" lon="6.16363">
        <ele>601</ele>
        <time>2018-08-06T07:37:46Z</time>
      </trkpt>
      <trkpt lat="45.90498" lon="6.16361">
        <ele>598</ele>
        <time>2018-08-06T07:37:53Z</time>
      </trkpt>
      <trkpt lat="45.90494" lon="6.16364">
        <ele>596</ele>
        <time>2018-08-06T07:38:00Z</time>
      </trkpt>
      <trkpt lat="45.90491" lon="6.16356">
        <ele>594</ele>
        <time>2018-08-06T07:38:10Z</time>
      </trkpt>
      <trkpt lat="45.90478" lon="6.16329">
        <ele>584</ele>
        <time>2018-08-06T07:38:34Z</time>
      </trkpt>
      <trkpt lat="45.90471" lon="6.16314">
        <ele>580</ele>
        <time>2018-08-06T07:38:44Z</time>
      </trkpt>
      <trkpt lat="45.90467" lon="6.16306">
        <ele>578</ele>
        <time>2018-08-06T07:38:48Z</time>
      </trkpt>
      <trkpt lat="45.9046" lon="6.16291">
        <ele>575</ele>
        <time>2018-08-06T07:38:56Z</time>
      </trkpt>
      <trkpt lat="45.90456" lon="6.16285">
        <ele>575</ele>
        <time>2018-08-06T07:39:00Z</time>
      </trkpt>
      <trkpt lat="45.90455" lon="6.16272">
        <ele>571</ele>
        <time>2018-08-06T07:39:08Z</time>
      </trkpt>
      <trkpt lat="45.90456" lon="6.16265">
        <ele>570</ele>
        <time>2018-08-06T07:39:12Z</time>
      </trkpt>
      <trkpt lat="45.90454" lon="6.16248">
        <ele>568</ele>
        <time>2018-08-06T07:39:22Z</time>
      </trkpt>
      <trkpt lat="45.90456" lon="6.16229">
        <ele>564</ele>
        <time>2018-08-06T07:39:31Z</time>
      </trkpt>
      <trkpt lat="45.90459" lon="6.16212">
        <ele>562</ele>
        <time>2018-08-06T07:39:38Z</time>
      </trkpt>
      <trkpt lat="45.90457" lon="6.16203">
        <ele>561</ele>
        <time>2018-08-06T07:39:42Z</time>
      </trkpt>
      <trkpt lat="45.90456" lon="6.16196">
        <ele>559</ele>
        <time>2018-08-06T07:39:46Z</time>
      </trkpt>
      <trkpt lat="45.90459" lon="6.16189">
        <ele>558</ele>
        <time>2018-08-06T07:39:51Z</time>
      </trkpt>
      <trkpt lat="45.90458" lon="6.16181">
        <ele>557</ele>
        <time>2018-08-06T07:39:55Z</time>
      </trkpt>
      <trkpt lat="45.90451" lon="6.16148">
        <ele>545</ele>
        <time>2018-08-06T07:40:14Z</time>
      </trkpt>
      <trkpt lat="45.90448" lon="6.16141">
        <ele>543</ele>
        <time>2018-08-06T07:40:18Z</time>
      </trkpt>
      <trkpt lat="45.90444" lon="6.16134">
        <ele>540</ele>
        <time>2018-08-06T07:40:22Z</time>
      </trkpt>
      <trkpt lat="45.90441" lon="6.16125">
        <ele>537</ele>
        <time>2018-08-06T07:40:27Z</time>
      </trkpt>
      <trkpt lat="45.90438" lon="6.16117">
        <ele>534</ele>
        <time>2018-08-06T07:40:31Z</time>
      </trkpt>
      <trkpt lat="45.90435" lon="6.1611">
        <ele>533</ele>
        <time>2018-08-06T07:40:34Z</time>
      </trkpt>
      <trkpt lat="45.90433" lon="6.16103">
        <ele>530</ele>
        <time>2018-08-06T07:40:38Z</time>
      </trkpt>
      <trkpt lat="45.90429" lon="6.16095">
        <ele>528</ele>
        <time>2018-08-06T07:40:43Z</time>
      </trkpt>
      <trkpt lat="45.90423" lon="6.16079">
        <ele>523</ele>
        <time>2018-08-06T07:40:52Z</time>
      </trkpt>
      <trkpt lat="45.90422" lon="6.16074">
        <ele>521</ele>
        <time>2018-08-06T07:40:55Z</time>
      </trkpt>
      <trkpt lat="45.90421" lon="6.16069">
        <ele>520</ele>
        <time>2018-08-06T07:40:58Z</time>
      </trkpt>
      <trkpt lat="45.9042" lon="6.16063">
        <ele>518</ele>
        <time>2018-08-06T07:41:01Z</time>
      </trkpt>
      <trkpt lat="45.90417" lon="6.16058">
        <ele>517</ele>
        <time>2018-08-06T07:41:04Z</time>
      </trkpt>
      <trkpt lat="45.90412" lon="6.16044">
        <ele>514</ele>
        <time>2018-08-06T07:41:10Z</time>
      </trkpt>
      <trkpt lat="45.90408" lon="6.16029">
        <ele>511</ele>
        <time>2018-08-06T07:41:18Z</time>
      </trkpt>
      <trkpt lat="45.90404" lon="6.16017">
        <ele>508</ele>
        <time>2018-08-06T07:41:26Z</time>
      </trkpt>
      <trkpt lat="45.90404" lon="6.16011">
        <ele>505</ele>
        <time>2018-08-06T07:41:32Z</time>
      </trkpt>
      <trkpt lat="45.90404" lon="6.16006">
        <ele>504</ele>
        <time>2018-08-06T07:41:35Z</time>
      </trkpt>
      <trkpt lat="45.90404" lon="6.16">
        <ele>502</ele>
        <time>2018-08-06T07:41:39Z</time>
      </trkpt>
      <trkpt lat="45.90403" lon="6.15995">
        <ele>501</ele>
        <time>2018-08-06T07:41:46Z</time>
      </trkpt>
      <trkpt lat="45.90406" lon="6.15992">
        <ele>500</ele>
        <time>2018-08-06T07:41:52Z</time>
      </trkpt>
      <trkpt lat="45.90427" lon="6.15981">
        <ele>492</ele>
        <time>2018-08-06T07:42:11Z</time>
      </trkpt>
      <trkpt lat="45.90431" lon="6.1598">
        <ele>491</ele>
        <time>2018-08-06T07:42:15Z</time>
      </trkpt>
      <trkpt lat="45.90435" lon="6.15981">
        <ele>490</ele>
        <time>2018-08-06T07:42:20Z</time>
      </trkpt>
      <trkpt lat="45.90449" lon="6.15978">
        <ele>486</ele>
        <time>2018-08-06T07:42:30Z</time>
      </trkpt>
      <trkpt lat="45.90456" lon="6.15972">
        <ele>484</ele>
        <time>2018-08-06T07:42:38Z</time>
      </trkpt>
    </trkseg>
  </trk>
</gpx>